GFSCGP_925_thetae_000.txt.gz
Theta_e
330 332 334 329 330 326 322 321 323 318 315 316 315 314 315 315 314 312 311 313 313 313 312 313 313 314 315 316 318 320 322 325 322 324 327 328 329 329 329 329 329 328 329 328
331 331 329 325 326 328 321 321 320 319 317 315 316 316 314 313 312 310 311 313 314 313 311 311 312 313 313 313 314 316 319 323 325 324 327 328 329 323 317 315 316 315 314 313
329 331 327 328 324 326 322 322 323 323 317 316 315 317 316 313 313 311 312 312 313 313 312 311 311 311 312 312 313 313 314 315 317 322 323 322 315 313 313 313 312 312 312 311
329 327 330 330 330 327 331 319 320 319 319 321 316 321 316 313 314 313 312 312 312 312 312 311 311 311 311 312 313 313 313 313 313 314 314 313 312 311 311 312 311 310 309 307
329 329 331 332 330 326 330 319 320 319 318 316 317 318 316 312 315 314 311 311 311 311 311 311 310 310 311 312 312 312 312 312 312 313 312 312 311 310 309 308 307 306 305 304
324 324 327 330 327 323 320 318 316 314 314 320 317 318 317 314 313 314 312 309 311 311 310 309 310 311 311 311 311 311 311 311 311 310 310 309 307 306 305 304 303 302 302 301
321 327 320 323 321 316 318 320 326 324 322 323 315 316 317 314 311 313 313 309 310 310 309 309 308 308 309 310 311 310 310 309 309 308 306 305 304 303 301 300 299 298 297 297
327 330 318 314 324 323 320 319 321 327 324 321 314 318 317 313 310 309 312 309 309 310 308 309 307 307 308 309 309 309 308 306 306 305 303 303 302 300 298 296 295 293 293 293
326 326 312 313 312 321 316 319 316 319 317 321 320 316 314 313 312 311 310 309 310 309 309 308 306 307 308 308 307 306 305 304 303 303 302 300 298 297 294 292 290 289 289 289
317 316 315 312 311 310 314 313 320 317 327 326 320 316 319 315 316 312 310 310 309 309 308 307 305 306 307 306 304 303 303 302 301 300 299 296 294 292 290 289 288 288 288 288
313 314 318 312 314 314 313 314 312 315 316 321 320 318 311 313 313 312 310 309 309 309 308 306 304 306 305 303 302 301 301 300 299 298 295 294 291 288 287 287 287 287 287 287
317 314 316 317 315 311 311 312 313 318 317 312 313 317 310 309 309 311 311 310 308 308 307 304 304 304 303 300 299 298 298 297 295 295 292 289 287 287 287 286 286 286 286 287
318 318 322 324 320 317 316 313 311 311 311 313 316 317 310 307 310 311 312 311 309 308 305 304 303 303 301 299 297 296 295 294 293 291 289 287 287 286 286 286 286 286 286 286
319 318 318 323 321 317 319 315 311 314 315 314 313 316 314 311 313 313 313 313 310 307 306 305 303 301 299 297 296 295 293 292 291 289 287 287 286 286 286 286 286 286 286 285
317 320 317 313 316 317 317 317 312 314 315 318 317 313 314 312 312 310 309 309 309 307 305 306 304 299 297 295 294 294 292 290 288 287 286 286 286 286 286 285 285 285 285 285
314 316 313 312 311 312 315 316 312 314 313 313 314 315 310 311 310 313 312 311 310 307 305 305 302 299 296 294 294 292 290 288 287 286 286 285 285 285 285 285 285 285 285 284
312 311 313 316 312 313 313 310 314 313 312 313 315 311 310 313 313 313 313 311 310 307 303 304 300 297 295 294 293 291 289 287 286 286 285 285 285 285 285 284 284 284 284 284
310 309 309 309 313 312 311 312 308 310 311 311 312 313 312 312 310 308 307 308 307 305 304 301 297 295 294 293 291 289 287 286 286 285 285 285 285 285 284 284 284 284 283 283
308 310 312 314 312 313 317 311 313 315 316 313 313 312 311 309 308 309 306 305 303 302 300 299 298 295 292 291 288 287 286 286 285 284 284 284 284 284 284 284 284 283 283 283
308 308 312 309 316 318 315 313 310 313 318 311 311 311 311 309 311 309 305 303 301 299 298 296 294 293 291 288 287 286 285 284 284 284 284 284 284 284 284 283 283 283 283 282
311 311 313 316 317 315 312 312 311 317 315 310 307 307 308 308 307 305 302 300 298 297 295 294 293 291 289 287 286 285 284 284 284 284 284 284 284 283 283 283 283 283 282 282
310 311 312 312 316 318 310 312 315 310 306 306 306 306 306 305 306 304 301 299 296 294 293 293 290 288 287 286 285 285 284 284 284 284 283 283 283 283 283 283 283 282 282 281
314 311 312 312 313 310 308 310 306 305 306 305 306 305 305 306 306 305 302 298 296 294 293 291 290 287 286 285 285 284 284 284 283 283 283 283 283 283 283 282 282 281 281 281
310 308 313 312 311 309 307 306 305 306 306 305 305 305 304 305 303 302 300 297 295 293 291 290 287 286 286 285 284 284 283 283 283 283 282 282 282 282 282 282 282 281 281 281
308 309 310 310 308 308 307 307 305 304 303 303 302 302 302 302 301 301 297 296 294 291 289 288 287 286 285 284 284 284 283 283 282 282 282 282 281 282 282 281 281 281 281 282
306 309 311 311 308 307 306 305 304 304 303 300 302 301 299 299 298 298 296 296 293 290 288 286 285 284 284 284 284 283 283 282 282 281 281 281 281 282 281 281 281 281 282 282

GFSCGP_925_thetae_003.txt.gz
Theta_e
323 330 333 330 330 326 322 325 326 323 317 317 318 316 318 316 314 314 313 315 315 315 312 311 312 313 314 317 319 322 324 323 325 326 328 327 324 318 316 314 313 312 311 310
325 332 329 326 327 325 322 324 324 320 317 317 319 319 318 315 315 312 313 315 315 314 313 311 311 311 312 313 314 316 319 324 326 327 327 321 315 313 312 311 311 310 309 308
325 328 327 328 328 331 324 325 323 326 319 316 316 320 317 314 312 311 313 314 314 314 314 312 311 310 311 312 313 313 314 314 318 319 314 313 313 313 312 310 308 307 306 305
326 326 328 329 329 328 332 320 323 321 324 328 317 325 318 316 313 313 314 315 314 314 313 312 311 311 310 311 312 313 313 314 313 314 313 313 310 309 306 305 304 304 303 302
327 328 328 330 329 326 329 323 325 322 321 316 317 321 320 311 314 314 313 313 313 313 313 312 311 310 310 311 311 311 312 311 311 311 310 308 306 305 304 303 302 301 299 297
325 323 329 329 325 326 315 320 320 316 316 322 318 321 322 317 314 313 312 312 313 313 312 310 309 309 309 310 310 310 309 308 308 307 306 305 304 302 301 299 297 296 295 294
324 329 325 327 324 319 320 327 332 329 324 326 314 317 320 315 311 314 315 312 313 313 312 310 310 309 309 309 309 308 307 305 304 304 303 302 300 298 296 294 292 292 291 291
327 332 323 323 325 324 326 327 329 331 326 323 313 321 319 312 312 310 313 311 312 312 311 310 309 308 308 308 307 306 304 303 303 302 299 298 296 294 291 290 289 289 289 289
323 326 316 319 317 322 320 327 318 319 316 323 322 319 317 313 312 310 311 312 314 312 310 310 307 307 307 306 304 303 302 302 301 298 297 295 293 291 289 288 288 288 288 288
321 319 317 311 314 311 320 317 325 318 326 327 322 318 322 316 314 311 311 313 312 311 310 308 306 306 305 303 302 301 300 300 298 296 294 292 290 289 288 288 288 288 287 287
312 316 317 312 315 314 316 320 316 316 318 324 323 321 312 313 311 314 311 312 312 311 310 308 306 305 302 301 300 299 298 298 296 294 292 290 288 288 288 287 287 287 287 286
312 314 316 315 314 312 312 316 317 320 318 313 316 320 311 309 309 311 311 310 310 310 309 306 306 302 299 298 297 297 296 295 293 291 289 288 287 287 287 287 286 286 286 286
316 317 321 322 318 316 315 311 312 312 312 314 320 320 310 309 312 310 311 311 310 309 307 305 304 301 298 296 295 294 293 292 290 289 288 287 287 287 286 286 286 286 286 286
317 316 320 324 320 316 317 313 310 315 316 315 314 316 314 312 313 311 312 311 310 309 307 305 304 300 297 295 294 293 291 290 288 288 287 287 287 286 285 285 285 285 285 285
318 320 316 313 317 316 316 316 312 314 316 319 317 314 313 311 311 310 309 308 309 308 307 306 303 299 296 293 293 292 290 289 287 287 286 286 285 285 286 285 285 285 285 284
314 317 313 312 312 314 317 315 314 313 312 313 313 314 310 310 309 312 311 309 310 308 307 306 302 298 295 293 293 291 289 288 287 286 285 285 285 285 285 285 284 284 284 284
316 312 315 318 312 311 315 311 313 314 311 314 316 316 308 312 312 311 310 309 309 308 306 306 302 298 294 294 293 291 288 287 286 285 285 285 285 285 285 284 284 284 284 284
313 314 311 311 311 314 314 310 311 313 309 308 309 308 310 311 308 307 306 308 307 306 304 304 299 295 294 293 291 289 287 286 285 285 285 285 284 284 284 284 284 284 283 283
308 311 313 314 312 312 315 310 311 313 313 310 311 310 309 307 307 308 306 304 304 302 302 300 298 294 292 291 289 287 286 285 285 285 284 284 284 284 284 283 283 283 283 283
309 309 315 311 314 315 314 312 310 312 317 311 310 310 308 308 312 309 304 303 300 299 298 296 294 292 291 288 287 286 285 285 284 284 284 284 283 283 283 283 283 283 283 282
312 311 314 316 316 314 312 311 309 318 316 309 308 308 307 309 307 304 302 300 297 296 295 294 292 290 289 287 286 285 284 284 284 284 284 283 283 283 283 283 283 283 282 281
312 313 313 313 315 316 309 312 315 311 305 305 305 305 306 304 304 304 302 299 296 293 293 292 290 288 287 286 286 285 284 284 284 283 283 283 283 282 282 282 282 282 281 281
313 310 312 312 312 308 307 309 305 304 305 305 305 304 304 304 304 303 302 299 295 294 292 291 289 287 286 285 285 284 284 283 283 283 282 282 282 282 282 282 281 281 281 281
309 308 311 311 310 308 306 304 304 304 304 303 303 303 303 304 303 302 300 298 295 293 291 290 288 286 285 285 284 284 283 283 282 282 282 282 282 282 281 281 281 281 281 281
308 308 310 309 308 307 307 305 303 302 301 301 301 301 301 301 301 300 298 296 295 292 290 288 287 286 285 284 284 283 283 282 282 281 281 281 281 281 281 280 280 281 281 281
306 308 311 312 307 307 306 303 302 302 301 301 301 300 298 298 298 298 296 295 293 290 288 287 286 285 284 283 283 283 282 282 281 281 281 281 281 281 280 280 280 280 281 281

GFSCGP_925_thetae_006.txt.gz
Theta_e
319 321 327 329 330 329 326 330 331 328 325 325 328 329 324 326 323 322 321 321 321 320 317 316 316 317 317 319 321 325 328 328 329 330 329 325 321 317 315 313 312 311 310 310
319 323 325 328 329 330 329 329 330 328 323 324 328 329 328 326 323 322 321 321 321 319 318 316 316 316 316 316 317 319 322 326 328 329 323 319 317 314 313 311 310 309 307 307
320 322 324 329 330 330 329 329 328 329 325 324 324 329 328 319 317 316 318 321 320 319 318 317 316 316 315 315 315 315 317 317 317 317 316 316 315 314 313 310 308 306 305 303
317 320 327 329 331 330 331 328 328 329 332 335 324 333 328 324 320 318 320 320 320 319 318 317 316 316 315 315 315 314 314 314 315 315 315 314 313 311 308 307 306 304 302 299
318 324 324 331 330 328 329 327 329 329 331 330 330 329 328 319 320 319 320 320 319 319 318 317 316 314 314 314 313 313 312 311 311 311 311 310 308 307 305 304 303 301 300 297
317 323 322 327 327 327 324 326 325 324 327 334 330 328 328 323 321 319 320 320 319 319 317 316 314 314 313 313 312 311 309 308 308 307 306 306 305 303 303 300 299 298 296 296
316 316 328 327 329 322 327 330 336 338 334 334 320 323 326 322 317 319 320 320 319 318 317 316 315 314 313 313 311 309 308 306 305 304 303 302 301 299 298 297 296 295 294 294
321 330 330 328 328 327 327 330 331 334 333 330 319 326 323 318 317 316 319 320 319 318 317 316 316 314 313 312 310 308 306 305 303 301 299 298 297 296 295 294 293 293 292 292
322 324 324 327 323 325 327 331 324 324 322 326 326 325 323 318 318 316 317 319 320 318 317 316 315 314 312 310 308 307 305 303 300 298 297 295 294 293 292 292 291 291 291 290
319 326 322 319 324 318 327 326 328 325 330 330 326 326 326 321 319 317 317 319 320 318 316 315 314 313 311 308 306 304 303 301 298 296 294 293 292 291 291 290 290 290 290 289
320 323 319 322 324 327 327 328 327 325 323 329 328 326 320 320 318 318 317 319 319 318 316 315 313 312 308 305 304 302 301 299 296 294 293 292 291 290 289 289 289 289 289 288
321 321 327 322 316 321 325 326 326 330 325 322 323 324 317 317 316 316 317 318 318 317 316 314 313 309 306 304 302 301 299 298 294 292 291 290 289 289 289 289 288 288 288 288
320 322 326 325 321 316 323 323 327 324 319 324 327 325 315 317 318 317 317 317 317 316 315 313 312 308 306 303 301 299 297 295 292 291 290 289 289 289 289 288 288 287 287 287
318 322 322 325 325 323 324 322 324 326 327 325 323 323 318 318 319 317 317 317 316 316 314 313 312 308 305 302 299 297 295 293 291 289 289 289 289 288 288 287 287 287 286 287
321 323 322 321 320 321 322 322 320 322 324 325 325 322 321 319 320 319 318 317 316 315 314 312 312 309 304 301 298 296 293 292 289 289 289 288 287 287 287 287 287 286 286 286
321 323 317 319 319 320 321 321 322 323 323 322 322 322 319 316 317 315 316 315 315 315 313 312 311 308 304 300 297 295 292 290 289 288 287 287 287 287 287 287 286 286 286 286
322 321 321 323 316 317 322 321 320 320 319 320 322 321 316 315 315 316 316 315 315 314 312 312 310 307 302 299 297 294 291 289 288 287 287 287 287 287 286 286 286 286 286 286
322 320 318 320 315 324 320 314 319 320 320 319 319 316 316 317 315 314 314 314 312 311 311 311 309 304 300 297 294 291 289 288 287 287 287 286 286 286 286 286 286 286 286 286
320 322 323 321 324 319 315 314 314 318 321 315 317 314 315 313 313 312 310 309 309 308 308 309 306 301 297 295 292 290 289 287 287 287 286 286 285 285 285 285 285 285 285 285
314 321 324 318 321 323 317 314 312 314 317 313 314 315 314 313 317 316 309 307 305 305 304 302 299 297 296 293 290 290 288 287 286 286 286 285 285 284 285 285 285 285 285 284
317 317 324 322 326 319 315 313 313 319 320 313 314 313 313 315 313 309 306 304 302 302 300 297 296 295 293 290 289 289 286 286 285 285 285 284 284 284 284 284 284 284 284 284
321 319 319 321 325 326 312 312 318 316 313 312 312 312 311 309 308 307 306 303 301 299 297 296 294 292 290 289 288 287 286 285 284 284 284 284 284 283 283 284 284 284 283 283
317 318 319 318 319 312 310 312 310 312 311 310 310 309 308 308 308 307 306 304 301 298 296 294 293 291 289 287 286 286 285 284 284 284 284 284 283 283 284 283 283 283 283 283
311 310 315 314 313 311 310 307 308 309 309 308 308 307 308 308 307 306 305 304 302 299 296 293 292 291 289 286 285 285 284 283 283 284 284 283 283 283 283 283 283 282 282 282
313 313 314 313 310 309 308 308 308 307 306 306 305 305 306 306 305 305 304 303 301 298 295 293 292 291 289 286 285 284 283 283 283 283 283 283 283 283 283 282 282 282 282 282
311 314 317 318 313 313 311 308 307 307 307 306 305 304 302 303 303 301 302 300 299 297 294 292 290 289 287 285 284 283 283 282 282 283 283 283 283 283 282 282 282 282 282 282

GFSCGP_925_thetae_009.txt.gz
Theta_e
316 321 323 323 325 327 329 332 331 331 328 330 330 328 326 326 326 326 324 324 324 323 321 320 321 321 322 325 328 330 330 331 332 332 329 325 321 318 316 314 312 311 310 309
318 321 319 319 323 326 330 330 331 329 327 327 327 328 327 327 328 328 324 323 324 322 320 320 319 319 319 320 323 326 329 330 328 325 323 320 318 315 314 312 309 308 306 306
318 319 318 318 320 330 331 333 330 330 328 326 327 330 330 329 328 323 323 323 324 322 320 320 319 319 318 318 319 319 320 320 320 320 319 317 316 315 312 310 308 306 304 301
316 315 319 319 322 327 333 329 328 329 331 332 329 331 328 328 323 321 321 323 323 321 320 320 319 318 318 318 317 317 317 317 318 318 317 316 314 311 309 308 306 305 302 299
314 317 319 321 325 326 332 329 328 330 332 334 333 333 330 328 325 323 322 323 322 321 320 319 319 318 317 317 316 315 314 314 313 313 312 311 310 308 307 306 304 302 301 298
314 316 319 320 324 328 329 330 331 330 330 333 331 332 329 328 325 324 322 322 322 320 320 319 317 317 316 315 314 313 312 311 310 309 309 308 307 306 305 303 301 300 299 297
316 314 316 321 324 326 330 332 338 335 335 332 328 330 329 322 321 322 322 322 321 320 319 318 317 316 316 315 313 311 310 309 308 306 306 305 304 302 301 300 298 297 297 296
322 323 318 317 327 328 330 332 331 333 332 330 324 328 327 322 321 321 322 322 321 320 319 318 318 317 316 314 312 310 308 306 305 303 302 301 300 299 298 296 296 295 294 294
321 323 319 321 327 326 329 334 325 329 327 330 328 326 322 321 320 319 321 322 321 320 320 318 318 317 315 313 312 310 307 305 303 301 300 298 297 296 295 294 294 293 293 292
318 324 318 325 326 324 328 327 330 327 330 331 329 327 327 322 322 320 320 322 322 321 319 318 318 316 314 312 310 308 307 304 301 299 298 296 295 294 293 293 292 292 292 291
318 318 320 322 329 328 330 330 329 328 328 330 331 328 324 321 321 321 320 322 322 321 319 318 317 315 313 310 308 307 304 302 299 298 296 295 293 292 292 292 291 291 291 290
320 321 323 324 318 325 328 329 328 330 328 326 326 326 320 320 320 320 320 320 321 320 319 317 317 314 311 309 307 305 304 301 298 296 295 293 293 292 292 291 291 290 290 289
322 324 330 329 323 324 327 326 328 328 326 328 327 327 319 320 321 320 320 320 321 320 318 317 316 314 311 309 307 304 302 300 296 295 294 293 292 292 291 291 290 289 289 289
321 322 325 327 326 326 329 328 326 326 328 327 327 324 320 321 321 320 319 320 320 319 318 317 316 314 311 308 306 303 301 297 295 293 293 292 291 290 290 290 289 289 288 288
322 325 323 322 323 324 325 327 326 328 327 328 326 325 323 321 321 321 320 320 320 319 317 316 316 314 310 307 304 301 299 296 294 292 292 291 289 290 289 289 289 288 288 288
321 326 322 324 322 323 324 324 325 326 327 326 325 326 323 322 321 320 320 319 319 318 317 316 315 314 310 307 303 300 297 294 292 291 290 289 289 289 289 288 288 288 288 288
323 325 324 324 321 323 325 323 323 324 323 324 326 324 324 319 319 320 319 319 318 318 316 315 314 313 310 306 302 298 295 292 291 290 290 289 289 288 288 288 288 288 288 288
323 324 323 325 320 327 322 317 321 322 323 323 323 323 320 319 318 318 318 317 317 315 315 314 313 311 307 303 300 297 293 292 291 290 289 289 288 288 287 287 287 287 287 287
323 324 326 327 328 327 325 316 319 322 322 321 321 321 318 318 316 314 313 314 313 312 312 313 311 308 303 299 297 293 292 291 290 289 288 288 287 287 287 287 287 287 287 287
321 323 327 325 324 328 319 316 315 319 322 320 321 320 318 316 319 316 311 310 309 309 309 308 306 302 300 297 294 293 292 291 289 287 287 287 286 286 286 286 286 286 286 286
323 324 326 326 329 325 317 315 315 319 323 315 316 317 316 317 317 312 309 308 306 306 304 302 301 300 298 294 293 293 290 288 287 286 286 286 286 286 286 285 286 286 286 285
323 322 325 325 327 329 316 315 319 318 315 315 316 315 315 312 310 309 307 305 304 302 300 300 299 297 293 292 293 290 289 287 286 286 286 286 286 285 285 285 286 285 285 285
326 322 322 322 324 315 314 315 313 315 315 315 314 313 311 310 309 308 307 305 303 300 299 298 297 294 292 291 290 289 287 286 286 286 286 286 285 285 286 285 285 285 284 284
314 313 319 317 315 314 313 311 312 314 313 312 311 310 309 309 308 308 307 305 303 301 299 297 295 294 292 289 287 287 286 285 285 285 285 285 285 286 285 285 285 284 284 283
315 313 317 316 313 312 311 311 311 310 310 309 308 309 309 308 308 307 306 306 304 301 298 296 296 295 292 288 287 286 285 285 285 285 285 285 285 285 285 285 284 283 283 283
313 316 318 320 315 316 313 310 309 309 308 308 307 306 305 307 306 305 305 303 303 300 298 296 295 292 291 288 287 286 285 284 284 284 285 285 284 285 284 284 283 283 283 283

GFSCGP_925_thetae_012.txt.gz
Theta_e
315 318 320 320 320 322 325 327 331 327 329 328 329 328 328 325 324 323 322 320 320 319 318 321 322 324 328 329 330 331 331 331 332 332 323 320 316 314 312 310 308 307 307 306
316 318 316 317 318 321 322 327 330 329 328 328 328 329 327 325 324 323 323 320 319 318 318 319 320 321 324 327 330 331 329 328 327 324 321 318 315 312 310 308 306 304 303 302
316 316 315 316 317 321 321 325 329 331 329 328 327 328 325 324 323 323 324 320 320 318 317 317 317 319 320 320 321 324 325 323 322 319 317 315 313 311 309 308 305 303 301 299
315 314 314 317 317 318 322 323 326 331 334 335 326 329 326 325 326 325 320 320 319 318 316 317 316 317 318 319 319 319 319 319 319 318 316 315 311 309 308 306 304 302 300 299
315 315 314 316 319 317 321 323 325 330 334 333 332 329 327 325 327 321 317 318 319 317 316 316 316 318 318 317 316 316 315 315 314 313 312 310 308 307 306 304 302 300 299 297
314 313 314 315 315 316 319 321 326 331 333 337 335 330 328 326 323 320 318 319 319 317 316 316 317 317 316 315 313 312 311 311 310 310 309 308 307 305 302 301 299 298 297 296
315 315 313 313 320 316 321 326 334 335 338 337 327 332 328 320 320 321 319 319 318 317 316 316 315 315 315 314 312 310 309 308 307 306 305 304 302 301 299 298 297 296 295 294
316 316 316 313 317 321 323 325 329 337 338 329 326 329 326 319 318 319 319 319 318 317 316 315 314 315 315 313 311 309 307 305 304 303 302 301 299 298 296 295 295 294 293 292
319 318 316 318 315 321 322 322 322 332 325 327 325 325 319 318 318 318 319 319 318 317 316 315 314 315 315 312 310 308 305 303 302 300 299 297 297 296 295 294 293 293 292 292
314 321 319 319 320 322 325 325 332 330 331 332 327 325 323 319 318 317 319 319 319 317 316 315 314 315 314 312 309 307 304 302 300 299 297 295 294 294 293 293 292 291 291 291
312 315 320 317 327 326 327 330 330 330 329 330 328 325 320 319 319 317 317 319 319 318 316 316 314 315 313 310 309 306 303 300 299 297 296 294 293 293 292 292 291 290 290 290
313 317 323 322 319 324 327 329 328 329 330 327 325 322 317 317 317 317 316 319 319 317 316 315 313 313 311 309 307 305 302 299 298 296 295 293 293 292 292 291 290 290 289 289
314 318 325 323 325 326 330 329 327 327 326 328 325 322 317 317 317 319 316 318 319 317 315 314 313 310 309 309 306 305 302 298 296 295 294 293 292 292 291 290 290 289 289 288
322 324 321 330 328 326 330 328 326 327 328 327 325 319 318 319 318 317 316 316 318 317 316 314 312 309 309 308 306 304 301 297 295 294 293 292 291 290 290 289 289 289 288 288
316 327 326 325 327 327 328 327 327 328 327 326 324 321 317 318 317 316 316 317 318 317 316 314 312 309 309 307 305 302 299 296 294 293 292 291 290 290 289 289 289 288 288 288
317 324 324 322 322 324 328 327 326 326 324 324 325 324 319 316 316 316 315 316 317 317 316 313 312 309 307 305 303 300 297 294 293 292 291 290 290 289 289 288 288 288 288 288
320 323 324 322 321 322 323 323 325 325 324 325 327 324 319 317 317 316 315 316 316 315 314 313 312 309 307 304 301 298 295 293 292 291 290 289 289 288 288 288 287 287 287 287
321 323 324 322 321 324 321 316 319 321 322 320 320 321 320 316 315 313 314 313 313 313 313 312 310 309 306 303 300 297 293 292 291 290 289 289 288 288 287 287 287 287 287 287
319 324 326 326 326 324 324 316 318 320 321 319 320 319 315 314 312 311 310 310 310 310 310 310 309 305 302 300 296 293 292 291 290 289 289 288 287 287 286 286 286 286 286 286
322 322 327 321 325 327 318 316 314 318 321 314 317 318 315 314 315 312 309 308 307 307 308 305 303 301 299 295 294 292 291 290 289 288 287 287 287 286 286 286 285 286 286 286
324 324 327 325 326 323 317 314 313 320 320 313 314 315 314 313 312 309 306 305 305 304 302 301 300 299 296 294 293 292 290 288 287 286 286 286 286 286 286 285 285 285 285 285
324 325 325 324 327 327 314 314 318 317 314 314 313 312 310 309 308 306 304 303 301 300 300 300 297 294 294 293 293 290 288 287 286 286 286 286 286 285 285 285 285 285 285 284
324 322 324 323 322 316 313 314 313 314 313 313 310 309 309 307 306 305 303 301 300 299 299 297 294 293 292 292 291 288 287 286 286 286 286 285 285 285 286 285 285 285 284 284
319 316 317 316 314 313 312 311 312 313 311 310 309 308 307 307 306 304 302 300 299 298 297 295 293 291 290 290 289 287 286 286 285 285 285 285 285 286 285 285 285 284 284 283
313 312 315 314 313 311 311 311 310 308 307 307 306 306 306 306 305 304 303 301 299 298 297 295 293 292 289 288 287 286 285 285 285 285 284 285 285 284 284 284 284 284 284 284
311 313 315 317 314 313 311 308 308 307 307 306 305 304 304 304 303 302 302 302 300 298 297 296 295 291 289 288 286 286 285 285 284 284 284 284 284 284 284 283 283 283 283 283

GFSCGP_925_thetae_015.txt.gz
Theta_e
313 315 317 316 318 319 318 320 325 325 324 327 327 328 326 324 323 320 315 315 317 317 316 320 322 325 327 329 330 331 332 332 332 328 323 320 313 313 311 310 308 307 306 304
313 316 314 314 316 319 320 321 322 321 324 326 328 328 326 325 325 322 320 316 317 316 316 317 321 326 328 329 330 330 331 331 329 326 321 318 312 310 308 306 304 303 302 301
314 314 313 315 315 318 319 320 320 322 323 325 327 330 326 324 324 322 320 317 318 318 317 314 315 320 323 325 325 326 327 326 323 321 317 313 309 307 306 305 303 301 301 299
313 311 312 315 316 316 318 317 319 321 324 331 328 335 327 325 323 321 318 315 317 316 316 314 313 316 319 320 321 322 322 321 319 318 314 311 309 308 306 304 302 300 299 298
313 313 313 314 315 315 316 315 317 319 323 327 330 334 327 323 326 323 319 316 316 316 316 315 314 316 317 318 318 319 319 318 316 314 313 310 308 307 304 302 300 299 297 296
312 312 313 313 312 313 316 317 318 321 324 330 329 330 327 324 323 322 317 317 316 316 315 315 315 316 315 315 314 313 313 312 314 313 310 308 306 304 302 300 298 297 296 294
316 314 313 313 316 315 315 317 320 324 326 327 326 327 328 320 320 322 317 317 316 315 315 315 314 313 312 311 311 310 310 308 309 308 307 306 303 301 300 298 296 295 294 293
312 309 314 313 314 315 316 316 322 322 327 329 331 334 330 323 317 318 317 317 316 316 315 315 313 312 311 310 309 308 307 305 306 305 303 301 300 299 297 296 294 294 293 292
313 314 313 313 313 314 316 317 315 325 328 331 333 326 320 316 316 317 318 317 316 315 315 314 313 312 311 309 308 306 304 303 303 301 300 298 297 296 295 294 293 293 292 291
313 315 313 313 313 314 317 317 321 321 333 334 328 322 322 318 318 319 319 317 316 315 314 314 313 312 311 309 307 305 303 301 300 298 298 296 295 294 294 294 293 292 291 290
312 314 315 310 318 317 319 323 321 324 325 333 332 325 317 317 317 319 318 317 316 315 314 314 312 312 310 308 306 304 302 300 298 297 295 294 293 293 293 293 292 291 290 290
313 316 318 317 317 319 317 322 321 325 330 328 321 320 314 315 314 317 317 317 316 315 314 313 312 310 308 306 305 303 300 299 297 295 295 293 293 293 293 292 291 290 289 289
313 316 318 321 322 322 322 324 323 323 326 330 322 319 315 313 313 313 316 317 316 315 314 312 310 308 307 305 303 301 299 298 295 295 294 293 292 292 292 291 290 289 289 288
312 318 321 327 328 327 326 323 324 324 328 326 319 318 318 316 316 313 316 317 316 315 315 312 310 307 306 305 303 301 298 297 295 294 293 292 292 292 291 290 289 289 288 288
312 319 318 318 319 324 326 326 322 322 327 327 318 318 317 316 314 313 315 316 316 315 314 312 310 307 305 304 303 301 297 295 294 293 292 292 291 291 290 289 288 288 288 288
314 320 322 327 325 326 328 328 326 325 327 325 323 325 314 314 312 313 315 317 317 315 314 312 309 307 305 303 300 297 295 294 293 292 292 291 290 289 289 288 288 287 287 287
317 321 326 322 327 325 328 327 325 325 324 323 325 322 314 315 315 313 313 317 316 314 312 311 310 306 304 301 299 296 294 293 292 291 290 290 289 288 288 287 287 287 286 286
316 320 323 322 318 322 318 316 322 324 323 321 322 319 317 313 310 310 311 313 313 313 312 311 308 304 302 299 298 295 293 292 291 290 290 289 288 288 287 287 286 286 286 286
317 321 325 324 323 320 319 315 317 320 320 318 320 317 313 311 311 309 307 309 309 309 308 306 305 301 299 297 295 294 292 291 290 289 289 288 288 287 286 286 285 285 285 286
319 319 323 314 319 325 318 315 313 315 320 314 314 315 314 312 315 311 307 307 305 304 303 300 298 297 296 293 294 292 291 290 289 288 288 287 287 286 286 285 285 285 285 285
325 324 320 322 323 319 317 314 312 320 318 312 312 313 312 312 310 306 304 302 301 300 298 298 296 294 293 293 293 291 290 289 288 287 287 286 286 286 285 285 285 285 285 284
324 325 326 324 326 323 313 313 316 313 313 311 309 308 307 306 306 304 302 301 300 298 297 296 294 293 293 293 292 289 288 288 287 287 286 286 286 285 285 285 285 285 284 284
325 322 323 322 323 315 312 313 313 311 311 310 308 306 306 305 304 302 300 299 298 297 294 294 293 292 292 292 291 288 287 287 286 286 286 285 285 285 285 285 284 284 283 283
318 316 317 319 316 313 311 311 312 310 308 306 306 305 305 303 302 301 299 298 297 296 293 292 291 289 289 289 289 289 287 286 286 285 285 284 285 285 285 284 284 283 283 283
313 313 315 313 312 311 310 310 308 306 306 305 304 305 304 303 302 300 299 298 297 296 293 292 290 289 287 288 287 287 286 285 285 284 284 284 284 284 284 283 283 283 283 283
309 311 314 316 311 310 309 307 306 306 306 305 305 304 303 303 302 301 299 298 296 295 293 292 290 289 288 287 286 286 285 285 284 284 284 284 284 284 283 282 282 282 282 282

GFSCGP_925_thetae_018.txt.gz
Theta_e
312 314 315 314 316 317 318 317 319 319 321 323 325 326 324 324 321 319 319 316 313 316 315 317 320 322 325 326 328 326 322 331 333 328 324 321 314 313 316 312 309 308 306 304
314 315 313 312 313 317 318 320 320 318 318 321 323 325 324 323 324 322 321 317 313 316 315 316 322 324 327 328 329 327 327 325 327 329 322 321 315 311 309 306 305 303 302 301
313 312 311 313 314 316 316 318 318 318 317 317 319 322 323 324 323 322 322 318 315 317 316 316 317 322 326 327 329 329 326 326 326 324 320 313 309 305 303 302 301 300 300 299
313 312 312 314 315 315 317 316 317 318 319 320 321 328 324 324 325 322 322 314 316 316 316 315 315 317 322 324 327 328 326 326 324 323 318 313 306 304 303 302 300 299 298 298
313 312 313 313 313 313 315 314 316 317 319 319 319 322 324 324 325 325 323 314 316 316 315 316 316 317 320 321 322 324 323 322 320 320 317 311 307 306 303 300 299 298 297 296
312 312 312 312 311 313 314 315 315 316 319 322 317 321 322 326 324 323 321 316 316 316 314 314 314 315 315 319 319 319 319 317 317 314 311 309 306 304 301 299 298 297 296 295
314 314 312 313 314 313 313 315 316 316 318 317 317 319 319 321 320 321 322 315 315 315 314 314 313 312 310 312 314 316 315 313 313 311 309 307 305 302 300 298 297 296 295 294
316 315 313 312 315 316 315 315 315 314 314 315 320 324 324 320 319 319 319 317 315 315 315 315 313 311 309 308 309 310 311 309 310 308 305 304 302 300 298 297 296 295 294 292
314 313 312 312 312 313 314 317 313 316 318 324 325 328 325 323 317 315 319 316 316 315 315 314 311 310 308 307 307 307 306 305 305 304 302 300 299 298 297 295 295 294 292 291
311 310 312 313 312 312 313 312 315 315 320 321 327 331 329 323 320 316 316 316 316 316 315 313 311 309 307 307 306 305 304 302 301 300 299 298 297 296 295 294 294 292 291 290
310 310 313 311 313 313 314 315 315 313 316 330 328 329 322 318 318 318 316 316 316 315 314 313 311 309 306 306 304 303 302 300 298 298 297 295 294 294 294 293 292 291 290 289
310 313 313 313 312 312 313 313 314 317 318 318 324 324 318 316 318 319 318 317 315 315 314 312 310 307 305 303 302 301 299 298 297 296 295 294 293 293 293 292 291 290 289 289
312 316 317 316 314 314 318 315 316 317 319 325 328 324 313 313 316 318 316 315 314 313 312 311 309 307 304 302 301 300 298 297 295 294 294 293 293 293 292 291 290 290 289 288
313 316 317 318 324 321 321 317 318 318 320 321 321 321 319 314 314 314 315 314 314 313 313 311 309 306 304 301 299 298 297 296 294 294 293 293 293 292 291 290 289 288 288 288
312 316 316 316 317 319 321 319 321 323 321 323 322 323 319 316 314 315 315 314 314 314 313 311 309 306 303 300 299 298 296 294 294 293 293 292 292 291 290 289 288 288 287 287
312 315 316 322 322 321 326 322 324 322 319 318 318 319 315 311 310 313 314 315 315 314 313 311 308 305 302 300 297 296 294 293 294 293 292 291 291 290 289 288 287 287 287 286
316 316 320 327 326 326 330 325 323 321 318 317 319 320 313 315 313 313 313 315 315 314 313 310 308 305 303 299 297 294 294 293 293 292 291 291 290 289 288 287 287 286 286 286
317 317 322 325 325 323 319 323 322 322 320 321 321 317 314 313 309 309 309 314 313 313 312 309 307 304 301 298 296 295 293 292 292 291 290 290 289 288 287 287 286 285 286 286
316 319 321 322 321 319 318 315 321 324 323 318 321 314 312 310 311 311 307 310 310 310 309 308 305 300 298 296 295 294 292 291 291 290 289 288 288 287 286 286 285 285 285 285
315 317 321 313 320 324 318 314 312 314 319 314 315 313 312 311 315 313 306 305 303 301 302 299 298 296 294 292 294 292 290 290 290 289 288 288 287 286 286 285 285 285 285 284
323 321 319 319 322 318 316 313 311 321 317 313 312 312 312 312 310 306 301 299 298 297 295 295 294 292 291 293 293 290 290 289 289 288 287 287 286 286 285 285 285 285 284 283
322 324 324 322 322 319 313 312 316 312 311 310 309 308 307 306 305 302 300 299 298 296 294 293 292 290 292 293 292 289 289 288 288 287 286 286 285 285 285 285 285 284 283 283
323 320 322 319 319 314 311 313 312 309 310 309 305 306 305 304 303 302 299 298 295 294 293 292 291 290 291 292 292 289 287 287 287 286 285 285 285 285 285 284 283 283 283 282
317 315 319 319 316 314 311 311 310 309 308 305 304 304 304 302 301 299 298 296 294 293 291 291 290 288 288 290 290 289 287 287 286 285 285 284 285 285 284 283 283 282 282 282
316 314 314 315 312 311 310 310 307 305 304 303 302 302 302 301 300 299 297 295 293 291 290 290 288 287 287 288 288 287 286 286 285 284 284 284 284 284 283 283 282 282 282 283
308 315 318 319 312 311 310 306 305 306 304 303 303 302 300 300 299 298 296 295 293 291 290 289 288 287 286 287 286 286 285 285 284 284 284 284 284 283 283 282 282 282 282 282

GFSCGP_925_thetae_021.txt.gz
Theta_e
311 316 317 316 314 316 317 319 320 316 317 318 319 320 320 320 320 322 318 317 316 314 313 316 318 319 321 323 324 323 328 334 335 329 321 318 317 316 316 315 314 315 308 304
313 314 312 311 311 313 316 318 319 316 316 317 317 317 317 316 318 321 321 319 319 313 314 314 317 320 323 325 325 324 325 330 328 327 324 322 315 311 309 305 304 304 303 302
313 312 311 312 312 313 314 315 315 316 315 315 315 315 312 314 317 319 321 320 320 315 314 314 316 321 324 326 326 324 323 325 324 325 321 314 309 304 302 301 301 300 301 301
314 313 311 311 313 313 314 313 315 315 317 317 316 317 315 317 317 320 320 320 317 313 314 315 316 318 323 325 326 324 322 323 322 321 320 317 309 302 300 301 300 299 299 299
313 312 312 312 313 312 314 313 315 316 317 316 316 318 313 317 317 318 319 319 315 314 315 315 318 319 323 324 325 323 322 321 319 320 322 317 308 304 301 300 299 298 297 296
311 310 311 312 311 311 313 313 313 315 316 318 315 316 315 311 315 319 319 319 316 314 315 315 315 318 318 321 323 321 320 318 319 320 318 317 308 303 300 298 298 296 296 295
314 314 312 312 313 312 313 316 318 319 318 316 312 316 315 311 314 318 319 319 315 313 314 314 315 313 313 316 317 318 319 315 316 316 313 309 306 304 302 299 298 296 295 294
315 314 315 312 313 313 313 316 317 316 313 312 310 313 314 313 312 312 315 315 312 314 314 316 315 314 311 312 314 314 315 313 312 310 307 306 305 303 300 298 297 295 295 293
314 312 312 312 312 313 316 316 313 315 315 319 317 316 320 314 317 315 315 315 314 314 314 316 313 311 309 309 310 312 312 310 309 307 305 303 301 299 297 296 295 295 293 291
312 309 311 311 312 312 313 312 317 316 316 315 314 320 320 320 319 316 315 316 314 314 315 314 311 308 307 307 308 309 310 308 305 304 302 300 298 297 296 295 295 293 292 290
312 312 310 312 314 314 314 315 314 312 313 315 319 317 319 320 320 317 313 313 314 314 315 312 310 307 304 304 304 304 305 303 300 300 298 297 296 295 294 295 293 292 291 289
310 312 313 312 311 311 311 312 313 315 311 311 311 313 314 313 313 317 315 315 315 315 313 311 308 304 302 301 301 300 300 299 298 297 296 295 294 294 294 293 292 290 289 288
311 314 314 317 312 311 315 312 312 312 314 313 314 310 314 316 316 317 318 317 315 314 312 309 306 304 302 299 299 298 298 297 295 295 294 293 293 293 293 292 290 289 288 288
311 314 316 316 318 314 315 314 313 313 315 314 315 316 317 318 318 316 315 316 315 313 312 309 306 303 300 299 297 296 296 295 294 294 293 293 293 293 291 290 289 288 287 287
312 314 314 314 314 315 317 315 314 315 314 314 313 319 318 317 317 317 315 313 313 313 312 310 307 303 300 297 296 295 295 294 294 293 293 292 292 291 290 289 288 287 287 286
312 312 314 315 317 317 319 317 315 314 314 314 317 319 315 316 314 313 313 314 314 313 312 310 307 303 299 297 295 294 293 293 294 293 292 292 291 290 289 288 287 287 286 286
313 314 318 324 322 320 323 321 316 316 316 318 321 318 316 316 316 314 314 314 314 313 312 309 307 303 300 296 295 293 293 293 293 292 291 291 290 289 288 287 286 286 286 286
316 317 319 323 323 328 323 322 317 316 319 318 319 318 316 316 317 310 311 314 313 312 311 308 305 302 299 296 295 294 293 292 292 291 290 290 289 288 287 286 286 286 286 285
315 318 323 325 322 321 316 323 323 323 322 320 319 318 316 314 310 311 308 310 310 309 309 306 304 300 297 295 294 293 292 292 291 290 289 289 288 287 286 285 286 286 285 285
314 316 321 321 322 324 316 312 317 319 326 318 317 317 317 313 316 315 307 306 305 304 304 300 298 296 294 293 294 292 290 290 290 289 289 288 287 286 285 285 285 285 284 284
319 321 323 320 322 316 315 313 311 320 316 312 314 317 317 314 313 304 300 298 297 298 296 296 295 293 291 292 292 290 290 289 289 288 288 286 286 285 285 285 285 284 284 283
321 321 322 321 321 317 311 312 315 311 311 310 310 308 306 304 302 300 298 297 295 294 292 292 291 289 290 291 293 289 289 288 288 287 286 285 285 285 285 285 284 283 283 282
320 317 318 317 316 312 311 312 311 308 309 308 306 305 304 303 301 299 296 294 293 292 291 291 289 288 290 292 293 289 287 287 287 286 285 284 285 285 285 284 283 283 282 282
314 313 318 318 315 314 312 310 309 307 306 303 303 304 304 302 299 297 295 293 292 291 290 289 289 287 287 290 290 289 287 287 286 285 284 284 285 285 284 283 283 282 282 282
314 313 315 314 312 310 309 309 306 304 303 302 301 302 302 300 299 297 295 293 291 290 289 289 288 286 286 288 287 287 286 286 285 284 284 284 284 284 283 283 282 282 282 283
310 315 317 318 314 312 310 307 304 304 303 302 301 300 299 300 298 296 294 292 290 289 288 287 287 286 286 286 286 286 285 285 284 284 284 284 284 283 283 282 282 281 281 282

GFSCGP_925_thetae_024.txt.gz
Theta_e
311 316 318 317 313 315 316 318 320 318 317 317 317 317 316 314 316 317 318 319 316 315 315 315 317 317 319 321 323 325 330 332 334 332 327 321 320 320 321 320 315 313 308 305
312 314 313 312 313 315 315 316 316 314 313 315 315 316 314 313 314 315 317 318 318 316 313 313 315 317 319 321 322 323 329 330 329 328 324 321 316 315 314 311 306 303 302 303
312 311 310 312 311 313 313 313 312 312 312 312 313 313 310 309 311 311 312 314 316 317 315 312 312 317 320 322 323 322 327 328 326 326 321 316 311 306 303 301 300 300 301 302
313 311 311 311 312 311 313 311 313 314 314 314 311 315 311 310 309 309 310 313 315 316 313 313 312 316 320 323 324 323 323 324 324 323 319 319 309 302 299 299 299 299 299 299
314 312 312 314 312 310 312 311 313 314 315 315 314 315 310 309 311 311 313 314 315 316 315 313 313 317 320 323 325 323 321 321 320 319 318 314 307 304 299 298 298 298 297 297
312 309 311 310 310 310 312 312 313 314 316 317 313 314 312 309 309 308 309 311 314 315 312 313 314 317 320 322 323 320 319 318 317 317 315 315 311 301 298 297 297 296 296 295
315 314 312 312 312 311 312 316 317 317 318 315 311 314 313 308 308 308 309 311 314 314 312 313 315 316 315 318 318 317 317 314 314 314 311 312 310 305 300 298 297 296 295 294
313 311 312 312 312 312 313 314 316 318 312 310 309 312 312 310 310 310 310 312 312 312 311 314 316 317 315 315 315 314 314 312 312 312 311 310 307 302 300 299 297 296 295 294
315 311 311 312 311 312 315 316 312 317 316 318 314 311 311 312 309 311 310 309 310 311 312 314 316 316 314 313 313 314 313 312 311 310 308 304 303 301 298 297 296 295 293 292
310 313 309 310 311 312 314 312 315 315 317 318 311 310 313 313 314 314 313 311 310 311 312 313 315 313 311 311 311 312 313 310 308 305 304 302 300 299 297 295 295 293 292 291
310 312 310 312 314 313 316 316 316 315 316 311 311 309 311 315 314 317 315 313 311 312 313 314 312 308 305 305 307 307 307 306 303 302 300 298 296 295 295 294 293 292 291 289
310 313 313 310 311 311 311 312 313 314 310 311 309 311 313 315 316 316 316 312 311 311 313 312 308 304 303 301 302 302 301 301 300 299 297 296 294 294 294 292 291 290 290 288
310 314 314 313 312 312 313 313 312 312 312 310 310 310 306 309 314 316 315 314 312 311 309 306 304 303 300 298 297 297 297 298 297 296 295 293 293 293 292 291 290 289 288 288
310 315 314 315 315 312 314 313 313 313 315 312 311 311 310 310 316 317 316 316 314 311 309 307 305 302 299 297 295 294 294 295 295 294 293 293 292 292 291 290 289 288 288 287
312 314 313 314 314 312 314 314 315 314 312 312 310 310 309 315 315 316 314 317 315 314 310 307 304 300 297 295 293 293 293 293 294 293 293 292 291 291 290 289 288 287 287 287
314 313 314 315 314 316 315 316 315 313 312 312 312 312 312 314 315 316 316 316 317 313 311 307 303 299 296 294 292 291 292 292 293 293 291 291 290 290 289 288 287 286 286 287
315 313 317 319 317 317 321 316 316 314 313 312 314 312 311 312 316 315 313 312 314 313 311 307 303 300 296 294 292 291 292 292 292 292 291 290 290 289 288 287 286 286 286 286
316 315 316 320 322 328 322 321 315 315 314 313 312 314 317 317 314 311 308 311 311 312 310 307 303 298 295 293 293 293 292 292 292 291 290 289 289 288 286 286 286 286 286 285
314 317 321 324 323 323 318 322 318 317 317 313 313 314 315 314 310 310 308 310 310 309 309 305 302 298 294 293 293 292 291 291 291 290 289 289 288 287 286 285 286 286 285 285
313 314 319 321 323 324 316 311 318 318 325 318 317 317 317 313 317 313 307 307 307 307 304 301 297 295 293 291 292 291 290 290 290 289 288 288 287 286 285 286 286 285 284 284
319 319 321 323 321 317 314 311 317 324 319 310 316 317 314 315 310 303 301 299 299 300 298 296 295 293 290 291 292 289 289 289 289 288 287 286 286 285 285 285 285 284 284 283
317 319 321 320 320 316 311 312 315 311 308 310 310 313 314 305 301 300 298 298 297 295 294 292 291 289 289 291 292 288 289 288 288 287 286 285 285 285 285 285 284 284 283 282
318 315 316 315 314 310 311 311 310 307 308 308 307 306 304 301 299 297 295 294 292 292 290 290 289 288 289 291 292 288 286 287 286 286 285 284 285 285 285 284 284 283 282 281
314 312 317 317 315 313 311 309 308 306 305 302 303 302 302 299 296 294 293 292 291 290 289 289 288 287 286 289 289 288 286 286 286 285 284 285 285 285 284 283 283 282 282 281
312 313 315 314 312 310 309 308 305 303 302 302 301 301 299 297 296 294 292 291 290 289 289 289 287 285 284 287 286 286 286 286 285 284 284 284 284 284 283 283 282 282 281 282
309 315 317 317 313 312 310 305 303 304 302 302 301 300 299 298 296 294 292 290 289 288 287 286 285 284 284 285 285 285 285 286 284 284 284 284 284 283 283 282 282 281 281 281

GFSCGP_925_thetae_027.txt.gz
Theta_e
312 316 316 316 314 314 316 318 318 317 316 314 316 316 315 314 314 315 315 315 316 317 317 317 318 319 318 318 320 322 324 329 332 333 332 328 327 325 325 326 321 320 313 311
313 315 313 313 314 315 316 317 318 315 313 313 314 315 314 314 314 314 314 314 315 316 317 316 315 316 318 318 319 322 326 330 330 327 324 323 318 314 317 316 312 311 305 304
313 311 310 312 312 314 314 316 315 313 312 311 312 313 310 309 310 311 312 313 313 315 316 317 316 315 318 317 320 321 327 328 326 326 325 318 313 309 305 304 303 301 301 301
312 311 311 311 313 312 314 311 312 313 313 313 310 314 310 310 310 309 308 309 311 312 313 315 316 315 316 318 320 321 325 325 324 325 322 320 312 306 301 302 301 298 300 300
313 312 312 313 312 310 312 310 311 312 314 313 313 314 312 309 310 311 310 309 309 311 313 315 316 315 317 318 321 321 322 322 321 320 321 316 310 305 300 299 297 297 297 297
310 309 310 311 311 310 311 312 313 314 315 318 313 314 313 311 309 308 309 310 310 313 314 315 315 315 316 318 321 321 320 318 318 317 315 314 311 303 298 296 296 295 295 295
313 315 312 311 312 310 312 316 317 318 319 316 311 314 313 310 310 309 309 308 308 309 312 314 314 316 317 318 320 318 317 315 314 314 312 311 308 306 301 297 296 294 294 294
315 311 313 312 313 313 313 314 317 317 316 313 309 315 313 310 310 310 309 309 309 309 312 313 315 317 317 318 316 314 313 312 311 309 308 306 306 299 296 297 297 296 296 294
313 312 310 311 311 311 314 315 312 315 314 318 315 311 309 309 309 311 313 314 312 309 312 313 314 317 317 317 315 314 311 310 308 308 307 307 304 300 298 297 296 295 294 293
310 311 308 310 311 311 314 311 315 315 316 317 315 313 313 309 310 315 316 317 315 311 310 313 315 317 316 316 313 311 311 308 307 308 308 305 301 298 296 295 295 294 293 292
309 309 308 311 312 312 315 316 315 314 315 315 312 312 306 307 316 316 316 316 315 313 311 313 315 315 313 310 309 307 307 307 304 304 303 299 297 296 295 294 293 293 292 291
309 310 310 309 309 310 310 313 312 316 315 315 311 311 314 314 314 316 316 316 314 312 311 313 311 307 308 306 304 303 302 301 300 299 298 297 295 294 294 293 292 292 291 289
309 312 311 311 311 310 313 313 313 313 314 315 314 311 307 308 312 316 316 316 314 311 308 306 306 307 305 304 301 299 297 296 296 296 295 293 293 293 292 292 291 290 289 288
310 312 312 314 315 314 315 314 313 313 315 314 313 311 309 308 308 311 316 316 316 312 307 306 305 303 301 299 297 295 293 294 293 293 293 292 292 292 292 290 289 289 288 287
311 314 313 313 313 313 313 314 314 314 313 314 311 310 309 308 308 315 315 314 316 314 309 306 302 300 297 296 294 293 292 292 292 292 292 291 291 291 290 289 288 287 287 287
312 315 314 315 314 315 315 317 315 314 313 313 312 312 309 312 313 313 311 312 316 315 310 306 302 299 296 294 293 291 290 291 292 292 291 291 290 289 289 288 287 287 287 287
315 314 316 318 317 319 322 320 316 315 313 313 315 312 310 311 312 312 311 312 313 315 310 304 301 299 295 293 292 291 290 291 291 291 290 290 289 288 287 287 286 286 286 286
314 315 316 318 321 328 323 318 319 315 315 313 312 311 312 313 313 312 313 314 312 313 308 304 300 296 293 292 291 290 290 290 290 289 289 289 288 287 286 286 286 286 286 286
311 315 320 323 322 321 317 315 319 316 318 314 313 312 312 312 312 313 307 308 310 310 307 303 299 295 292 291 290 290 290 290 290 289 289 288 288 286 286 286 286 286 285 285
313 314 319 319 323 323 317 313 317 317 323 316 313 313 311 313 318 313 305 306 309 306 303 299 296 293 291 290 290 290 289 289 288 288 288 287 287 286 286 286 286 285 285 284
318 317 318 320 324 316 313 310 315 320 317 309 313 314 313 316 312 304 302 300 300 301 298 296 294 293 290 290 291 289 288 288 288 288 287 287 286 285 286 286 285 284 284 283
314 316 322 320 320 317 310 315 317 311 308 308 308 313 312 306 302 300 298 298 297 296 294 292 291 290 289 290 290 288 287 287 287 287 286 285 285 285 285 285 284 283 283 282
317 313 315 315 314 310 310 309 309 307 306 306 305 306 305 302 300 297 295 293 293 292 291 290 289 288 288 289 290 286 285 287 286 286 285 285 285 285 285 284 283 283 282 281
312 310 316 316 315 312 311 309 307 303 304 302 302 302 302 298 295 294 293 292 291 290 289 289 288 287 286 288 288 287 286 287 286 285 284 284 285 284 284 283 283 282 281 281
311 311 315 314 312 310 309 307 305 302 301 300 299 298 297 296 294 293 291 290 289 289 288 288 287 285 284 286 286 286 286 286 285 284 284 284 284 284 283 283 282 281 281 282
308 313 316 317 313 312 309 305 303 303 302 300 299 297 296 295 293 291 290 289 288 287 286 286 285 284 284 285 285 286 286 286 285 284 284 283 283 283 282 282 281 281 280 281

GFSCGP_925_thetae_030.txt.gz
Theta_e
316 318 318 317 315 317 317 319 319 318 317 317 317 317 317 316 317 317 317 317 318 319 320 320 321 322 322 322 322 323 324 327 331 334 336 336 330 324 322 332 330 328 322 318
315 316 315 314 315 315 316 318 318 316 315 315 315 316 315 314 315 315 315 315 315 316 317 318 319 320 321 322 322 323 325 328 331 333 331 331 327 319 315 321 317 318 317 318
316 314 312 314 315 315 315 315 315 316 315 313 314 315 315 314 313 313 313 313 314 314 315 316 318 319 320 321 322 323 325 330 331 329 328 321 312 310 310 311 311 313 315 301
315 313 312 314 315 314 316 313 314 315 315 316 313 319 315 314 314 313 313 313 313 314 314 314 315 317 319 320 322 323 326 328 329 326 320 318 319 312 311 306 307 305 302 303
315 314 315 314 314 313 314 312 313 313 314 314 315 316 314 313 314 313 314 314 314 313 313 314 315 314 316 319 322 323 325 326 324 322 323 322 320 316 307 302 299 299 298 298
313 312 313 313 312 312 312 313 313 314 315 319 315 316 316 315 315 314 313 313 313 313 314 314 314 315 315 318 323 324 324 323 321 323 322 324 319 307 302 298 297 297 296 296
314 314 313 311 313 312 313 316 316 319 319 317 313 316 316 313 312 313 313 313 312 314 313 313 315 318 317 318 322 323 322 321 320 322 321 321 312 308 304 299 297 296 295 296
317 318 314 313 313 313 314 314 317 316 316 314 312 315 314 313 312 312 312 314 317 318 318 314 314 316 318 319 322 322 321 319 319 320 319 312 309 307 300 297 297 295 297 296
317 315 311 313 313 312 315 316 314 316 316 318 314 312 312 312 312 311 314 316 317 318 318 316 315 316 318 320 322 322 321 318 317 317 311 304 303 299 298 296 296 295 295 294
314 315 310 311 312 312 313 313 316 316 315 315 313 313 313 312 312 317 315 316 318 318 318 317 315 317 318 320 322 322 320 316 316 313 309 302 299 299 297 296 295 295 293 292
312 311 311 311 312 313 313 315 316 314 315 315 314 313 311 310 311 314 315 316 318 318 318 317 315 317 319 321 321 319 316 314 311 307 303 299 298 299 296 295 294 294 293 292
311 311 311 312 310 310 310 312 312 317 316 315 315 316 311 314 315 316 314 314 317 317 316 316 316 318 319 319 318 316 313 310 306 301 299 297 297 295 295 293 293 292 292 291
311 313 314 316 314 312 312 312 312 314 315 317 318 315 310 312 314 312 312 314 315 317 315 314 313 315 317 316 314 312 309 303 299 298 295 294 294 294 294 293 292 291 291 290
311 313 314 315 318 316 316 315 314 314 316 316 316 315 312 311 310 310 310 311 314 316 315 313 312 313 314 314 311 308 301 297 295 294 294 293 294 293 292 291 291 290 290 289
312 314 313 314 313 314 315 315 315 315 315 316 315 314 313 312 311 310 310 312 313 316 315 311 311 311 310 307 303 298 295 293 293 293 293 294 292 292 291 290 289 289 289 288
312 314 314 315 314 315 318 318 319 318 316 316 315 316 312 312 312 311 313 312 312 316 315 311 308 308 306 301 297 294 292 292 293 293 292 291 291 290 290 289 288 288 288 287
314 314 316 318 316 317 323 322 320 318 315 316 317 314 313 312 311 312 312 313 315 315 314 312 308 306 301 298 294 293 292 293 293 292 291 291 290 289 289 288 288 288 288 287
315 315 314 317 318 326 323 318 317 320 318 317 315 314 313 312 313 313 313 314 315 315 315 310 307 300 298 296 294 292 293 292 292 290 290 290 289 288 288 288 288 287 287 287
314 315 317 319 323 319 320 319 320 318 321 316 317 316 315 313 312 313 309 309 312 314 312 307 302 296 296 295 293 293 292 292 291 291 290 289 288 288 287 287 287 287 287 286
313 314 316 316 322 322 319 316 316 318 324 313 314 316 314 313 321 316 307 310 310 309 306 303 299 298 296 294 294 293 293 292 291 290 289 288 288 288 287 287 287 285 285 285
318 316 317 318 322 321 316 313 316 321 319 313 312 315 313 317 313 307 305 305 305 303 300 298 297 296 294 293 293 293 292 291 289 288 288 287 287 287 286 286 285 285 285 284
318 319 319 319 322 323 314 317 321 316 314 312 311 312 314 309 304 302 301 301 301 299 297 296 294 292 292 292 293 292 290 288 287 287 286 286 285 285 285 285 285 284 284 284
321 318 319 320 320 316 313 315 313 311 312 310 309 309 310 306 303 300 299 299 298 297 296 295 294 293 293 292 291 289 287 287 286 286 285 285 285 285 285 286 285 285 284 284
316 314 319 319 319 318 316 312 310 308 308 306 306 308 308 305 301 299 297 296 295 294 293 293 292 292 291 290 288 287 286 286 286 286 286 285 285 285 284 284 284 284 284 284
317 315 319 319 319 318 313 311 309 306 304 303 302 304 304 301 300 298 296 295 293 292 292 292 291 290 288 288 287 286 285 286 286 286 285 286 285 285 284 283 283 283 283 283
314 318 320 320 317 316 314 308 306 306 304 301 300 299 299 299 297 296 295 293 292 291 290 289 288 288 287 286 285 285 286 286 286 285 285 285 285 284 284 284 283 281 281 280

GFSCGP_925_thetae_033.txt.gz
Theta_e
316 318 320 320 321 321 319 320 321 320 319 319 319 319 318 318 317 318 318 319 320 320 321 321 321 322 322 323 324 325 325 325 327 331 336 339 339 338 338 336 331 324 320 320
318 320 318 317 316 317 318 319 319 318 316 316 317 317 316 316 316 316 316 317 318 318 318 319 320 320 321 322 324 324 324 325 328 331 335 338 338 334 330 324 322 317 316 318
319 317 314 316 316 317 317 317 317 317 316 316 316 317 317 317 316 316 316 315 316 316 316 317 317 319 321 322 323 324 324 326 329 332 335 336 332 323 316 316 314 315 314 313
317 315 314 315 316 316 318 315 315 315 316 319 314 320 316 315 316 316 315 314 314 315 315 316 316 317 318 321 323 323 324 326 330 333 334 332 323 317 314 311 311 312 309 310
317 315 316 315 315 314 316 314 314 315 316 315 316 318 316 315 316 315 315 315 315 315 315 315 316 316 316 318 323 324 325 326 331 332 332 328 321 319 312 309 309 306 304 303
315 313 314 315 314 314 313 313 313 314 315 319 316 316 317 316 315 316 316 316 314 314 314 314 315 314 315 315 318 324 325 327 330 331 327 324 325 318 309 306 304 301 300 300
315 314 313 313 314 313 314 316 318 320 320 318 314 317 316 314 314 314 314 314 314 314 316 317 316 314 315 316 317 323 325 328 329 328 325 325 324 312 310 305 302 300 299 299
316 320 315 313 314 314 313 314 317 318 318 317 315 315 314 314 313 313 313 313 313 316 317 318 319 317 315 318 318 321 325 326 326 325 326 326 319 312 308 305 302 299 299 298
318 317 313 314 313 313 314 316 313 316 314 316 313 313 313 313 313 313 313 312 313 317 317 318 319 318 314 316 319 322 324 325 324 325 325 324 314 309 306 304 301 298 298 297
315 317 312 313 312 312 314 314 316 317 317 317 315 315 314 313 313 313 313 316 317 317 316 317 318 317 316 316 319 322 324 324 322 324 323 317 310 303 301 298 298 298 297 296
312 313 313 311 313 314 314 314 315 315 317 318 317 316 313 312 312 311 316 315 316 316 316 316 318 317 316 318 320 323 323 322 321 320 312 305 301 299 297 297 297 296 295 294
312 311 314 313 311 311 312 313 313 318 316 317 317 317 313 311 312 314 314 314 314 315 316 316 317 318 319 321 322 323 322 319 319 313 306 301 297 296 297 296 296 295 294 294
312 313 315 318 315 312 313 313 312 315 316 319 318 317 312 311 311 312 314 313 312 313 315 316 316 317 320 321 322 321 319 316 312 306 302 297 296 296 296 295 295 294 294 293
312 312 314 317 321 317 316 315 315 316 318 317 317 316 315 313 313 312 312 312 311 312 314 316 315 316 317 318 318 317 313 309 305 302 298 296 295 295 294 294 293 293 292 292
312 316 313 314 314 315 316 316 317 317 317 318 317 317 316 315 314 313 313 312 311 312 314 315 314 314 315 315 315 309 304 302 300 298 297 295 295 294 293 293 292 291 291 290
312 315 315 315 313 315 318 317 319 320 320 320 317 318 316 314 313 312 312 312 312 313 312 315 312 312 313 311 306 302 299 297 296 295 295 294 293 293 292 291 291 290 290 289
313 315 316 316 316 316 324 322 321 320 320 320 321 318 316 314 313 313 314 313 314 314 315 315 310 310 307 301 298 296 295 294 294 293 293 292 292 291 290 290 290 290 289 289
314 315 315 316 317 325 321 318 319 319 319 318 317 318 318 316 315 313 312 312 313 314 315 313 309 305 300 295 294 295 294 293 292 292 291 291 290 290 290 290 290 289 289 289
313 314 315 318 317 317 320 319 320 321 322 317 316 317 317 315 313 313 308 311 313 313 314 310 304 298 295 294 294 294 293 293 292 291 291 291 290 290 289 290 289 289 288 288
314 314 315 316 319 321 319 317 315 319 325 317 314 317 316 314 321 313 307 310 311 310 307 300 297 294 294 294 294 294 293 293 293 292 291 290 290 290 289 289 288 288 288 287
318 318 318 318 319 317 317 316 318 324 321 317 313 316 316 316 311 307 306 306 305 304 299 298 297 296 296 296 296 295 295 293 292 290 290 289 289 289 288 288 287 287 286 286
318 318 318 318 321 321 316 318 321 319 316 315 313 314 313 309 306 303 304 303 301 300 300 299 298 297 297 296 295 293 291 290 289 288 288 287 287 287 287 287 286 286 286 286
320 318 320 319 320 319 318 317 316 315 314 313 311 312 314 309 305 303 302 300 300 297 295 295 294 294 294 293 291 290 289 288 287 287 287 287 287 287 287 287 287 286 286 286
318 317 319 320 320 319 319 317 314 310 310 308 309 310 312 309 304 301 300 299 298 298 297 296 295 294 292 289 288 287 287 287 287 287 287 287 287 286 286 286 286 286 286 285
319 317 320 320 320 320 315 313 311 309 307 306 306 310 308 305 303 301 299 297 296 295 295 294 293 292 289 287 286 286 287 287 288 287 287 287 287 286 286 286 285 285 284 283
317 318 320 321 318 318 316 311 309 309 306 304 305 304 304 303 301 299 297 296 295 294 293 292 291 289 288 286 286 287 288 288 287 287 287 287 286 286 286 285 285 284 282 281

GFSCGP_925_thetae_036.txt.gz
Theta_e
323 323 324 321 321 321 324 321 320 318 318 318 317 317 317 316 316 316 316 316 317 318 318 320 321 322 321 321 322 327 326 325 327 331 338 340 339 338 337 336 335 334 333 329
318 319 318 318 320 321 318 318 318 317 316 315 315 315 314 314 314 314 314 314 315 315 315 316 318 321 321 322 322 321 326 325 324 325 331 337 339 338 337 337 335 333 329 322
318 317 317 318 317 317 317 317 317 316 314 313 314 315 315 315 314 314 314 314 313 314 314 315 314 317 320 320 321 322 323 325 325 326 330 337 338 335 333 332 330 326 322 318
317 315 314 315 317 316 318 315 316 316 315 317 314 317 313 313 313 313 311 311 312 312 313 313 313 313 316 319 320 321 323 324 325 326 333 337 333 326 327 326 321 315 314 314
317 316 316 316 315 315 315 314 314 315 315 314 314 314 313 313 313 313 312 312 312 311 311 311 311 313 315 315 319 321 321 324 325 327 333 335 330 326 322 319 317 314 312 310
315 313 314 315 313 314 313 313 313 314 314 315 314 315 313 313 313 312 312 312 311 311 311 311 313 314 315 315 314 315 323 323 326 330 334 332 326 321 316 314 311 309 308 304
314 314 313 313 315 314 314 315 315 317 318 314 313 315 313 312 312 312 312 311 311 311 312 312 315 315 315 314 314 315 317 324 326 332 332 330 323 321 316 311 307 305 302 301
316 317 315 313 314 315 315 314 314 317 317 316 312 315 312 312 312 311 312 311 311 312 313 314 314 315 316 316 315 316 317 325 328 332 330 325 323 317 311 309 306 303 301 301
317 317 314 313 313 314 314 314 312 313 312 311 312 311 310 311 311 310 310 310 309 311 314 314 313 314 315 316 316 317 318 325 328 330 326 324 319 312 309 305 304 303 301 300
315 316 313 314 312 312 313 312 316 314 313 314 314 313 313 312 311 310 309 312 313 314 314 313 312 313 316 316 315 318 320 325 327 327 325 317 314 311 307 305 303 301 300 298
312 314 313 312 313 314 313 314 314 314 316 316 316 314 312 311 310 310 310 314 314 315 315 313 312 314 316 317 316 319 322 324 325 325 316 313 310 306 303 301 300 298 297 297
312 312 311 312 311 311 312 312 311 313 312 314 315 315 312 311 310 310 309 314 313 312 313 313 313 314 315 318 319 321 323 323 322 314 308 307 302 300 299 298 297 297 296 295
312 311 311 315 313 310 312 312 312 313 314 315 316 314 311 310 311 311 310 309 310 311 311 313 313 313 313 318 321 322 321 319 308 307 302 300 299 297 297 296 296 296 295 294
311 313 312 313 317 316 314 314 313 314 317 315 315 314 313 313 313 314 314 311 310 310 310 313 313 312 313 318 319 317 310 306 302 300 298 297 296 296 295 295 295 294 294 293
312 313 311 312 311 311 312 314 315 316 316 318 316 317 316 316 316 315 313 312 311 310 311 313 313 311 313 315 312 306 305 301 299 297 297 296 295 295 294 293 293 293 292 291
312 313 312 310 312 312 313 314 315 318 320 321 320 320 317 316 315 313 313 314 313 312 311 312 312 312 313 308 303 301 300 299 297 296 295 294 294 293 293 293 292 292 291 290
314 313 315 311 314 314 319 318 321 320 320 321 321 320 317 318 318 316 314 313 312 312 312 313 311 310 302 300 299 297 297 297 295 294 293 293 292 292 291 291 291 290 289 289
316 315 315 313 315 322 321 319 318 320 319 318 319 318 316 317 315 311 309 310 311 311 311 312 308 301 297 296 295 294 294 294 293 292 292 291 291 291 291 290 291 291 289 289
313 315 317 316 317 315 316 318 319 320 320 318 316 316 316 316 314 311 307 308 311 310 312 307 299 295 294 294 294 293 293 293 293 292 292 292 292 291 291 290 289 289 289 288
314 314 315 316 318 318 318 316 315 318 324 316 315 318 317 316 318 312 307 305 301 299 298 296 294 294 294 294 294 293 293 294 293 293 292 292 292 290 289 289 289 288 288 287
317 316 316 318 319 315 313 316 316 324 320 315 313 317 313 315 310 306 303 303 299 297 295 294 295 294 294 294 294 294 293 292 291 291 290 290 290 289 289 288 288 288 287 287
316 317 317 317 319 317 315 316 320 317 315 313 312 315 311 307 304 303 301 300 301 301 299 297 296 297 296 296 295 294 293 292 291 289 289 288 288 288 288 287 287 287 287 286
317 316 318 315 315 314 315 317 315 311 311 310 310 311 310 306 304 302 300 297 296 297 298 298 298 297 297 295 291 290 289 288 288 288 287 288 287 287 287 287 286 286 286 286
315 314 317 318 318 317 315 313 311 308 308 306 307 309 310 304 301 300 299 299 297 295 294 293 291 290 289 289 288 287 287 287 287 287 287 287 287 287 287 286 286 286 285 285
316 316 317 317 316 316 313 311 309 308 305 305 306 309 304 302 301 298 296 295 294 295 294 291 289 288 287 287 287 287 287 288 287 287 287 287 286 286 286 286 285 285 284 283
313 315 316 318 315 316 313 309 308 306 304 304 304 303 302 301 299 297 295 294 293 292 291 289 287 287 287 287 287 288 288 288 287 287 286 286 286 286 285 285 284 284 283 282

GFSCGP_925_thetae_039.txt.gz
Theta_e
324 323 325 320 320 320 321 323 318 316 316 314 316 315 314 314 313 315 315 312 313 315 315 317 318 319 319 319 320 321 325 338 339 341 341 341 340 339 337 335 334 333 331 331
319 320 321 321 320 322 320 319 316 314 314 313 313 313 312 312 312 313 313 311 311 313 312 312 316 318 319 320 320 320 323 333 338 339 340 340 340 339 338 335 335 334 332 331
317 316 316 317 318 319 316 316 316 315 313 311 311 312 311 311 311 311 312 312 312 311 312 311 310 314 317 318 320 321 321 322 332 336 338 338 338 337 336 335 335 334 332 331
317 315 315 316 317 315 317 313 314 315 313 314 311 314 310 310 310 310 309 308 311 311 309 309 309 310 313 314 316 320 321 321 323 326 328 334 336 333 333 334 333 333 331 328
316 315 316 315 315 314 315 313 313 313 312 311 311 311 310 309 311 310 309 306 306 307 309 309 308 310 313 314 314 315 319 320 320 323 324 328 333 334 332 328 327 327 321 320
314 312 313 314 313 313 312 312 312 312 311 309 310 311 309 309 311 311 310 309 307 308 307 309 311 313 313 314 313 313 315 319 319 322 325 329 333 331 324 318 317 316 317 316
315 314 312 312 313 312 314 310 306 314 316 311 310 312 310 309 309 309 309 309 309 308 309 311 313 312 314 315 316 316 313 315 317 321 327 331 332 331 328 319 313 310 309 307
311 311 313 311 312 313 313 312 306 313 313 313 311 312 311 309 310 308 309 308 308 307 309 312 312 312 313 315 315 316 315 314 315 324 329 331 329 326 324 318 314 310 309 305
311 314 313 312 312 312 313 308 309 309 309 303 309 308 308 309 307 306 307 307 306 306 311 311 311 311 313 314 315 316 315 314 316 327 328 328 325 325 324 318 315 312 307 306
314 316 314 314 313 312 310 310 312 305 306 311 310 310 311 310 309 308 307 307 311 312 312 311 311 312 314 314 314 316 315 314 321 328 326 321 321 324 320 315 309 307 305 302
312 313 313 313 312 311 312 313 313 309 310 312 314 312 308 309 310 309 307 310 312 311 312 311 311 313 314 314 315 317 316 316 325 324 319 320 317 316 313 310 307 304 301 300
312 311 312 310 309 309 310 310 309 305 306 308 310 313 310 310 309 309 310 311 310 310 309 310 311 313 313 314 315 319 318 322 322 318 317 313 312 309 307 305 302 301 298 299
311 308 304 311 310 309 311 311 310 309 311 308 314 313 308 309 310 310 311 314 314 309 308 309 311 312 312 313 318 319 318 315 313 313 309 304 304 304 302 299 299 298 297 295
310 310 306 308 312 311 308 312 310 311 315 313 313 312 311 311 314 315 316 314 314 312 309 310 311 312 312 315 310 309 306 306 305 303 301 299 299 298 297 297 296 295 295 294
309 306 309 309 311 308 308 311 312 313 313 316 314 315 315 316 317 317 316 313 313 311 309 312 311 310 309 307 305 303 302 300 299 299 298 297 296 296 295 295 294 294 293 293
309 308 306 306 310 311 311 311 311 312 313 314 315 318 317 317 316 317 314 313 314 312 311 311 310 308 301 300 301 299 298 297 298 297 295 295 294 294 293 292 291 292 292 291
311 308 304 304 310 311 316 314 313 317 319 320 322 319 317 318 318 315 312 312 313 312 310 311 309 301 299 299 297 297 296 296 295 294 294 293 293 292 291 292 293 293 295 294
312 311 311 309 312 319 318 317 317 317 317 317 318 318 317 317 316 309 308 306 304 307 309 309 300 297 296 295 295 294 294 293 293 292 292 291 291 292 293 294 294 291 290 290
313 314 312 314 313 313 316 318 319 319 318 316 316 316 317 316 314 309 305 300 300 305 305 297 295 294 294 294 293 293 292 292 292 292 292 292 294 293 291 290 291 292 293 289
313 313 316 315 317 316 316 316 314 316 320 315 313 315 318 314 318 311 303 298 295 295 295 295 295 294 293 293 293 293 293 293 293 292 292 293 293 293 293 293 292 289 288 287
318 316 316 314 316 313 311 312 315 321 318 314 312 315 315 313 309 304 301 300 296 295 295 294 294 294 294 294 294 294 294 293 293 294 294 293 295 292 289 288 288 288 287 286
315 317 319 317 318 314 311 315 319 315 313 312 311 313 309 306 304 300 300 301 298 297 296 296 295 295 295 294 294 293 292 292 292 292 291 289 289 289 288 288 287 287 286 286
316 312 315 312 312 309 312 315 311 310 309 309 308 309 305 304 302 300 297 299 299 299 298 297 296 295 293 294 294 292 291 291 290 288 288 288 288 287 287 287 286 286 286 285
314 312 316 315 315 312 313 310 309 307 307 305 306 309 306 302 300 298 297 295 295 295 296 296 294 293 291 293 293 292 289 287 287 287 287 287 287 287 287 286 286 285 285 284
313 313 315 314 314 313 311 309 308 306 304 305 304 307 303 300 298 297 296 294 293 292 291 290 288 287 287 287 287 287 287 288 287 287 287 287 286 286 286 285 285 285 283 282
310 312 314 315 313 313 312 308 307 305 304 304 303 302 300 298 297 295 293 291 291 290 288 287 287 287 287 287 287 287 288 288 287 287 286 286 286 285 285 284 284 283 282 282

GFSCGP_925_thetae_042.txt.gz
Theta_e
323 324 325 325 322 318 318 322 323 317 314 313 313 312 311 311 310 311 313 312 312 311 313 314 316 316 316 317 318 318 319 333 339 339 338 338 338 338 337 336 336 333 331 327
324 325 320 320 321 321 321 321 318 314 313 313 312 312 311 311 311 311 312 312 311 311 310 310 313 316 317 318 318 318 317 319 337 339 338 338 338 338 338 337 335 333 332 328
321 318 318 320 320 323 318 315 315 315 312 311 310 311 310 309 309 309 310 310 310 310 311 311 308 312 314 316 317 318 319 318 325 338 339 338 338 336 335 335 334 333 333 330
316 314 317 318 318 314 317 313 314 313 313 313 310 314 309 309 308 307 306 306 307 308 308 308 308 308 312 314 316 315 316 318 320 332 338 337 335 334 335 336 335 333 333 331
316 315 314 315 315 313 314 312 312 312 311 310 310 311 309 307 310 309 309 307 305 304 306 307 305 308 311 311 312 313 314 315 317 321 335 336 334 334 334 334 334 333 330 327
313 312 313 313 312 312 311 310 309 310 307 306 308 310 308 308 309 310 309 306 305 305 305 304 308 311 313 314 314 314 313 312 314 317 321 329 333 333 332 331 328 328 326 323
315 314 312 312 312 312 310 308 307 306 304 309 309 310 309 307 308 308 307 306 305 306 306 309 311 312 314 314 314 314 315 316 316 314 318 322 330 333 333 331 326 323 321 318
313 312 312 311 312 312 313 309 306 309 312 311 309 313 309 307 306 305 306 305 305 304 304 309 311 310 311 311 311 313 314 315 316 316 314 320 326 329 328 327 326 322 317 315
308 311 312 311 311 310 312 309 308 307 305 303 308 306 304 306 306 306 306 306 307 304 308 311 310 310 311 312 312 312 315 316 316 315 314 320 326 325 326 324 322 318 315 314
311 312 313 313 312 312 309 308 307 299 304 308 308 308 308 308 309 307 306 308 310 310 309 308 308 310 312 312 311 312 315 317 317 313 317 323 324 323 323 321 318 315 313 311
312 310 313 314 312 312 313 312 310 307 306 310 311 311 306 308 309 307 306 306 308 309 308 308 308 310 312 312 311 313 315 319 318 317 321 322 320 320 317 316 316 314 311 309
311 309 304 313 309 308 309 310 307 302 303 305 307 312 308 307 308 308 310 310 312 312 313 313 309 309 311 312 313 315 317 319 318 320 319 316 316 315 312 312 312 311 307 303
310 306 303 309 308 308 310 309 308 307 309 302 310 311 307 305 310 311 314 315 315 314 312 312 307 310 310 312 314 316 317 317 317 315 313 312 310 310 307 306 305 303 300 298
310 307 305 308 305 305 305 310 309 310 313 308 309 310 310 310 312 314 316 316 314 312 311 310 309 310 310 312 309 308 307 307 307 308 307 305 304 303 303 301 299 297 296 295
307 305 306 307 309 306 308 310 310 306 310 309 311 312 312 312 313 315 317 314 314 313 311 311 311 309 307 304 302 301 301 301 301 300 298 297 297 297 296 296 295 294 294 294
307 303 304 306 309 309 309 309 309 309 310 311 311 312 311 312 316 318 312 311 311 312 312 310 309 304 300 300 298 299 299 300 299 297 296 296 296 295 293 292 292 293 294 294
309 305 304 306 308 309 312 311 311 311 310 312 317 317 316 317 318 311 309 306 303 302 306 310 307 299 297 297 296 296 296 296 295 294 294 293 292 292 292 292 292 293 293 294
309 309 306 304 308 314 317 314 313 311 313 315 316 316 316 317 316 307 304 300 299 298 305 307 298 294 295 295 294 294 294 293 292 292 292 292 292 292 292 293 293 293 293 294
311 312 311 308 309 312 315 317 318 317 316 314 315 315 314 316 314 309 303 297 296 296 295 294 294 293 293 293 292 292 292 292 292 292 293 293 293 294 294 294 293 292 293 292
313 313 312 309 315 316 315 314 314 314 319 315 313 312 314 314 318 312 301 296 296 295 295 294 294 294 294 293 293 293 293 293 293 293 294 294 294 294 293 293 292 292 292 289
317 315 313 312 313 313 310 310 314 320 319 313 312 311 315 315 310 303 301 298 296 295 295 294 294 294 294 294 294 293 293 292 292 293 293 293 293 294 294 293 292 290 287 286
315 314 314 314 316 314 310 315 320 315 311 311 310 311 308 306 303 300 302 300 297 297 296 295 295 295 294 294 293 292 290 291 292 292 293 293 293 292 289 287 287 286 286 286
315 311 313 313 312 309 309 314 312 309 308 308 307 309 305 303 302 298 300 300 299 297 297 296 295 294 294 294 294 291 290 293 293 291 289 289 288 287 287 287 286 286 285 285
312 311 315 313 313 311 310 309 309 307 306 305 304 306 302 302 300 297 295 298 298 298 298 296 295 293 292 293 293 294 293 293 289 287 287 287 287 286 286 286 286 285 284 284
311 312 315 314 312 313 311 309 308 307 304 304 304 305 304 299 298 296 295 294 294 293 292 290 289 289 289 291 292 292 291 288 287 287 287 287 286 285 285 285 284 284 282 282
308 309 312 313 312 312 310 309 307 305 304 303 303 301 299 298 297 295 293 292 291 289 288 287 287 287 287 287 287 287 287 288 288 287 286 285 285 285 284 284 284 283 283 282

GFSCGP_925_thetae_045.txt.gz
Theta_e
323 325 326 324 320 318 317 320 320 318 315 313 312 311 311 311 309 309 310 312 312 312 312 312 314 315 315 316 315 315 316 319 335 340 339 338 337 337 336 335 335 334 332 329
325 325 322 323 323 323 321 321 319 314 312 313 311 311 311 310 311 311 311 311 311 311 309 308 311 313 314 316 317 316 314 316 328 337 338 338 337 337 338 337 335 335 335 334
321 320 321 322 322 324 321 319 316 315 312 310 309 310 310 308 308 308 308 309 309 310 310 310 307 310 312 313 314 316 317 316 320 334 337 337 336 336 335 335 335 335 334 335
317 313 320 320 321 319 317 313 313 313 313 315 310 314 310 308 307 307 306 304 306 306 306 306 307 307 309 310 312 314 315 316 316 328 336 336 335 334 334 335 336 336 334 332
316 314 317 319 318 314 315 311 312 311 310 309 310 311 310 306 308 308 308 306 305 303 303 304 304 306 309 309 311 312 313 313 314 316 334 336 335 334 333 334 334 335 333 330
313 312 312 312 311 312 311 309 307 307 307 307 308 309 308 307 308 305 306 305 303 302 302 303 305 308 311 312 311 311 311 312 312 313 316 331 335 333 333 333 331 332 331 329
314 312 311 311 312 311 309 310 306 305 304 309 308 310 309 307 307 307 306 304 302 301 301 303 307 309 312 313 313 314 314 314 315 315 314 316 325 333 333 333 330 326 327 326
314 316 312 311 312 313 311 309 307 309 309 309 308 312 309 306 304 305 306 306 307 307 303 306 307 308 309 310 310 310 312 313 314 314 314 314 316 323 330 331 329 329 328 324
309 311 311 311 310 310 311 307 307 306 303 303 308 305 303 305 305 305 305 306 306 307 308 308 308 310 311 311 311 311 311 311 313 315 316 315 314 318 323 326 328 326 323 324
309 313 313 312 311 310 310 307 308 299 301 308 306 306 305 307 307 307 306 305 304 305 306 306 305 307 309 311 312 311 311 312 313 315 316 316 314 317 321 324 324 323 320 318
309 310 315 313 312 312 311 309 307 306 305 308 309 308 304 307 308 307 306 307 306 309 310 310 305 309 311 311 311 311 311 313 314 315 318 317 317 320 322 321 319 318 314 313
309 307 315 314 308 308 309 309 306 302 303 308 309 309 306 305 307 306 309 313 314 315 313 311 310 310 310 308 310 311 314 314 315 317 318 318 318 318 317 315 312 311 311 308
308 305 303 307 308 307 310 309 306 305 302 299 305 308 306 305 308 308 311 313 316 315 311 309 309 308 306 310 311 309 307 308 312 313 313 313 313 313 311 310 309 307 306 303
308 305 305 305 305 305 306 309 307 306 303 306 306 307 309 308 309 310 313 316 314 313 313 311 309 307 310 306 304 302 302 303 304 306 306 306 306 306 305 304 303 301 300 298
307 305 305 306 308 305 307 309 308 304 309 305 309 309 309 310 311 312 316 312 311 310 309 310 309 306 305 301 299 299 300 300 301 301 300 300 301 302 299 297 296 295 295 294
305 304 304 304 307 308 308 308 308 308 309 309 310 311 309 310 311 317 312 309 307 304 302 302 308 304 298 296 297 298 298 298 298 297 296 295 295 294 294 293 293 292 292 293
307 305 303 305 306 308 311 309 308 309 308 310 311 311 311 316 316 316 309 305 301 299 298 301 306 299 296 295 296 295 295 294 293 293 293 293 293 293 292 292 292 292 292 293
307 306 305 304 306 312 310 310 309 310 310 309 310 312 313 314 316 308 304 300 298 297 296 296 295 293 293 294 294 295 294 293 293 293 293 293 293 292 292 293 293 292 293 293
310 312 311 311 305 307 314 314 316 314 315 312 312 312 313 313 313 310 301 296 296 296 295 294 292 292 293 293 293 294 293 293 294 293 293 293 293 292 292 292 292 293 294 293
312 312 313 312 311 315 315 313 313 313 317 314 313 313 312 314 319 315 301 297 296 295 295 294 294 294 293 293 293 293 293 293 293 293 293 293 293 292 292 292 292 293 293 291
316 316 314 312 311 310 309 309 313 320 320 313 312 311 311 314 313 303 300 297 296 296 295 295 295 295 294 294 293 292 292 292 293 293 293 293 293 293 293 293 292 292 291 288
315 316 314 313 313 311 309 314 319 315 311 310 308 309 310 308 303 301 301 299 297 297 296 295 295 294 294 293 293 291 290 291 292 292 292 292 293 294 293 292 288 286 285 285
315 311 312 309 309 308 308 310 312 309 308 308 307 305 307 305 303 300 301 300 298 297 296 295 295 295 293 293 293 291 291 292 292 292 291 291 291 288 287 286 286 285 285 284
310 309 311 313 313 310 310 309 308 308 307 305 303 302 303 304 301 298 300 299 298 298 296 295 294 293 292 293 293 292 292 292 292 288 287 287 286 285 285 285 285 285 284 283
309 310 314 314 311 311 311 310 309 308 305 303 303 304 303 301 299 296 297 296 295 294 293 293 292 292 291 292 292 292 290 292 289 287 286 286 285 285 285 284 283 283 282 282
308 310 310 309 308 310 309 308 307 306 305 302 303 303 302 299 298 296 294 294 291 289 289 289 289 289 289 291 291 289 289 289 287 286 286 285 285 284 284 283 284 284 284 283

GFSCGP_925_thetae_048.txt.gz
Theta_e
322 325 325 322 319 316 316 318 318 317 315 313 314 311 310 311 309 308 308 308 309 311 311 313 314 315 314 315 316 316 316 316 330 339 339 338 335 337 336 337 337 335 333 330
322 326 323 320 320 319 318 319 320 315 312 312 311 310 310 311 310 310 310 310 310 309 309 308 310 312 313 313 314 315 315 315 318 335 337 338 337 336 337 336 337 337 335 333
322 322 321 322 323 324 322 321 318 317 312 309 308 311 308 308 307 307 306 307 307 306 306 307 306 308 310 310 311 313 314 315 315 326 334 337 337 335 335 335 335 336 335 334
317 319 322 322 323 322 323 315 313 312 313 315 309 315 310 309 305 305 303 303 303 303 302 302 303 305 307 310 310 311 311 313 314 317 334 335 335 335 334 334 336 335 335 335
316 320 322 322 321 318 315 311 311 309 309 309 310 310 309 305 306 305 304 303 302 301 301 302 301 303 306 307 308 309 310 311 313 315 327 334 334 334 334 334 334 333 333 334
313 311 313 313 311 312 309 308 307 305 306 307 308 308 307 307 306 305 304 304 304 303 302 303 308 310 311 312 312 310 308 309 311 312 314 331 333 333 333 333 333 333 332 330
314 313 311 310 311 310 309 313 317 305 305 309 307 309 307 306 306 306 305 305 305 305 305 306 306 307 310 311 311 310 311 312 312 311 311 314 326 332 332 332 332 330 329 327
313 319 313 310 311 312 310 310 308 308 309 309 307 311 308 305 303 305 305 305 304 304 304 305 306 307 308 309 310 311 311 310 311 313 313 313 313 316 325 330 330 330 329 329
310 311 311 310 310 310 311 307 306 305 302 303 306 304 301 304 306 305 304 304 304 303 304 305 305 308 309 309 313 313 310 311 310 311 312 314 314 314 314 316 324 328 327 327
309 313 312 311 310 309 310 306 307 299 305 308 304 305 304 306 307 305 305 306 305 305 306 306 306 308 310 310 310 312 311 311 310 312 313 314 315 315 315 315 318 322 325 324
308 310 314 313 312 311 309 308 306 305 305 307 307 305 302 304 307 306 305 304 306 310 311 309 307 308 309 309 309 309 308 310 313 312 314 315 316 317 316 318 319 320 320 319
308 309 316 313 307 307 309 308 305 302 303 307 307 307 305 305 306 304 305 307 311 315 311 308 306 307 307 306 307 308 307 308 308 311 313 314 315 315 315 316 317 316 315 313
307 305 304 312 310 307 309 307 305 303 300 299 304 306 304 303 305 306 307 308 313 311 309 308 308 306 307 304 302 302 302 307 308 309 311 309 309 310 310 311 311 311 310 308
307 305 305 306 306 305 306 309 305 304 302 304 304 306 307 306 306 307 308 313 311 310 307 306 303 304 304 300 299 300 301 302 302 303 304 306 306 306 306 306 304 304 302 300
307 304 304 306 307 304 307 309 307 302 306 304 306 307 307 307 308 308 310 312 309 306 301 300 299 303 300 297 297 298 299 299 299 298 298 299 299 300 300 300 299 297 296 295
305 307 303 303 307 307 308 307 307 307 307 307 309 309 308 308 309 313 313 309 306 302 299 298 299 302 297 295 295 295 295 296 296 295 294 294 295 294 294 294 293 294 294 293
308 305 303 304 306 308 310 308 308 307 307 309 310 309 308 310 313 315 310 305 301 299 297 296 296 295 294 294 295 294 294 294 294 294 294 294 293 292 292 292 292 291 292 292
306 306 305 304 305 310 307 309 307 308 308 307 308 308 309 309 313 308 303 299 297 297 296 294 293 292 292 294 295 294 294 294 293 293 293 293 293 293 292 292 291 291 291 292
308 310 310 310 305 305 312 312 310 311 316 309 308 308 310 312 312 308 300 296 296 296 295 295 294 293 293 293 294 294 294 294 293 293 293 292 292 292 292 292 291 292 292 292
311 308 307 311 311 312 312 313 312 313 320 313 311 312 311 312 315 312 300 297 296 295 295 295 294 294 293 293 294 294 294 294 293 293 293 292 292 292 292 292 292 292 292 291
314 314 314 311 311 308 307 308 313 320 318 312 311 310 309 311 310 303 300 297 296 296 296 295 295 294 294 293 293 292 292 292 292 292 292 292 293 293 292 292 292 291 290 288
312 312 314 312 313 310 307 314 318 314 312 311 308 308 308 308 302 302 301 299 297 295 295 295 295 294 293 293 293 291 291 292 293 293 292 292 292 291 291 291 290 287 284 284
313 309 309 308 308 306 308 309 308 309 310 309 307 305 304 306 304 302 301 299 298 297 296 295 295 294 293 293 292 291 291 292 292 292 291 292 292 290 288 285 285 284 284 284
309 309 314 312 311 309 309 308 307 307 307 306 304 303 303 305 301 300 300 299 298 297 296 295 294 294 293 293 293 292 292 292 291 289 288 286 285 285 284 284 284 284 283 283
309 310 312 313 310 309 310 309 308 307 306 304 302 302 303 302 299 298 300 299 298 296 295 295 294 293 292 293 293 292 291 290 287 286 286 285 285 284 284 283 283 282 281 281
305 307 308 308 307 307 307 305 305 305 305 303 302 303 303 301 299 296 298 295 295 292 292 292 293 292 292 292 291 290 291 289 287 286 285 284 284 284 284 284 284 284 284 283

GFSCGP_925_thetae_051.txt.gz
Theta_e
321 322 322 322 318 315 317 318 319 317 314 313 315 313 312 311 310 311 310 311 311 311 310 311 312 312 313 314 315 315 315 315 331 339 337 338 336 334 335 336 336 336 336 332
323 322 320 319 317 317 317 319 319 315 312 312 311 312 312 312 311 310 310 310 310 309 309 307 306 307 309 311 312 314 314 314 315 332 334 336 336 335 335 336 337 335 337 335
317 321 321 321 321 321 320 319 317 318 312 309 310 314 310 309 307 306 305 304 305 306 305 305 305 304 305 307 308 309 311 313 314 318 332 336 335 335 335 334 333 334 335 335
316 320 322 323 322 322 324 318 314 313 315 318 309 318 312 308 306 304 306 305 305 304 303 305 308 308 308 309 308 307 308 309 311 313 328 333 332 333 333 333 332 333 332 333
317 323 321 321 321 319 319 312 311 310 310 311 311 313 310 305 307 306 306 306 306 305 305 308 308 309 310 310 311 311 310 308 309 310 316 331 332 331 333 333 332 333 332 332
312 312 315 316 314 316 309 309 307 306 309 315 309 310 308 307 307 306 306 306 306 306 307 308 308 310 311 311 311 310 309 310 310 309 311 321 331 332 332 332 332 332 332 332
315 313 311 312 314 311 310 315 317 311 312 317 307 310 309 306 305 306 307 307 306 305 307 309 309 309 310 311 310 312 312 311 310 311 311 310 317 330 331 331 330 330 328 326
317 318 313 310 312 313 310 313 317 311 312 309 307 311 309 305 303 303 305 305 304 306 306 308 308 309 309 310 310 311 311 312 311 310 310 311 312 312 318 328 329 329 329 329
312 314 310 309 309 310 310 311 305 306 303 309 307 305 302 304 304 305 305 306 308 307 308 309 309 309 308 308 309 309 309 310 310 310 310 312 313 313 313 313 315 319 324 327
309 313 312 310 310 308 310 306 311 305 310 310 305 304 304 306 306 306 307 307 306 307 312 311 310 309 308 308 307 307 307 308 309 311 311 312 313 314 315 315 314 314 317 322
308 310 314 312 311 311 310 310 306 306 305 308 306 305 302 304 306 306 306 306 307 312 313 310 309 308 307 306 305 305 306 307 308 310 311 312 313 314 315 316 316 316 317 319
307 310 316 312 307 307 307 308 305 307 307 305 307 307 304 304 305 304 306 306 308 313 311 309 307 306 306 303 302 302 303 304 304 306 308 311 312 311 311 313 313 313 315 315
307 307 310 313 310 307 310 307 304 302 302 306 308 306 304 303 304 305 306 307 313 311 308 304 303 301 304 300 300 301 300 300 301 303 305 307 308 309 309 310 310 311 311 311
306 305 307 309 307 306 307 308 305 305 306 305 306 306 306 306 306 307 308 310 311 308 303 301 299 299 301 298 298 298 298 299 299 302 302 302 302 304 304 303 303 304 304 303
306 306 304 306 307 304 307 309 306 304 305 307 305 306 307 306 307 309 310 312 309 305 301 298 298 300 298 296 295 295 296 297 297 297 296 296 296 298 298 297 297 297 296 295
304 308 303 304 307 307 309 308 307 306 307 307 307 309 308 308 307 312 314 309 306 301 299 298 296 295 295 295 294 294 295 295 295 294 294 294 294 294 294 294 294 294 293 293
308 305 304 304 306 307 310 308 308 307 306 309 310 309 307 308 309 312 310 305 300 298 297 295 294 293 294 293 294 294 294 294 294 294 294 293 293 292 292 292 293 293 293 293
306 305 306 307 305 309 306 307 306 308 307 307 308 308 307 307 308 307 302 299 298 297 296 295 293 293 293 294 295 295 295 294 294 294 293 293 292 292 291 291 291 291 292 292
307 307 309 310 308 305 310 309 308 309 316 307 307 307 308 310 310 308 300 297 296 295 295 295 294 293 293 294 294 294 294 294 294 293 292 293 292 291 291 291 291 292 292 292
310 307 306 309 310 311 309 312 309 311 320 312 308 311 311 310 314 313 301 298 296 295 295 295 295 294 294 294 294 294 293 293 293 292 292 292 292 291 291 291 291 290 291 290
315 314 311 311 311 307 305 307 313 321 318 312 311 310 309 310 309 304 299 298 296 295 295 295 294 294 293 293 293 292 292 292 292 292 292 292 292 292 292 291 291 291 290 289
311 312 314 312 312 308 305 313 318 315 311 311 309 308 307 306 304 302 301 299 297 295 295 295 294 294 293 292 292 291 291 292 292 292 292 292 292 291 292 292 290 286 284 283
312 307 309 307 307 304 307 309 308 307 309 309 307 306 304 304 304 302 301 298 297 296 296 295 294 294 292 292 291 291 291 292 292 292 291 291 291 288 286 285 284 284 284 283
309 308 312 311 309 307 308 308 308 307 307 305 305 304 303 304 303 301 301 299 297 296 295 295 295 294 293 293 293 292 292 293 292 291 287 285 285 284 284 284 284 284 283 283
308 309 311 312 309 308 307 307 305 305 303 303 302 302 303 302 301 299 301 299 298 296 295 295 295 294 293 293 293 294 293 291 287 285 285 285 284 284 283 283 282 282 281 282
305 306 308 309 305 308 307 305 302 301 302 301 301 301 302 301 300 297 299 299 297 295 295 294 294 294 293 293 292 292 291 288 287 285 284 284 284 284 284 285 285 284 284 283

GFSCGP_925_thetae_054.txt.gz
Theta_e
320 323 325 322 319 316 318 318 317 317 316 318 318 319 318 317 317 317 317 317 317 317 316 314 313 313 314 314 316 316 317 318 325 335 339 338 338 338 337 338 338 336 335 334
320 324 319 320 319 318 318 317 318 319 315 317 317 318 317 317 317 315 314 315 315 314 313 311 310 309 310 311 313 314 315 316 318 325 333 337 338 338 338 335 335 335 335 333
321 321 319 319 320 319 319 318 320 319 315 313 315 318 315 311 310 310 309 309 309 310 312 314 314 312 311 311 310 310 311 313 314 316 324 332 334 336 336 335 334 334 334 334
315 319 320 320 320 319 322 320 318 318 320 321 313 318 315 310 312 312 312 312 312 313 314 314 314 314 313 313 313 312 310 310 311 313 316 325 332 333 333 332 333 335 333 332
317 318 323 322 320 320 322 318 316 315 317 318 316 318 313 310 312 313 313 313 314 314 315 316 315 314 315 314 313 313 312 312 310 310 312 317 327 329 330 331 332 333 334 331
316 316 317 316 315 318 312 314 312 313 316 323 316 315 312 311 312 313 313 314 313 315 316 316 315 315 315 314 314 314 314 314 312 312 311 313 318 326 329 331 332 333 333 332
315 314 314 314 313 313 315 319 323 322 325 323 310 313 313 310 311 312 313 313 313 314 316 316 316 315 314 314 313 313 313 313 313 313 312 312 312 317 326 328 330 331 332 331
321 320 314 313 316 317 318 319 323 320 317 314 309 313 312 309 309 309 309 311 311 313 316 316 315 314 313 312 312 312 312 312 312 313 313 313 313 314 314 318 324 327 328 329
320 318 312 311 311 315 314 320 310 313 309 314 312 311 309 307 309 309 312 313 314 314 317 315 314 313 312 312 311 310 310 310 311 311 313 314 314 315 315 315 315 318 322 324
313 318 312 310 311 311 314 310 317 316 318 316 310 309 311 310 311 310 313 314 314 315 317 314 313 312 311 311 309 309 309 310 310 311 312 313 314 314 314 316 317 317 317 319
312 315 315 313 315 315 313 314 311 312 310 311 308 309 307 311 311 310 312 312 313 316 316 312 311 309 311 310 307 307 307 307 307 308 309 311 312 312 312 311 312 313 315 317
311 315 317 315 309 309 311 313 311 317 315 312 312 310 309 309 309 309 312 312 314 315 313 309 308 307 309 307 306 306 305 305 305 305 307 308 309 310 311 311 311 311 312 312
311 314 316 314 312 310 312 311 309 308 311 314 313 312 308 309 309 311 312 313 315 314 309 307 306 306 307 305 304 303 303 302 302 302 304 305 305 306 305 304 306 306 307 308
309 310 313 315 314 313 314 312 309 314 317 312 311 311 311 310 311 312 313 314 315 311 306 304 306 306 304 302 301 300 300 300 300 300 300 300 300 300 299 298 300 301 301 301
311 315 310 309 310 310 311 312 310 311 313 317 310 310 310 310 312 311 312 315 313 307 305 303 303 303 302 300 300 299 299 299 299 299 298 297 296 295 296 296 296 296 296 296
309 314 310 311 309 309 311 311 311 310 311 310 311 313 311 311 311 312 314 314 311 306 303 301 300 300 300 300 299 299 298 298 297 297 296 295 294 294 293 293 294 294 294 294
311 312 313 314 309 310 314 311 311 311 310 311 313 312 311 312 312 313 315 311 307 303 301 300 298 298 298 298 298 299 297 296 297 297 296 295 294 292 292 292 293 293 294 294
310 312 312 314 310 316 311 309 310 310 310 310 310 311 311 311 312 313 310 308 304 302 300 299 298 297 297 297 298 296 296 296 296 295 295 294 292 292 292 292 292 292 292 292
309 312 313 315 313 311 312 310 310 311 313 310 310 311 312 313 313 315 307 302 302 300 299 298 296 295 296 296 295 295 295 295 295 293 293 292 292 291 291 291 291 291 292 291
309 310 313 312 313 313 314 314 312 310 323 314 311 313 314 313 318 320 307 301 300 299 298 298 297 295 295 295 296 295 294 294 293 293 292 292 292 292 291 291 291 291 290 290
314 313 314 313 311 311 309 308 313 323 320 313 313 314 312 314 314 310 304 301 298 299 298 297 296 296 295 295 295 294 293 292 292 292 292 292 292 292 291 291 291 291 290 289
313 313 314 313 312 312 307 314 317 315 313 312 312 311 311 310 309 307 304 300 298 298 297 297 297 295 294 294 293 293 292 292 292 292 292 292 291 291 291 290 288 286 285 285
313 311 312 311 311 308 308 309 310 310 311 311 310 309 308 307 308 307 305 300 298 298 298 297 296 294 293 292 293 292 291 292 292 292 291 291 288 287 286 285 285 285 285 285
311 310 312 313 312 310 309 311 310 308 309 309 308 307 306 307 307 307 306 302 299 297 297 297 297 296 294 294 293 293 292 293 292 290 288 286 285 285 285 285 285 285 285 285
312 311 313 313 313 312 310 309 307 307 306 306 305 305 305 305 306 306 306 303 300 297 296 297 298 297 294 293 293 292 293 291 289 287 286 285 285 285 284 283 283 283 282 282
310 312 314 314 312 312 312 309 305 306 305 303 303 304 304 304 306 304 305 303 300 297 296 296 298 297 295 295 294 292 290 288 287 286 285 285 285 286 286 286 286 285 284 283

GFSCGP_925_thetae_057.txt.gz
Theta_e
322 323 325 321 318 316 315 317 316 316 319 319 318 319 317 318 318 318 318 317 317 317 317 318 316 316 316 317 318 319 319 319 320 325 334 341 339 338 337 340 340 340 338 337
324 319 321 319 317 317 317 317 317 318 317 317 317 318 318 317 317 317 317 317 317 317 317 315 313 313 312 313 315 316 318 318 319 320 324 335 338 337 337 337 337 339 339 338
320 320 318 321 319 318 317 318 317 318 318 317 317 318 317 314 313 313 312 312 313 314 314 316 316 315 314 315 314 313 313 315 317 318 319 323 334 336 338 339 338 336 336 337
318 319 320 322 320 318 318 316 317 319 318 316 317 315 318 313 314 314 313 313 314 315 316 316 316 316 316 315 316 315 314 312 313 314 316 318 323 331 334 334 335 335 335 333
319 319 322 320 320 318 318 319 319 319 320 320 319 319 317 313 314 314 314 315 315 316 317 317 317 317 317 317 316 316 315 314 314 312 313 315 317 322 329 331 332 331 332 334
316 313 318 320 315 319 319 318 317 317 319 324 321 318 315 313 314 314 315 315 316 317 318 318 317 317 317 317 316 316 316 316 315 314 314 313 314 316 322 327 329 330 332 333
312 312 315 314 316 315 319 321 326 326 327 325 315 317 317 313 314 314 315 315 316 316 318 318 317 316 316 315 315 315 314 315 315 315 315 314 314 314 316 320 325 328 329 331
323 321 312 312 316 319 320 322 326 324 325 321 311 315 315 313 313 313 313 315 315 316 318 318 316 315 315 314 314 313 313 313 313 314 315 315 315 315 315 316 317 322 326 327
321 320 312 313 314 317 319 322 314 315 313 316 314 312 311 310 312 312 314 316 316 316 318 317 315 314 314 313 312 312 312 313 313 313 314 315 316 316 317 317 316 316 317 319
316 320 314 313 314 313 318 314 320 321 320 317 313 312 313 310 311 312 315 316 316 316 318 315 314 313 313 313 311 310 310 310 311 311 312 313 314 314 315 315 316 317 318 319
315 316 316 314 316 317 315 317 315 315 314 315 311 311 310 311 312 312 314 315 315 317 317 314 312 311 312 311 310 309 309 308 308 308 309 311 312 312 313 314 314 313 313 314
314 316 318 317 312 312 313 316 315 320 318 315 314 313 309 312 312 311 313 314 315 316 314 311 310 310 311 309 309 308 307 306 306 305 307 308 308 309 308 307 308 310 310 311
313 316 317 316 313 312 314 314 313 311 316 318 315 314 311 311 311 312 314 315 316 315 311 309 309 309 309 307 306 305 305 304 304 304 304 304 304 304 303 302 301 301 302 303
311 313 316 318 318 315 315 314 312 316 319 314 313 313 312 311 312 314 314 314 316 314 309 308 309 308 307 305 304 303 304 303 303 302 302 301 300 299 298 297 297 297 298 297
313 318 312 312 312 313 314 314 313 314 314 320 313 312 312 311 313 313 313 316 316 312 309 306 306 306 305 304 304 303 303 302 301 301 300 298 298 297 296 295 295 295 294 294
312 316 313 314 311 311 313 312 313 312 312 312 312 313 312 312 313 314 314 316 315 311 307 305 303 303 303 303 302 302 301 300 300 299 299 297 296 295 295 294 294 295 295 295
313 314 315 316 311 311 314 313 312 313 312 313 314 313 313 313 314 315 316 316 312 309 306 304 302 301 301 301 301 301 300 299 299 298 297 296 295 294 292 292 293 293 293 294
313 313 313 315 312 318 314 311 311 312 312 311 311 312 312 314 313 314 315 314 310 307 304 303 301 300 300 300 300 299 298 298 297 296 295 295 293 292 291 292 292 292 292 291
311 312 314 316 316 315 311 310 312 313 313 311 311 312 313 314 314 315 314 308 306 305 303 301 300 298 298 299 298 298 296 295 295 294 293 292 292 291 291 291 291 291 291 290
311 312 313 313 316 316 317 314 311 312 320 313 311 313 315 315 320 321 312 306 304 302 301 301 299 298 298 297 297 297 296 294 294 293 292 292 291 291 291 291 291 290 290 289
313 314 314 313 314 312 311 314 315 323 321 315 315 315 314 315 315 313 308 305 302 302 301 300 299 298 297 297 296 295 294 292 292 292 292 292 292 291 291 291 291 290 290 288
313 313 313 312 313 314 310 311 317 315 315 314 314 313 312 312 310 309 307 305 302 301 300 299 299 297 297 296 294 293 293 292 293 293 292 292 292 291 291 290 289 288 288 287
313 312 312 312 313 311 312 314 312 312 313 313 312 311 310 309 309 310 308 305 302 300 299 299 299 296 295 294 294 293 292 292 293 292 292 291 291 289 288 287 287 287 287 287
311 311 312 313 312 311 311 311 312 311 311 309 310 309 308 309 309 309 308 305 303 300 299 299 298 296 295 295 294 294 293 293 292 293 291 288 287 287 286 286 286 287 287 286
312 312 313 312 312 313 313 312 311 309 308 308 307 307 307 307 308 308 308 307 304 301 299 299 299 298 296 295 294 294 293 292 293 290 288 287 287 286 285 285 285 284 283 284
311 312 313 313 312 312 313 311 308 308 307 306 305 306 306 305 306 307 307 307 304 301 298 298 299 298 297 296 295 293 292 293 289 288 287 286 286 287 288 287 286 285 284 283

GFSCGP_925_thetae_060.txt.gz
Theta_e
318 321 321 321 319 318 317 319 319 317 319 319 319 319 318 316 316 316 315 314 314 315 315 317 317 316 316 316 317 318 319 319 320 321 326 341 341 340 339 337 339 341 340 338
320 321 319 319 319 318 316 316 317 316 319 318 317 317 316 316 316 316 315 314 313 314 315 313 314 314 313 313 313 315 316 318 319 319 320 325 337 340 340 337 335 338 340 340
319 318 319 320 319 319 316 316 315 317 317 316 317 316 317 316 314 314 312 312 311 312 313 314 314 315 315 316 315 314 313 313 315 317 318 319 320 339 337 336 335 335 336 338
320 318 320 321 321 318 318 316 317 319 318 318 315 312 316 315 312 312 311 309 310 313 313 314 315 316 316 316 316 316 315 314 312 313 314 316 317 320 334 336 338 338 338 336
317 319 320 319 321 318 317 316 318 318 318 319 316 316 316 311 313 312 312 312 314 314 314 315 316 317 317 317 316 316 316 316 314 314 312 312 314 316 317 320 330 333 334 333
316 313 318 317 319 319 318 318 317 318 319 323 320 316 313 312 313 312 312 313 314 315 316 315 317 317 316 316 315 315 315 315 315 315 314 314 313 313 314 316 321 328 330 331
315 313 313 314 320 319 318 318 321 324 323 323 316 317 315 311 311 312 313 313 314 315 315 316 315 315 315 315 314 313 313 314 314 314 315 315 314 314 314 314 316 320 324 328
319 318 313 312 318 319 320 319 320 321 323 317 312 316 313 311 311 312 313 314 314 315 315 315 315 314 314 314 313 312 312 313 313 313 314 314 315 316 316 316 316 316 316 318
320 318 312 313 315 317 320 322 314 315 312 314 312 312 310 311 311 311 312 313 314 315 316 315 315 314 313 313 311 311 311 311 311 312 313 314 315 315 315 315 316 317 318 318
316 318 313 315 314 314 317 317 318 315 313 318 312 313 312 309 310 310 313 314 314 314 316 313 313 312 312 312 310 310 309 309 309 309 310 311 312 313 313 314 313 313 313 313
316 318 318 316 317 318 317 320 316 314 313 315 310 309 310 309 309 310 312 313 314 316 314 311 310 310 312 310 309 309 307 307 306 306 307 308 308 308 309 308 308 309 309 310
314 316 319 317 312 313 315 317 317 322 319 312 311 311 308 307 309 311 313 313 314 315 311 309 309 309 310 309 307 306 305 304 304 304 304 304 304 304 303 302 302 303 304 306
313 314 315 315 314 312 314 314 314 312 314 317 314 310 309 308 309 309 312 313 315 314 309 308 308 308 307 306 305 304 304 303 303 302 302 301 300 300 299 299 298 299 301 301
312 313 315 315 317 315 314 314 313 312 311 314 312 310 310 309 310 311 313 313 314 311 309 306 307 307 306 304 304 303 303 302 302 301 300 298 298 297 297 297 297 296 297 297
313 312 308 312 314 311 314 314 313 307 312 309 312 311 309 308 311 312 312 315 315 311 308 305 304 304 305 304 303 303 302 301 300 300 298 297 296 295 295 295 296 295 295 295
312 311 311 311 311 312 312 312 313 312 312 311 311 312 311 310 311 313 314 315 315 311 307 304 303 303 303 302 302 302 300 300 300 299 297 296 295 294 294 294 295 295 295 295
313 311 311 312 311 311 311 311 311 312 311 312 312 311 312 313 314 314 315 315 312 308 306 303 302 300 301 301 301 300 299 299 298 297 296 294 293 292 292 293 293 293 293 293
312 312 312 313 311 312 314 310 310 311 311 310 312 311 311 313 313 313 314 314 309 306 304 302 301 300 300 300 299 298 298 297 296 295 294 292 292 291 292 292 292 292 292 291
310 311 313 313 312 313 312 310 311 311 312 310 310 310 311 314 314 313 312 306 304 303 301 301 299 298 298 298 298 297 296 295 294 293 292 291 292 291 292 291 291 290 290 290
310 311 311 312 314 316 317 312 311 311 318 309 309 310 314 314 318 316 307 304 302 302 301 300 299 298 298 297 297 296 295 294 294 293 292 291 291 292 291 291 290 289 289 288
312 312 314 313 315 311 315 313 312 320 319 314 311 313 313 314 312 311 305 303 303 302 301 300 299 298 297 297 296 295 293 293 292 292 292 292 292 292 292 291 289 289 287 288
314 314 315 314 315 310 311 310 316 314 313 313 311 311 312 311 310 309 306 302 301 301 300 300 298 297 297 296 295 293 293 293 293 293 292 292 291 291 291 290 288 288 287 287
311 310 311 310 311 310 311 311 311 311 311 312 312 310 309 309 309 309 307 303 301 301 300 299 298 297 295 294 294 293 293 293 293 293 292 292 291 289 287 287 287 287 287 286
310 309 310 311 312 308 311 311 310 310 310 309 309 309 308 308 308 308 307 304 301 300 299 299 297 296 294 294 294 294 293 294 294 293 291 289 287 287 287 286 287 287 286 285
311 309 311 310 310 312 310 310 309 308 308 307 306 306 306 306 307 307 307 305 302 300 300 299 298 296 295 294 294 294 294 294 293 292 288 287 287 286 286 285 285 284 284 284
308 310 311 311 311 311 311 307 306 307 307 305 305 304 304 305 305 305 305 306 303 300 300 299 299 298 296 295 295 295 294 294 292 288 287 287 286 286 287 286 285 285 284 283

GFSCGP_925_thetae_063.txt.gz
Theta_e
318 320 320 318 319 317 319 320 318 317 317 318 319 318 318 315 314 313 312 312 312 312 313 314 315 314 315 315 316 317 317 318 321 339 341 340 340 340 338 339 340 339 339 339
320 320 317 317 318 319 316 318 319 316 317 318 318 319 317 315 313 313 313 313 312 312 310 312 313 312 312 313 313 313 315 316 317 318 319 334 339 340 340 339 338 337 336 336
320 318 317 319 318 320 318 314 315 317 316 314 315 315 315 313 314 313 312 311 311 311 311 311 313 315 315 315 314 314 313 313 314 314 315 317 317 334 337 339 339 338 336 332
318 317 318 319 319 317 319 314 315 317 316 317 314 315 311 313 312 311 310 308 308 311 312 313 314 315 316 316 316 316 315 314 314 313 312 313 314 315 319 328 334 335 334 336
319 318 320 322 320 319 317 315 317 316 315 316 316 314 312 311 312 310 310 307 307 310 312 313 315 316 316 316 316 315 316 315 315 315 314 313 312 312 313 315 316 321 332 334
316 315 318 317 317 319 319 316 315 315 316 318 318 314 312 311 313 310 310 311 312 313 313 314 316 315 315 314 314 314 313 314 314 314 315 314 314 313 313 313 313 315 318 326
315 314 313 316 319 317 320 315 315 317 314 317 312 317 314 310 309 310 311 311 312 313 312 312 313 313 314 313 313 312 312 313 313 313 313 314 314 314 314 315 316 315 316 317
314 321 316 313 315 321 321 314 314 316 317 316 311 318 314 308 309 310 311 311 312 313 313 312 312 312 313 312 311 311 311 311 312 312 313 314 315 315 315 315 315 316 316 316
315 314 312 313 315 317 320 317 314 312 310 308 311 311 311 310 311 311 312 312 311 313 313 312 311 312 312 311 310 310 309 309 309 309 311 311 312 313 313 313 313 313 314 314
315 315 314 314 315 315 317 316 316 307 311 315 310 311 311 312 311 311 312 311 311 313 312 311 310 310 312 310 310 308 307 306 306 307 308 309 310 310 311 311 311 310 310 310
316 314 316 316 317 319 317 318 315 313 310 312 310 309 307 312 310 310 311 311 311 312 310 308 308 309 311 309 308 306 305 305 304 305 305 306 306 306 306 305 305 305 305 307
313 315 317 318 315 315 316 318 315 313 315 307 306 310 306 307 308 308 311 312 311 311 308 306 307 308 308 307 305 304 304 303 303 303 303 302 302 302 302 302 302 303 304 304
312 312 312 313 311 312 315 315 317 312 311 309 308 309 305 306 309 309 311 311 313 310 307 305 306 306 305 304 304 303 303 302 302 301 300 300 299 299 298 298 299 299 299 300
311 312 312 311 312 312 312 315 311 311 312 313 310 310 308 308 308 308 310 311 312 308 307 305 305 305 304 303 303 303 302 301 300 300 298 297 297 296 296 296 296 296 296 297
311 308 307 312 313 309 313 313 311 307 310 308 310 309 309 307 308 308 310 313 311 308 306 304 304 302 302 302 302 301 301 300 299 298 297 296 295 295 295 296 295 296 295 295
309 308 306 308 311 310 310 311 312 310 310 310 310 310 307 307 309 311 311 314 313 309 306 303 302 302 301 301 301 300 300 299 298 296 295 295 294 294 294 294 294 294 294 294
310 307 306 309 310 310 310 310 310 311 310 310 310 309 309 310 312 312 312 314 312 307 304 302 301 300 300 301 300 299 298 298 297 296 294 293 292 293 293 293 293 293 292 292
309 309 307 306 308 309 306 309 309 310 310 309 310 309 309 311 311 312 313 311 307 305 303 301 299 299 299 299 299 298 297 297 295 294 293 293 292 292 292 292 292 292 290 289
307 309 309 309 305 306 312 309 310 310 310 308 309 309 309 312 312 313 309 306 304 302 300 299 299 298 298 298 297 297 295 295 294 293 292 292 292 291 292 291 291 289 289 289
308 308 307 307 311 315 315 311 310 311 315 309 307 308 309 312 315 314 304 302 301 301 300 298 298 298 298 297 297 295 295 294 293 292 292 292 292 292 291 290 289 288 289 288
310 310 310 311 310 310 313 312 311 318 315 311 308 309 312 313 311 310 304 302 301 300 300 299 298 297 297 297 296 295 294 293 293 292 292 292 292 292 291 289 289 288 288 289
312 313 314 313 314 310 311 310 317 313 312 311 310 310 310 309 309 307 304 301 300 299 300 299 297 296 296 296 296 294 293 293 292 292 292 292 292 292 291 289 288 287 287 287
310 307 310 309 310 307 309 311 311 310 311 311 310 309 309 308 308 308 305 301 300 300 299 299 297 296 295 295 295 293 293 293 293 292 292 291 291 291 288 287 287 287 286 286
308 307 308 309 310 308 310 310 309 309 309 309 309 308 308 308 308 307 306 302 299 300 299 299 296 295 295 294 294 294 293 293 293 293 292 291 289 287 287 287 286 286 286 285
306 307 308 308 308 310 308 308 308 307 306 305 305 305 306 306 306 306 305 304 301 300 299 299 297 296 295 294 294 294 294 293 294 293 291 288 287 286 286 286 286 285 285 285
306 308 309 309 308 308 309 306 305 306 305 304 304 304 303 304 304 304 304 305 303 300 300 298 298 297 295 294 294 295 295 294 294 292 288 287 287 286 286 285 286 285 284 283

GFSCGP_925_thetae_066.txt.gz
Theta_e
320 320 319 318 318 318 320 318 321 318 317 319 319 318 318 316 314 313 312 312 312 312 310 312 313 314 314 314 315 316 317 322 334 340 340 339 339 339 340 339 340 340 339 338
321 319 315 316 318 319 320 319 318 316 317 318 318 319 317 316 314 312 312 311 311 311 309 310 310 312 314 313 314 313 314 314 316 319 331 338 339 339 339 339 337 337 336 336
318 316 316 317 319 320 318 319 317 316 315 314 316 316 316 315 312 312 311 310 310 309 310 310 312 314 314 314 314 314 313 313 313 313 314 316 319 327 336 334 335 336 338 338
319 316 317 318 319 317 319 313 314 316 316 319 314 318 311 314 313 311 310 308 307 309 310 311 313 315 315 315 315 315 315 315 314 314 313 312 312 314 317 321 325 330 333 334
318 317 318 319 318 315 317 313 314 315 315 314 315 315 312 310 312 310 308 306 304 309 311 312 313 315 315 315 315 314 314 314 315 314 314 313 312 312 312 312 313 314 317 323
316 314 316 317 317 318 317 314 314 314 315 316 314 313 311 311 312 312 308 305 306 309 311 312 314 315 314 314 314 313 313 313 313 313 314 314 314 313 313 313 314 314 314 319
316 315 314 315 317 317 318 314 317 322 322 316 313 314 314 309 309 309 309 310 310 311 311 311 311 312 313 312 312 311 312 312 312 313 313 314 314 314 314 315 315 315 315 316
318 321 316 313 316 320 319 313 312 317 318 316 311 317 315 309 306 308 311 311 311 311 310 311 311 312 312 311 311 310 310 310 310 311 312 313 314 314 314 314 314 314 314 314
313 315 313 314 315 316 319 317 312 308 307 307 311 310 309 310 309 309 310 311 312 312 311 311 310 311 311 310 309 309 308 307 308 309 310 311 311 311 311 311 311 311 311 311
311 315 313 314 315 315 318 315 315 306 310 314 311 309 311 312 312 312 312 312 311 313 311 309 309 310 310 309 308 307 306 306 305 306 307 307 307 307 307 308 308 307 307 307
311 311 315 315 317 319 318 318 314 311 308 312 311 309 304 311 312 313 312 311 310 312 310 308 307 309 309 308 306 306 305 305 304 304 304 304 303 303 304 304 304 304 304 305
314 312 317 315 315 315 316 317 313 313 311 304 304 307 304 307 309 311 310 310 310 311 308 305 306 308 307 305 304 304 303 303 303 302 302 301 301 301 302 301 301 301 302 303
312 310 309 314 313 313 318 315 315 310 305 303 306 306 305 305 307 309 311 311 312 310 306 304 304 305 304 303 303 303 302 302 301 301 300 299 299 299 298 298 298 299 299 299
310 311 309 310 311 311 313 316 314 312 308 311 309 309 308 308 310 310 310 310 312 309 306 304 303 303 303 302 302 302 301 301 300 299 298 298 297 296 296 296 296 297 296 296
308 305 306 312 312 308 311 314 312 309 315 314 314 308 308 308 309 308 309 310 311 308 306 304 303 301 301 301 301 301 300 300 299 298 297 296 295 296 296 296 295 295 295 295
307 307 304 307 311 309 310 311 312 310 309 310 310 311 307 306 307 308 309 312 312 309 306 304 302 301 300 301 300 300 300 299 298 297 295 294 294 295 294 294 294 294 294 294
308 306 304 306 309 309 308 309 310 311 309 310 311 309 307 307 309 310 310 312 312 308 305 303 301 301 300 300 300 299 299 298 297 296 295 294 293 293 293 293 293 293 292 292
308 306 305 305 306 306 305 308 308 310 310 308 309 308 308 309 309 309 310 311 310 306 303 301 300 299 300 300 299 298 298 297 296 295 294 293 293 292 292 293 292 291 290 290
306 307 308 308 304 305 309 309 308 309 309 307 308 308 308 310 310 312 310 308 306 303 301 300 300 299 299 299 298 297 296 295 295 294 293 292 292 292 292 291 290 289 289 289
307 306 306 305 309 313 313 310 308 309 311 307 307 307 309 311 313 311 304 302 301 300 300 299 299 298 298 297 297 296 295 294 293 293 292 292 292 292 291 291 289 288 287 287
311 311 309 308 305 308 307 311 310 313 312 310 306 306 309 311 309 309 302 301 300 300 299 298 298 297 297 297 296 295 294 294 293 293 292 292 292 292 292 290 289 289 289 288
309 311 312 311 311 309 310 311 315 311 311 310 309 309 310 309 308 305 303 301 299 299 299 298 297 296 296 296 295 294 294 293 293 292 292 292 292 292 291 288 288 288 288 287
310 306 308 307 308 306 306 308 310 309 311 311 309 308 307 308 308 307 304 301 300 299 299 298 297 296 296 295 295 294 294 293 293 292 292 292 292 292 291 288 288 287 286 286
307 305 307 309 308 307 309 309 309 309 309 308 308 308 307 308 307 307 306 302 300 299 298 298 296 295 294 295 294 294 294 293 293 292 292 291 291 291 288 286 286 286 286 285
305 306 307 307 307 308 308 308 308 307 305 305 304 305 306 306 306 306 305 304 301 300 299 298 296 295 295 294 294 294 294 293 293 293 292 292 290 288 287 286 286 286 285 285
304 307 307 308 306 307 307 306 305 305 305 304 304 304 303 303 303 303 302 303 304 301 300 298 297 296 296 295 295 294 294 294 293 293 292 291 288 287 286 286 286 284 284 284

GFSCGP_925_thetae_069.txt.gz
Theta_e
318 317 316 317 316 317 317 318 320 318 318 320 320 318 318 314 312 311 311 311 311 311 310 311 311 313 314 315 317 322 333 339 340 341 340 339 339 340 340 340 339 339 339 337
321 314 313 315 317 318 318 318 319 317 317 319 318 319 317 317 315 312 311 310 310 310 309 308 311 311 313 313 314 315 315 316 318 327 338 339 339 339 339 339 339 338 337 337
317 317 315 317 318 319 318 317 317 318 315 314 317 318 317 315 313 313 311 309 309 308 309 309 311 313 313 313 314 314 313 313 313 313 315 318 324 330 334 336 336 336 336 337
318 315 316 318 319 317 319 315 315 316 317 320 316 320 313 314 314 312 311 308 308 306 308 310 311 313 314 314 314 315 314 314 313 314 313 312 313 314 317 321 321 322 324 328
317 317 317 318 318 315 317 313 314 315 316 315 314 316 313 309 313 314 312 307 306 305 308 310 312 314 315 314 314 314 314 314 313 314 314 313 312 311 311 311 312 313 314 315
317 313 315 317 316 315 316 313 313 313 314 316 315 315 313 309 309 312 309 305 304 308 309 310 313 314 313 313 313 313 313 312 313 313 313 313 313 313 312 313 314 314 314 316
318 316 315 314 316 317 315 314 316 319 320 318 312 314 317 310 308 308 308 305 303 307 309 310 310 311 312 312 311 311 311 311 312 313 313 313 314 314 314 314 314 314 315 315
319 320 316 313 315 316 315 312 312 318 319 316 311 316 314 310 308 306 306 306 307 309 309 310 310 311 311 310 310 310 309 309 310 311 312 312 313 313 313 313 312 312 312 312
314 316 314 316 315 315 317 319 309 307 305 308 310 309 307 309 309 307 309 310 311 311 309 309 309 310 310 310 309 309 308 307 308 309 309 309 309 310 310 309 309 309 309 309
310 316 313 315 315 315 317 313 315 304 309 314 311 310 311 311 309 308 310 311 311 311 310 309 308 309 309 309 308 307 306 306 306 306 306 306 306 305 305 305 305 305 305 305
308 311 314 316 317 318 319 319 314 310 307 312 312 310 304 305 308 310 311 312 311 311 310 308 307 309 309 307 306 305 305 304 304 304 303 303 303 303 302 302 302 303 303 303
311 311 315 316 313 315 317 318 311 310 310 303 304 307 304 302 307 310 311 311 310 311 308 306 306 308 307 306 305 304 304 304 303 302 302 301 301 301 301 300 300 300 301 300
311 311 315 315 313 314 318 317 313 307 303 303 307 309 304 304 307 309 309 310 310 311 307 304 303 305 305 304 303 303 302 302 301 301 300 299 299 299 298 298 298 298 298 298
311 309 308 310 309 312 317 318 313 309 307 308 306 309 308 308 307 309 309 310 311 310 307 304 303 303 303 302 302 302 301 301 300 299 298 298 297 296 296 296 296 296 296 297
308 310 306 311 311 307 310 314 316 308 315 313 315 310 309 307 307 308 309 309 311 309 306 304 304 302 302 301 301 301 300 300 299 298 297 296 295 296 296 296 295 294 294 293
305 306 303 306 310 309 309 310 314 314 312 313 312 310 307 307 307 308 309 310 311 310 307 304 303 302 301 301 301 300 300 299 298 297 296 295 295 295 295 294 294 294 294 293
307 305 303 304 308 307 308 307 309 311 308 311 312 314 307 305 307 307 306 309 311 309 307 304 302 301 301 301 301 300 299 298 297 296 295 295 294 294 294 293 293 293 292 292
305 304 304 304 304 305 306 307 307 309 310 308 308 308 307 306 306 306 306 308 309 309 305 303 301 301 301 301 300 299 298 297 296 295 295 294 293 293 292 292 292 291 291 292
305 305 307 307 303 305 308 308 308 308 308 307 308 308 306 308 309 311 310 309 309 305 302 302 302 300 300 300 299 298 297 296 295 295 294 293 293 292 292 291 290 289 290 290
305 304 305 305 309 311 308 310 306 307 310 309 305 306 306 309 311 309 307 304 302 302 302 300 299 299 299 298 298 297 296 295 295 294 294 293 292 292 291 290 289 289 288 287
310 311 307 308 305 306 305 309 307 310 309 309 305 305 307 310 307 307 301 301 300 300 299 299 298 298 298 297 297 296 295 295 294 294 293 292 292 292 292 289 288 287 287 287
308 310 310 306 308 306 307 310 311 308 310 309 306 305 308 308 306 303 302 300 299 299 298 298 297 297 297 297 296 295 294 295 294 293 292 292 292 292 291 289 288 288 288 288
308 305 307 306 306 304 305 308 308 308 310 310 309 308 307 308 307 304 303 301 299 299 299 298 298 297 296 296 296 295 294 294 294 292 292 292 292 292 290 288 288 287 286 286
306 303 306 307 307 305 306 308 309 308 309 308 308 307 307 308 307 307 305 303 300 300 299 298 297 296 295 295 295 295 294 294 293 292 292 292 292 291 291 288 287 287 287 286
305 305 305 305 305 305 306 307 308 307 306 305 304 305 306 306 306 307 307 306 304 301 300 299 297 296 296 296 295 294 294 294 293 292 292 291 291 291 290 287 286 286 286 285
303 306 306 306 304 305 306 306 305 305 305 304 304 303 302 302 303 303 302 303 303 302 301 299 298 297 296 296 295 295 294 294 293 292 291 291 291 291 288 287 286 285 285 285

GFSCGP_925_thetae_072.txt.gz
Theta_e
313 314 315 317 315 316 315 317 319 317 320 320 321 321 317 321 320 320 319 311 311 311 310 310 311 312 314 316 320 326 334 338 339 339 338 338 338 338 338 337 337 338 338 338
317 314 312 314 317 316 316 316 317 317 319 320 319 321 320 318 316 314 314 312 311 310 309 307 309 311 312 313 315 317 320 324 327 334 339 339 339 338 338 338 339 339 338 338
316 315 314 316 318 317 316 316 316 317 316 315 318 321 321 319 319 313 310 308 308 308 307 307 309 311 312 313 313 313 313 314 314 314 317 322 328 334 336 337 336 336 335 336
317 313 316 317 319 316 319 314 314 315 317 321 317 323 318 319 318 316 316 309 308 306 306 307 310 311 313 313 314 314 314 313 313 313 313 312 312 313 315 319 322 320 319 322
318 314 318 319 318 315 317 313 314 315 314 315 315 319 317 309 315 317 316 311 307 305 305 307 310 312 313 313 313 313 313 313 313 314 313 313 312 311 311 311 311 312 312 313
313 314 316 316 314 314 312 312 314 313 314 318 315 316 316 311 310 310 311 310 309 305 305 308 312 313 312 312 312 312 312 312 312 313 313 313 313 313 312 312 313 313 313 314
317 317 314 313 316 316 312 313 315 318 316 318 311 314 317 311 307 308 308 307 305 304 307 308 309 310 311 311 311 311 311 311 312 312 313 313 313 313 313 313 313 313 313 314
320 319 316 312 314 315 315 314 311 317 317 316 310 316 315 310 308 305 306 306 302 306 307 309 309 310 310 310 310 310 309 309 310 311 311 312 312 312 312 311 311 310 310 311
316 318 314 315 314 314 316 318 308 306 304 306 311 309 307 306 306 306 305 306 304 307 308 308 308 309 309 309 309 309 308 308 308 308 309 309 309 309 309 308 308 308 307 307
311 318 314 315 314 314 314 310 316 304 309 313 310 309 310 308 308 307 307 308 307 308 308 307 307 308 309 309 308 307 306 306 306 306 306 306 306 305 305 304 304 304 304 304
308 312 316 315 315 315 318 315 311 309 307 312 312 310 304 306 304 304 307 309 309 310 308 307 306 308 308 307 306 306 305 305 304 304 303 303 303 303 302 302 302 302 302 303
309 309 316 316 313 313 316 316 309 308 309 302 304 308 304 303 302 304 308 310 310 309 308 306 306 307 306 305 305 304 304 303 303 302 302 302 301 301 300 300 299 299 300 300
310 309 314 314 313 313 316 316 313 306 304 302 309 311 303 303 308 309 309 309 309 310 307 305 304 304 304 304 303 303 303 302 301 301 300 300 299 299 298 298 297 297 297 298
309 307 308 309 308 311 316 317 316 311 318 310 308 309 307 306 308 308 308 308 308 309 307 304 302 303 304 303 303 302 302 301 300 300 299 298 297 296 297 296 296 295 295 296
308 310 306 308 310 307 311 314 317 317 315 317 315 311 311 308 306 305 306 307 309 308 306 304 303 302 303 302 302 301 301 300 299 298 297 297 296 296 296 296 295 294 294 294
304 307 305 308 309 308 309 309 313 315 315 315 314 314 308 307 306 307 308 308 310 309 307 305 303 302 302 301 301 301 300 299 298 297 297 296 296 295 295 295 294 294 293 293
306 304 304 305 307 307 307 307 309 312 312 314 316 315 307 306 306 308 307 308 309 309 307 305 303 303 302 302 301 300 300 299 298 297 296 295 295 294 294 294 293 293 293 293
304 303 303 303 304 306 306 306 306 309 310 310 309 308 308 307 306 305 305 307 308 308 307 304 303 303 303 302 301 300 299 298 297 296 295 295 294 293 293 292 292 292 292 292
303 304 306 306 302 304 307 307 307 308 309 306 309 309 306 306 308 307 304 305 305 306 305 304 304 303 302 301 300 299 298 297 296 295 295 294 293 293 292 291 291 291 291 291
304 303 305 304 308 309 304 309 305 306 310 307 306 305 305 307 309 307 307 306 305 304 303 302 301 301 300 300 299 298 297 296 295 295 295 294 293 292 292 291 291 290 290 288
308 310 311 309 306 306 303 303 305 310 308 308 307 304 304 308 306 305 302 301 301 300 300 300 300 300 299 299 298 297 296 295 295 294 294 293 293 292 292 290 289 289 287 287
308 307 311 306 311 307 303 309 311 306 308 309 306 304 305 307 306 302 301 299 298 298 298 298 298 298 298 298 297 296 295 295 295 294 293 293 292 292 291 290 288 287 287 287
307 305 306 306 306 303 303 307 307 307 308 310 309 307 306 307 306 303 302 300 299 299 299 298 298 297 296 296 296 296 296 295 294 293 293 293 292 292 292 290 288 288 288 287
305 301 305 306 305 303 303 303 305 307 308 308 307 306 306 307 306 305 303 301 300 299 299 299 297 296 296 296 296 296 295 294 294 293 293 292 292 292 291 290 288 287 286 286
305 303 305 304 304 303 303 303 306 307 305 305 304 305 306 306 307 307 307 306 304 303 301 300 299 297 297 296 296 295 295 294 294 293 293 292 292 291 291 289 287 287 287 287
303 305 306 307 304 304 304 305 305 305 305 304 303 303 302 302 302 302 302 302 302 303 301 300 299 298 298 297 296 296 295 294 294 293 292 292 292 292 290 290 288 286 286 285

GFSCGP_925_thetae_075.txt.gz
Theta_e
312 313 317 317 315 314 316 318 320 320 321 322 323 321 321 321 321 323 322 319 317 315 312 310 310 311 323 324 329 336 337 338 338 339 338 337 337 337 336 336 335 334 335 337
313 316 313 315 316 315 318 317 319 317 320 321 321 321 319 321 320 322 322 319 316 313 311 310 309 310 311 313 316 322 329 335 338 338 338 338 338 338 338 338 338 338 338 337
315 315 313 316 317 317 315 316 316 317 319 316 319 321 321 319 318 318 319 317 316 311 312 309 309 310 311 312 313 314 317 319 321 325 331 335 336 336 336 336 336 336 336 336
316 314 314 316 318 315 319 314 315 316 320 323 318 323 321 320 320 320 320 319 317 310 308 308 309 310 311 312 313 313 313 313 313 313 312 312 313 314 315 318 321 322 319 320
316 316 315 317 318 315 317 312 314 314 315 316 316 321 318 317 321 319 320 319 316 311 309 308 309 311 312 313 313 313 313 313 313 313 313 313 312 311 310 310 311 311 312 312
313 314 316 316 315 313 311 313 314 313 316 323 317 320 319 313 318 319 317 316 316 311 308 307 309 312 312 311 312 312 312 312 313 313 313 313 313 312 311 312 312 313 313 313
317 317 315 313 318 315 312 315 321 321 322 320 311 315 318 313 309 310 311 311 312 308 307 309 311 310 310 310 311 311 311 312 312 312 312 313 313 312 312 312 312 312 312 312
318 319 317 313 315 316 314 312 315 318 319 318 310 316 316 311 308 307 306 307 306 305 307 310 311 310 309 309 310 309 310 310 311 311 311 312 312 312 312 311 311 311 311 310
318 318 315 315 314 314 316 315 307 307 304 311 312 310 308 307 308 307 307 306 307 305 308 310 309 309 308 309 309 309 309 309 308 309 309 309 309 309 309 308 308 307 307 306
312 319 314 315 314 314 314 309 315 307 313 315 310 309 311 309 308 306 305 307 307 307 309 309 309 308 308 308 308 307 307 307 307 307 306 306 305 305 304 304 304 304 303 303
309 314 317 315 315 317 316 314 310 310 308 313 313 312 305 307 305 304 304 305 308 309 310 309 308 307 307 307 307 306 306 306 305 304 304 304 303 303 302 302 302 302 302 302
309 312 317 318 313 312 314 314 309 313 311 303 306 311 304 303 303 303 306 308 309 309 309 308 307 306 305 305 305 305 304 304 303 303 302 302 301 301 301 300 300 300 300 300
309 308 315 315 313 310 315 315 309 305 304 305 314 313 302 304 307 308 309 310 310 310 308 307 306 305 304 304 304 304 303 303 302 302 301 300 300 299 299 299 298 298 298 298
308 307 308 309 308 310 314 314 312 311 316 311 311 310 310 307 306 307 309 309 310 311 309 307 305 305 304 304 303 303 302 302 301 300 300 299 298 297 297 297 296 295 296 296
307 307 304 307 308 309 311 313 314 313 314 315 313 311 311 310 308 306 306 307 308 310 309 307 305 304 303 303 303 302 302 301 300 299 298 298 297 297 297 296 296 295 295 294
303 305 305 307 309 308 310 309 312 314 314 313 313 314 311 308 305 306 306 307 308 309 309 307 305 303 303 303 302 302 301 300 299 298 298 297 296 296 296 295 295 294 294 294
305 304 305 307 306 307 308 308 308 311 312 314 316 314 310 311 310 310 308 307 309 309 309 307 305 304 303 303 304 302 301 300 298 298 296 296 296 295 295 294 294 293 293 293
303 303 303 304 305 308 307 305 305 307 309 311 311 312 308 309 309 307 305 306 307 308 308 306 305 304 304 304 302 302 300 299 298 296 296 295 295 295 294 293 293 293 293 293
302 303 306 306 303 304 307 306 306 307 309 306 310 310 309 305 306 306 305 304 306 307 306 306 306 305 304 303 302 300 299 298 297 296 296 295 295 294 293 292 292 292 292 291
302 302 305 305 307 308 302 309 305 305 310 306 306 307 306 305 309 309 306 304 306 305 305 304 303 303 302 301 300 299 298 297 296 296 295 295 294 293 292 292 291 291 291 290
307 308 310 311 311 307 303 303 304 310 308 307 308 305 304 306 306 304 303 301 301 300 300 301 301 301 301 300 299 298 297 296 297 296 295 294 294 293 292 291 291 291 290 287
307 307 308 308 312 309 302 307 310 306 306 309 307 305 303 305 305 302 300 299 298 298 298 299 299 299 299 299 299 298 297 297 296 295 294 294 293 292 292 291 290 289 288 287
307 304 306 305 306 303 302 306 306 304 307 309 308 307 304 306 305 302 300 299 298 299 298 299 299 298 297 298 298 297 297 296 295 294 294 293 293 292 291 291 288 287 286 286
304 300 304 305 304 302 301 301 301 305 306 307 307 306 305 307 304 304 302 300 300 299 299 299 298 297 297 297 297 297 297 296 295 294 293 293 292 292 291 291 290 287 287 287
304 302 304 303 303 302 302 302 303 305 306 305 304 305 306 307 307 306 305 303 302 301 300 299 299 298 298 298 297 297 296 295 294 294 293 293 292 292 291 291 290 288 288 287
303 305 306 307 304 304 304 303 303 305 305 303 303 303 301 303 303 303 303 301 302 303 302 302 301 300 301 300 298 297 296 295 294 293 293 293 292 292 292 291 290 287 287 287

GFSCGP_925_thetae_078.txt.gz
Theta_e
312 314 319 317 316 315 319 319 320 321 323 324 324 323 322 321 321 322 323 322 323 322 318 316 313 313 325 329 333 338 339 340 341 341 340 340 341 340 340 339 339 338 336 335
314 316 316 316 316 316 318 320 321 320 322 323 323 323 321 320 321 321 321 322 323 323 320 317 315 312 314 323 324 328 334 337 339 340 340 340 340 340 340 339 339 338 338 338
315 316 314 317 317 317 318 318 320 321 323 321 321 323 322 320 320 320 320 321 323 323 321 317 315 314 314 315 315 317 320 324 328 333 333 336 337 336 337 338 337 334 336 336
315 314 315 317 316 316 320 317 319 320 322 322 320 321 321 320 321 321 321 321 323 323 320 314 312 314 314 315 315 314 314 315 317 319 318 321 325 326 323 323 324 325 326 324
317 315 315 317 317 316 316 316 317 318 318 320 321 322 319 319 321 320 320 320 322 324 322 316 313 312 314 315 315 314 314 313 312 313 313 314 314 313 312 312 313 313 312 312
316 313 313 315 317 316 315 317 317 318 319 323 320 320 319 319 319 319 319 319 320 322 319 316 313 313 314 314 313 314 314 313 313 313 313 314 314 313 314 314 315 315 314 313
317 315 316 315 318 315 317 319 323 323 323 321 317 321 318 318 316 315 318 319 319 319 320 318 314 314 313 313 313 313 314 313 313 313 313 313 313 314 314 314 314 313 313 312
320 319 316 316 318 318 319 318 320 319 320 318 315 320 318 315 313 312 312 313 316 318 319 317 314 314 314 313 313 312 313 312 312 312 311 311 311 311 310 310 310 309 309 308
319 318 315 316 316 316 317 320 311 316 311 319 317 316 314 312 313 312 312 311 312 312 311 310 312 314 313 313 312 311 311 311 310 309 309 308 308 309 308 308 308 306 306 305
316 320 316 316 315 315 317 313 319 319 321 318 315 315 314 313 312 311 310 309 310 311 310 311 313 313 312 312 310 310 310 309 308 307 306 306 306 306 306 305 304 304 304 304
313 317 317 316 318 319 318 318 316 315 315 316 315 314 313 312 311 311 312 311 310 312 311 312 312 312 311 310 309 309 308 307 306 305 304 303 303 303 302 301 301 301 301 301
311 316 320 320 315 315 317 317 317 320 318 314 314 314 310 310 310 311 314 313 312 312 312 313 313 311 309 309 308 308 307 306 305 303 302 302 300 300 300 299 299 299 299 299
312 315 319 318 315 314 317 317 315 314 314 318 317 315 308 309 311 313 314 314 314 313 314 314 313 312 311 309 308 307 306 306 303 302 302 301 300 300 299 298 298 297 297 297
311 313 315 318 316 315 316 316 316 317 322 317 316 314 312 311 312 312 312 313 315 314 314 314 314 313 311 309 308 307 306 304 302 301 301 301 300 300 299 297 296 296 296 296
312 317 311 310 310 314 314 316 316 317 317 319 316 314 313 313 313 313 311 311 313 315 315 314 314 313 311 309 308 306 305 303 301 301 300 300 300 299 298 297 296 296 296 295
308 315 312 314 312 312 313 313 314 316 316 316 316 317 314 313 312 312 313 312 311 314 315 315 314 312 311 310 307 305 304 302 300 300 300 299 299 298 297 296 295 295 295 294
311 312 313 315 309 311 313 313 313 314 314 315 317 315 314 313 313 313 314 314 313 312 313 315 314 312 311 310 308 305 304 302 300 300 299 298 298 297 296 295 295 294 294 294
310 310 310 313 309 314 309 308 308 310 311 312 313 313 313 313 313 312 312 312 312 312 311 313 314 312 311 309 306 305 303 300 300 299 298 298 297 296 295 294 294 293 293 293
307 310 312 313 312 311 309 308 308 309 310 309 310 311 311 311 309 310 309 309 309 309 310 311 312 311 309 307 305 303 301 300 299 299 298 297 297 296 294 293 293 293 292 292
306 307 311 311 313 311 307 310 307 307 313 311 310 312 311 309 312 313 309 309 308 307 309 310 308 306 306 304 303 302 301 300 299 298 298 297 296 295 293 293 292 292 292 291
312 312 314 313 312 310 308 307 307 312 312 311 312 311 308 309 309 308 307 306 305 305 305 304 304 305 304 302 301 301 300 300 299 297 297 296 295 294 293 292 292 292 291 290
312 313 313 312 313 312 306 307 311 310 310 311 312 311 308 307 308 306 305 304 303 303 302 302 303 302 300 300 301 301 300 299 297 296 296 295 294 294 293 292 291 291 290 288
311 310 311 311 311 308 306 311 309 308 310 311 312 311 308 308 309 307 306 305 304 302 301 301 301 300 299 299 299 299 299 297 296 296 295 294 293 293 292 291 290 289 289 288
307 305 308 308 309 308 307 306 306 307 307 309 310 310 308 310 308 308 306 305 304 303 302 301 301 300 299 298 298 298 298 297 296 296 295 294 292 292 291 290 290 289 288 287
308 305 308 308 307 307 307 306 307 307 306 309 308 308 308 308 307 306 305 304 303 302 301 300 300 299 299 298 297 297 297 296 295 296 295 293 292 292 291 290 290 289 288 288
306 310 310 311 309 308 308 306 306 305 308 308 308 307 304 306 305 306 307 303 305 305 304 303 302 300 301 300 298 297 297 296 295 295 295 293 292 292 291 291 290 291 289 288

GFSCGP_925_thetae_081.txt.gz
Theta_e
310 313 317 318 316 314 316 317 318 319 322 324 325 325 324 323 323 324 323 323 324 324 323 319 317 318 330 341 342 343 342 342 342 342 342 342 341 341 342 341 341 341 340 339
313 316 317 316 316 318 318 321 321 321 321 323 322 322 321 322 322 322 322 323 323 324 323 320 318 317 318 331 333 338 340 341 342 342 342 342 342 342 341 341 341 340 339 339
317 316 315 317 317 320 318 319 320 321 321 321 321 322 322 322 321 320 322 322 322 323 324 322 319 318 316 321 325 327 333 339 339 341 341 340 338 339 340 340 338 337 336 336
315 314 316 317 316 315 318 317 318 321 323 324 320 320 320 321 321 320 321 321 322 323 323 323 318 315 317 316 318 318 320 323 324 329 332 335 336 336 334 333 332 326 326 326
317 315 317 317 316 315 316 317 318 320 321 318 322 322 319 320 320 320 320 321 321 321 322 323 318 315 316 317 318 317 316 317 316 317 318 318 318 317 316 315 315 315 316 314
316 314 315 317 316 316 317 318 317 317 318 322 319 320 317 320 319 318 319 319 320 321 322 324 319 315 315 317 317 317 316 316 316 316 316 316 317 316 315 316 316 316 316 315
316 315 314 317 318 317 316 318 322 322 323 321 318 319 318 318 317 317 317 319 319 320 321 324 319 315 316 316 316 316 316 316 316 316 316 316 317 317 317 316 316 316 315 315
320 319 318 317 318 319 317 317 319 318 319 317 317 319 318 317 316 315 315 316 317 319 321 323 320 316 316 316 315 315 315 315 315 315 314 314 314 314 313 313 313 312 312 311
319 319 314 316 318 318 319 321 315 318 317 319 318 316 316 314 315 315 314 314 315 315 317 316 319 316 316 316 315 314 315 314 313 313 312 311 311 311 310 309 308 308 307 306
317 320 316 317 317 317 319 316 317 321 321 316 316 316 316 314 314 314 313 312 312 314 314 313 313 315 316 315 314 314 314 312 311 311 310 309 307 307 306 306 305 305 304 304
315 318 318 317 319 320 318 319 318 317 317 317 315 314 315 314 315 315 315 314 313 312 313 313 313 315 315 314 313 313 312 311 310 309 307 306 305 305 304 304 303 302 302 302
314 317 320 319 317 316 318 318 318 320 318 316 316 316 314 313 314 315 315 316 315 314 313 313 314 314 314 313 312 311 311 310 308 307 306 305 304 303 303 302 301 301 301 300
314 317 320 320 318 316 318 318 317 317 318 323 318 315 313 312 312 315 315 314 315 314 314 314 314 313 312 312 311 310 310 309 307 306 305 304 304 303 303 301 300 300 299 299
312 315 317 320 318 317 317 317 317 318 323 318 317 315 313 312 314 314 314 314 314 315 315 315 315 314 313 313 311 310 309 308 306 305 305 304 304 303 302 300 299 299 298 299
314 319 314 313 312 316 316 316 316 319 318 320 316 315 314 314 314 314 314 313 313 315 315 316 316 315 314 313 311 310 309 307 305 304 304 304 303 303 301 300 299 298 297 297
313 318 315 316 314 313 314 314 314 316 316 317 316 316 314 315 314 314 313 313 313 313 315 316 315 315 315 313 312 310 309 306 305 304 304 303 302 301 300 299 298 297 296 296
314 315 315 317 311 312 313 313 314 314 314 315 317 316 315 314 314 314 313 314 314 314 314 315 316 315 315 314 312 310 308 306 304 304 303 302 301 301 299 298 297 296 295 295
313 314 314 316 312 315 312 309 310 311 313 313 313 313 313 312 312 312 312 313 314 313 314 313 315 315 315 314 313 310 308 306 304 303 302 301 300 300 298 297 296 294 294 294
310 312 313 314 313 312 310 309 309 310 310 310 310 311 313 312 311 312 311 311 311 311 311 311 312 314 315 313 311 309 307 305 303 303 302 301 300 299 297 295 294 294 293 293
309 310 313 313 313 313 311 311 309 309 312 313 312 313 313 311 313 313 310 309 310 310 309 311 312 314 313 311 309 307 305 304 303 302 301 300 299 298 296 295 294 294 293 292
312 312 313 313 313 311 309 310 309 312 314 311 312 313 313 311 311 309 309 309 307 307 309 310 310 310 310 308 306 306 305 304 303 301 300 299 298 297 296 294 293 293 292 291
312 312 313 312 313 313 309 308 309 311 311 311 312 312 313 310 309 310 307 306 305 305 305 306 307 307 305 305 304 304 304 302 301 300 299 298 297 296 294 293 292 292 291 290
310 310 311 311 311 310 308 309 310 310 311 311 311 312 312 309 311 310 309 307 306 305 304 304 304 303 303 303 303 303 302 301 299 298 298 297 295 294 293 293 292 290 290 290
309 309 309 309 309 309 309 308 308 308 309 309 308 311 311 310 311 310 309 307 307 305 304 304 304 303 302 301 301 302 300 298 298 298 298 296 294 293 293 292 291 291 290 290
311 308 310 310 310 309 309 309 308 308 308 308 309 310 311 311 310 309 307 306 305 305 304 303 303 302 302 300 300 300 298 298 297 297 297 296 294 293 292 292 291 290 291 291
310 310 311 312 310 310 310 308 308 309 308 308 310 309 308 308 308 308 309 307 306 306 305 305 305 302 301 300 299 298 298 297 297 296 296 296 294 293 292 292 291 291 291 290

GFSCGP_925_thetae_084.txt.gz
Theta_e
309 311 315 319 318 317 320 319 321 321 324 326 326 325 324 324 323 322 321 321 321 321 322 319 318 320 335 340 341 340 341 342 340 340 341 341 341 340 340 339 339 339 339 339
313 315 315 318 317 316 317 319 321 323 324 324 324 323 323 322 323 322 322 322 321 320 318 318 317 317 322 338 340 340 340 341 341 340 340 340 340 340 339 339 339 340 339 338
316 315 314 318 318 317 316 316 322 325 322 320 320 321 320 319 318 319 320 319 320 321 320 317 317 317 316 325 333 336 339 341 339 339 340 341 341 340 341 341 340 338 338 338
315 313 315 319 319 319 321 318 319 321 321 323 319 319 318 318 319 319 318 317 318 319 320 319 317 317 317 317 323 324 329 336 338 340 339 338 339 338 337 338 337 335 335 332
315 316 318 319 318 318 319 319 320 321 321 321 320 320 315 318 319 319 317 316 317 317 318 320 316 316 317 317 318 319 320 324 329 332 332 333 331 322 325 327 327 320 317 315
315 313 315 317 317 317 318 319 318 317 318 318 319 319 316 317 317 317 316 316 316 317 317 317 317 315 317 317 317 317 316 316 317 318 317 317 317 316 315 315 315 316 316 316
315 315 314 316 319 317 317 317 319 319 316 319 316 317 317 316 315 316 316 316 315 315 316 317 314 314 317 317 317 317 316 316 316 316 316 316 316 315 316 317 316 316 316 315
318 317 316 317 319 318 317 317 319 317 317 316 317 317 315 315 313 313 314 314 314 313 315 316 314 315 316 317 316 316 316 316 316 316 316 316 315 315 316 315 314 314 313 313
319 317 315 317 318 318 317 317 314 319 316 316 317 315 315 314 313 313 312 313 314 314 313 317 316 315 317 316 316 315 316 315 315 315 314 313 312 312 311 310 310 310 309 308
316 316 315 318 318 317 318 316 317 317 316 315 316 315 314 312 312 312 311 311 311 313 314 310 312 315 316 316 315 314 315 314 313 312 311 310 310 309 309 308 307 307 306 305
315 316 318 318 317 318 318 318 318 316 315 317 314 313 311 312 313 312 312 313 312 311 311 310 310 314 316 315 315 314 314 312 311 310 309 308 308 307 306 306 305 305 304 304
314 316 317 317 316 316 317 320 316 316 317 313 314 314 311 311 313 313 314 314 313 313 311 310 312 314 314 314 313 313 312 311 310 309 307 306 306 305 305 304 304 303 302 302
314 317 319 317 316 315 317 317 318 317 315 315 314 312 310 309 310 313 313 313 312 313 313 311 311 312 313 312 312 312 311 309 308 307 307 306 305 304 303 303 302 302 301 300
312 315 316 316 316 316 316 316 315 316 315 317 315 315 312 311 311 312 312 311 311 312 313 311 310 310 312 312 311 311 310 309 307 306 305 305 304 303 303 302 301 300 299 299
313 316 310 313 311 315 317 316 315 313 315 313 315 315 313 310 311 310 310 311 311 312 313 312 312 310 312 311 310 310 309 308 306 305 305 304 304 303 302 301 300 299 299 298
312 315 312 311 313 312 313 313 313 314 315 317 316 316 313 313 311 312 311 312 311 311 311 312 312 312 312 312 311 310 308 307 306 305 304 304 303 303 301 300 299 298 297 297
314 314 312 313 311 310 311 312 313 313 313 314 316 315 313 312 312 312 311 311 311 311 311 310 312 312 313 313 312 310 308 307 305 304 304 303 303 302 301 299 298 297 297 297
313 313 313 311 311 310 311 309 309 310 310 312 313 313 312 311 311 310 309 309 309 310 312 310 311 314 315 314 312 310 308 306 305 304 303 302 302 301 300 298 297 296 296 296
309 310 312 311 311 310 310 308 309 309 309 308 308 310 311 311 309 309 308 307 307 307 308 308 310 311 315 314 313 310 308 306 304 304 303 302 301 300 299 297 296 295 295 294
309 309 310 310 313 313 313 310 309 309 309 312 312 312 313 311 311 309 308 306 306 307 308 309 311 311 314 314 312 309 307 305 304 303 302 301 300 299 298 296 295 294 294 294
310 311 310 311 313 312 310 308 308 310 311 310 311 312 312 311 308 306 307 306 305 305 306 309 310 311 312 311 310 307 306 304 304 303 302 301 300 299 298 296 294 294 293 292
311 311 312 310 311 312 307 307 308 309 310 310 310 310 312 311 308 308 307 306 305 304 305 307 306 305 307 307 307 306 305 304 303 302 301 300 299 298 296 295 293 293 292 291
309 308 309 309 310 308 306 307 306 306 309 309 309 309 311 310 308 310 308 306 304 304 304 305 304 304 304 304 305 304 303 303 302 300 299 299 298 296 294 293 293 292 291 291
307 307 307 308 308 308 307 306 305 305 305 306 307 306 309 310 309 310 307 305 304 304 303 303 303 302 302 302 303 303 302 301 300 299 298 298 296 295 294 293 293 292 291 290
308 307 308 308 307 308 308 306 306 307 306 306 306 307 309 309 309 309 306 305 305 304 303 303 303 302 301 301 301 301 301 300 299 298 298 297 296 295 293 293 293 292 292 292
306 308 311 311 308 308 308 306 305 306 307 307 306 307 308 307 307 307 305 305 306 305 305 305 304 302 301 300 299 299 299 298 298 298 298 297 296 294 294 293 292 292 292 292

GFSCGP_925_thetae_087.txt.gz
Theta_e
306 312 314 313 314 317 319 321 321 322 324 326 326 325 324 323 322 320 319 319 319 320 320 320 326 333 339 341 341 342 342 341 340 340 339 339 339 337 338 339 339 339 339 339
311 314 313 314 314 318 320 321 321 322 322 321 323 324 322 321 321 319 318 318 318 318 317 316 319 321 330 339 340 341 341 340 340 339 339 338 338 338 337 337 338 339 339 339
312 315 315 317 318 318 318 319 321 322 324 323 323 323 322 320 320 319 318 317 317 317 316 314 315 318 321 333 339 339 340 339 339 339 338 339 338 338 338 337 338 339 338 337
312 313 317 317 317 317 318 318 321 323 323 324 321 324 319 319 318 319 318 315 316 315 315 314 314 315 317 326 332 336 337 339 338 338 338 338 336 336 337 337 337 338 337 336
316 316 317 320 319 318 319 318 321 323 321 322 319 319 316 315 317 316 314 314 313 313 314 315 314 316 316 320 326 326 331 337 337 339 337 336 336 336 335 336 335 334 334 331
314 313 314 316 318 317 319 319 319 319 317 315 319 317 315 315 317 316 315 313 313 314 314 313 316 316 316 317 321 323 322 323 328 332 334 335 334 329 328 327 326 322 316 315
312 313 312 315 316 317 320 315 319 319 315 317 314 317 315 314 313 313 313 312 312 312 313 313 312 313 317 317 317 318 319 318 318 319 319 322 322 319 317 315 315 316 316 315
310 309 316 314 318 318 319 315 313 318 317 314 314 315 314 312 312 312 311 311 311 312 310 312 312 313 317 317 317 316 316 316 316 316 316 316 316 315 315 316 316 316 315 314
312 316 315 316 317 316 316 312 312 315 312 311 314 314 311 311 311 311 311 312 312 311 310 312 311 313 316 316 317 316 316 316 316 316 316 316 315 315 315 315 314 313 312 311
313 318 314 317 316 316 317 315 313 308 314 316 314 314 312 310 309 309 309 309 309 310 309 309 310 313 315 316 316 315 316 316 315 315 314 313 312 312 311 310 310 310 309 307
313 312 316 316 316 318 317 317 316 313 312 315 313 310 307 309 310 311 311 311 310 309 308 308 309 313 315 315 315 315 315 315 314 313 311 311 310 309 308 308 307 306 305 304
312 312 316 316 315 315 316 318 317 311 315 309 310 311 310 309 310 311 312 313 312 312 309 308 309 313 314 314 314 314 314 313 313 312 310 310 309 308 308 305 305 303 303 303
312 310 308 314 313 313 316 316 317 314 311 311 312 310 308 309 311 311 311 310 310 310 310 309 309 310 312 313 313 313 312 311 310 309 309 308 307 306 305 305 304 303 303 302
311 312 309 307 311 313 315 315 315 313 310 315 313 313 311 308 308 308 310 310 309 310 310 308 308 309 311 312 312 312 311 310 309 308 307 307 305 304 304 303 303 303 301 300
311 311 305 311 311 312 314 315 314 310 313 312 315 314 313 310 309 310 308 308 309 310 310 309 308 307 310 311 311 311 310 309 308 306 305 305 305 304 303 303 302 301 300 299
310 310 308 307 311 311 312 311 311 312 313 314 313 314 311 310 311 310 309 309 308 308 310 310 310 308 309 310 310 310 309 308 307 306 305 305 304 303 303 302 301 300 299 298
311 310 307 308 310 308 309 309 311 311 311 313 314 314 312 311 311 310 309 309 308 308 308 308 309 310 310 310 311 309 309 308 307 306 305 304 304 303 302 301 300 299 298 297
311 312 310 307 307 307 307 308 308 310 310 310 310 311 311 310 310 309 307 308 307 306 306 307 307 311 311 311 311 310 309 307 306 305 304 304 303 302 301 300 299 298 297 297
306 308 310 309 307 307 309 308 309 309 308 307 306 310 310 309 308 308 307 306 306 305 305 305 307 309 312 312 311 310 308 307 306 305 304 303 302 301 300 299 298 296 296 296
308 306 307 307 310 312 309 308 308 307 306 309 310 310 311 309 310 306 306 305 304 304 304 306 308 310 309 312 311 309 306 306 305 305 304 303 302 301 300 298 297 295 295 295
308 308 307 308 307 309 307 308 307 308 305 309 311 311 311 310 307 305 305 305 304 304 304 305 307 308 310 310 309 306 305 305 306 305 303 302 301 300 299 298 297 295 294 294
308 307 308 307 309 309 306 306 307 305 308 309 309 309 310 309 308 306 307 305 304 302 304 304 304 304 306 307 308 306 305 306 304 304 303 301 300 299 298 297 296 294 293 293
307 305 306 307 308 306 305 305 305 305 304 306 308 306 307 308 308 306 307 305 303 303 303 304 303 303 304 306 307 305 304 304 303 302 301 300 299 298 297 296 295 293 292 292
306 304 306 307 306 306 306 305 304 305 305 304 304 304 304 306 307 307 306 303 302 302 302 303 303 302 302 303 304 304 303 303 302 301 300 299 298 297 296 295 294 293 292 291
305 305 306 306 305 306 307 305 304 305 305 305 306 306 306 306 307 306 305 303 303 302 302 302 302 302 301 302 302 303 302 302 301 300 299 298 297 296 295 294 293 293 293 293
306 308 308 310 307 305 305 303 303 303 304 304 304 305 306 306 306 306 305 304 304 304 304 303 302 301 300 301 300 300 300 300 299 298 298 297 297 296 295 294 293 293 293 293

GFSCGP_925_thetae_090.txt.gz
Theta_e
308 311 313 312 315 316 318 319 321 323 323 322 324 323 322 323 323 321 317 317 319 320 319 323 336 337 339 341 339 339 340 342 342 340 340 338 341 340 337 335 337 336 337 337
311 312 311 310 314 316 317 320 321 324 322 322 323 324 324 324 324 323 318 317 317 317 319 317 322 333 338 340 340 340 339 339 340 339 339 340 340 339 336 336 337 339 337 337
314 314 314 315 317 319 319 320 320 323 323 322 320 322 321 320 321 321 317 316 316 316 317 316 315 318 327 338 340 341 341 340 340 340 339 339 338 337 336 336 336 336 338 338
315 314 316 317 318 317 320 318 319 323 324 327 322 324 319 318 318 319 319 315 315 315 314 314 314 315 317 329 339 340 340 339 339 340 340 339 337 337 336 335 336 337 336 337
314 318 318 319 318 317 319 319 321 322 322 321 324 322 318 313 318 317 316 317 314 313 313 314 313 317 318 319 333 338 339 339 339 338 338 338 337 336 336 335 335 334 333 333
314 312 315 316 317 317 318 320 320 321 320 323 320 321 317 314 317 317 313 313 314 313 312 311 316 316 316 316 324 331 334 337 337 337 337 337 336 335 333 334 333 331 329 329
313 313 313 315 318 317 318 319 322 323 320 319 316 320 318 313 311 314 313 312 311 310 310 311 311 311 314 314 321 323 327 331 332 333 334 334 334 332 333 331 330 325 322 318
311 316 315 314 317 319 318 317 317 321 317 314 314 319 314 310 311 311 311 311 310 310 309 310 310 311 314 315 318 318 319 321 322 326 322 325 326 324 324 322 318 317 316 315
309 313 314 315 315 316 318 313 312 312 309 310 312 312 311 311 311 310 310 310 311 310 308 310 309 311 314 315 317 317 317 318 318 317 317 316 317 316 315 315 315 315 315 314
312 311 313 315 314 315 314 313 312 308 312 316 313 314 311 310 311 309 309 309 307 306 309 308 309 310 314 315 316 316 315 315 315 315 316 316 315 315 315 314 314 313 311 310
311 310 313 313 313 318 316 315 314 310 310 312 313 311 305 307 307 308 310 311 310 309 307 306 308 311 313 315 316 316 315 315 315 315 315 315 314 313 312 311 310 310 309 308
311 310 312 316 314 315 315 317 313 309 312 306 308 309 307 308 308 309 310 311 311 310 307 307 307 311 313 314 314 314 314 315 315 314 314 311 313 311 310 311 310 308 306 306
311 308 314 311 311 311 315 315 316 311 308 308 309 309 306 308 310 310 310 310 309 310 310 307 308 309 311 312 313 313 313 313 313 311 311 310 307 307 308 309 307 305 305 304
310 309 307 307 309 311 315 315 315 312 308 313 311 313 311 308 308 306 308 308 307 308 308 307 307 308 311 312 312 313 313 313 312 311 309 307 306 305 305 305 306 304 303 302
310 310 304 310 311 311 313 314 313 309 313 312 314 313 312 310 308 309 309 308 307 306 308 308 307 306 309 311 312 312 312 311 311 310 308 307 307 306 304 303 303 302 301 300
308 308 305 307 310 310 312 310 310 311 312 312 313 313 311 309 307 309 308 308 308 306 306 308 307 307 308 309 311 311 311 310 309 309 308 307 305 304 303 302 302 301 300 300
310 308 306 308 308 307 308 308 309 311 310 312 313 312 310 311 310 310 308 308 307 307 306 306 305 307 309 310 310 310 310 309 308 308 307 305 304 303 302 302 301 301 300 299
309 310 307 305 305 306 306 306 307 309 309 308 308 309 308 308 309 308 307 307 306 305 305 304 304 305 308 310 310 310 309 308 307 306 305 304 304 303 302 301 300 299 298 298
305 307 309 308 306 306 308 308 308 307 306 309 308 310 310 309 308 307 306 306 305 304 303 304 304 306 306 308 310 310 308 308 306 306 305 304 304 303 301 300 299 298 297 297
305 304 306 305 309 311 306 308 307 305 306 306 309 310 311 309 308 306 305 304 304 304 303 303 304 306 308 308 309 309 307 306 305 306 305 304 304 303 302 301 299 297 296 296
307 306 306 307 308 308 306 306 306 308 304 307 309 309 309 309 306 306 303 303 304 303 303 304 304 304 306 308 308 307 306 305 307 306 306 304 303 303 301 300 298 297 296 294
307 306 307 306 307 307 305 306 307 303 305 306 305 306 307 306 306 306 305 303 303 302 303 304 303 303 304 306 306 305 305 306 306 306 304 303 302 301 300 299 298 296 295 294
306 304 305 306 306 305 304 304 304 303 303 303 303 303 304 305 305 306 305 304 302 303 303 303 303 303 303 304 305 304 304 305 305 304 303 302 301 300 299 298 297 296 294 293
305 303 304 306 304 306 305 305 304 303 304 304 303 303 303 304 305 304 305 304 302 302 302 302 302 302 302 304 305 305 305 305 305 303 302 301 300 299 298 297 296 295 294 292
303 304 305 304 304 304 305 303 302 301 302 303 303 304 305 305 305 304 305 304 302 302 302 302 302 301 301 302 303 303 303 303 302 301 300 299 299 298 297 296 296 295 294 294
302 305 304 303 304 303 302 301 301 299 299 301 302 304 304 304 304 304 305 304 303 302 302 302 301 302 301 301 302 302 302 302 301 300 299 298 298 297 296 296 295 294 294 294

GFSCGP_925_thetae_093.txt.gz
Theta_e
307 311 311 310 314 314 315 318 321 320 321 320 320 322 323 322 322 321 319 317 318 323 324 326 334 337 339 338 338 337 336 335 337 337 338 338 337 335 338 337 336 336 336 336
310 312 310 311 311 314 317 318 319 322 322 320 321 320 324 324 323 322 321 318 316 318 318 317 321 332 336 339 339 338 338 338 338 337 332 335 337 337 339 338 337 337 336 336
312 312 311 310 312 318 318 320 322 323 322 320 320 320 320 321 322 319 319 317 315 316 316 317 315 325 333 336 338 339 339 339 339 339 338 339 338 337 338 336 335 336 337 336
315 313 312 311 318 316 319 319 322 323 324 328 322 324 321 319 320 319 317 316 314 314 314 314 315 315 322 333 336 337 337 337 337 338 338 339 338 337 338 336 336 337 336 334
316 316 314 317 319 317 319 319 321 321 321 322 324 322 320 315 318 316 314 313 313 312 312 314 314 316 318 319 321 334 337 336 336 337 337 337 337 337 337 335 335 335 334 333
315 313 315 316 316 318 318 319 319 319 320 322 324 322 320 313 315 316 314 311 313 313 312 311 314 316 317 318 318 319 333 336 335 335 337 337 336 336 335 334 333 331 329 329
315 314 314 314 317 318 318 318 323 322 322 322 318 321 318 315 313 310 314 311 310 311 311 310 310 311 315 315 317 317 326 333 335 335 335 334 333 333 332 331 331 325 324 324
315 311 316 314 317 319 317 316 318 322 319 315 316 321 317 310 308 309 311 311 309 309 308 308 308 310 313 314 315 316 323 328 331 331 330 331 331 331 330 329 327 323 320 318
310 316 313 315 315 316 316 318 311 311 309 311 314 310 310 310 310 309 309 308 308 308 307 309 309 309 312 314 315 315 320 321 322 324 324 324 325 325 326 326 325 324 320 315
311 314 311 315 314 315 314 311 314 312 318 314 311 312 310 312 312 310 309 307 306 305 307 305 307 309 310 312 313 315 317 318 318 318 319 319 320 319 319 319 315 315 314 313
309 308 312 312 314 317 316 314 311 310 309 311 314 312 306 307 309 309 309 310 309 308 306 305 305 310 311 313 314 315 315 315 315 315 315 315 315 314 315 315 315 313 312 310
310 309 308 315 313 313 314 317 309 308 311 304 307 309 305 306 307 309 310 309 308 308 307 305 305 308 311 312 313 315 315 314 314 314 314 314 313 312 312 312 311 313 315 314
310 307 304 307 308 310 314 314 312 308 306 307 308 308 306 308 309 309 310 309 307 308 307 306 306 307 309 311 313 314 314 314 314 314 313 312 311 310 309 308 309 309 308 307
309 307 306 306 309 309 314 314 314 310 305 311 309 311 310 309 309 306 307 308 307 305 306 306 305 306 309 311 312 313 313 313 314 313 312 311 309 309 308 307 306 306 305 305
308 309 303 309 310 310 313 314 313 306 313 312 314 312 311 310 309 306 306 307 306 305 305 305 306 305 307 309 311 312 312 312 312 311 311 310 309 307 306 306 306 305 304 302
306 307 304 307 308 310 311 310 310 310 312 311 311 312 311 310 307 307 307 307 307 307 305 304 305 306 307 308 310 310 311 311 311 310 310 309 307 305 306 306 304 302 301 300
309 307 306 308 306 307 307 309 308 309 309 311 312 309 309 308 309 308 308 307 306 306 305 304 304 303 305 307 309 310 310 310 310 309 309 307 306 306 305 303 302 301 300 300
309 308 306 305 305 304 305 303 305 308 307 307 306 306 305 306 306 306 306 307 306 305 304 304 303 304 305 306 306 309 309 309 309 308 307 306 305 304 303 302 301 300 299 299
305 306 307 308 306 304 308 307 307 307 306 308 308 308 309 308 306 305 305 304 305 303 302 303 304 304 304 305 307 306 308 308 307 307 306 306 304 303 302 302 301 300 299 298
304 303 307 304 309 310 304 308 306 304 306 304 308 308 308 307 307 304 304 304 303 303 304 303 304 304 304 306 306 306 306 306 306 307 306 306 305 304 303 302 300 299 298 298
306 305 306 307 307 307 305 305 304 308 303 302 304 303 304 306 305 304 303 302 303 304 304 304 303 303 304 305 305 305 305 304 308 307 306 305 304 304 303 302 300 299 298 297
306 305 306 304 307 306 303 305 306 302 303 303 303 303 303 303 303 303 303 304 303 302 303 304 303 303 304 305 304 304 304 307 305 306 306 305 304 303 302 301 300 298 297 296
307 304 305 304 305 304 305 303 304 302 303 302 302 302 302 303 303 303 303 303 303 304 303 303 302 302 303 304 304 304 304 304 304 305 304 304 303 302 302 300 299 297 296 295
305 302 303 305 303 305 303 304 302 301 301 300 301 301 302 303 304 304 304 305 304 305 303 303 302 301 301 303 303 304 303 303 304 303 303 302 302 300 300 299 298 297 295 294
302 303 303 303 303 301 303 301 299 298 297 297 297 299 299 300 301 302 304 304 304 304 304 302 301 301 301 302 302 303 303 303 303 303 302 301 300 299 298 298 298 297 296 296
300 303 302 302 302 302 300 298 297 296 295 296 298 298 297 297 298 299 301 303 303 304 304 301 301 301 301 301 302 301 302 302 302 301 300 300 300 299 298 297 296 296 295 295

GFSCGP_925_thetae_096.txt.gz
Theta_e
307 308 310 307 310 309 311 316 319 320 321 319 318 316 317 321 320 320 321 319 319 323 326 333 336 336 336 334 331 331 331 331 334 336 338 338 332 336 337 337 338 336 335 334
309 311 309 308 311 312 313 317 320 322 319 319 319 319 317 318 321 321 321 320 318 318 319 317 326 335 335 334 333 332 332 331 334 332 331 337 336 337 337 337 338 337 335 334
310 311 310 311 313 316 314 318 321 322 319 320 320 320 319 317 318 319 318 319 317 317 317 317 316 327 333 336 337 337 336 335 335 332 334 335 335 335 336 336 337 337 336 335
312 311 310 310 316 316 318 315 319 321 322 326 321 323 321 319 318 318 316 316 316 316 315 314 315 315 325 332 335 337 336 336 336 335 335 335 334 334 334 332 335 336 335 335
315 314 313 314 318 314 318 318 319 320 322 323 323 323 320 317 318 316 314 313 313 313 314 314 314 316 318 317 325 331 334 334 334 335 335 334 335 335 336 334 335 334 333 333
313 305 310 316 316 317 316 317 317 318 318 320 323 321 320 316 316 316 313 311 312 312 312 312 314 315 316 317 317 318 320 330 334 335 334 335 334 334 334 333 333 329 329 329
315 316 315 314 317 317 316 314 316 318 320 319 319 320 318 315 312 312 311 309 309 310 311 311 311 312 314 316 316 316 317 321 331 334 334 334 334 334 333 332 330 329 327 323
305 315 316 315 317 319 317 314 314 321 320 316 317 321 315 310 307 308 309 309 308 308 307 309 308 310 312 314 315 315 316 318 326 331 332 332 333 332 331 330 329 329 328 327
310 318 313 314 316 316 318 312 310 310 309 313 316 312 308 309 309 307 306 304 305 305 305 308 309 310 309 310 313 313 314 317 324 328 328 327 327 327 327 327 328 327 327 325
310 318 312 315 314 314 313 311 313 309 313 313 311 311 312 308 310 308 307 306 305 304 304 304 304 308 310 310 311 313 313 316 320 321 321 321 322 323 324 325 325 326 324 322
308 309 313 311 314 316 313 314 310 309 308 312 313 310 307 306 305 308 307 307 306 305 304 304 303 307 311 311 313 313 314 316 317 317 317 317 318 320 321 321 320 319 318 315
309 307 312 315 311 312 313 315 308 309 312 303 306 309 304 306 307 308 308 308 307 307 306 305 305 307 309 311 312 313 314 314 315 315 315 314 315 315 315 313 313 312 311 309
309 306 304 307 308 309 313 314 309 306 305 306 306 308 305 306 308 306 308 307 306 305 305 305 305 305 307 309 311 312 313 314 314 314 313 312 312 312 312 311 310 309 307 307
307 305 306 305 308 309 314 313 313 308 305 310 308 310 309 308 307 305 305 306 305 305 304 303 304 304 306 308 310 311 312 312 312 312 313 312 312 311 311 310 310 310 307 305
306 308 302 308 310 309 312 313 312 305 310 309 311 310 310 308 308 307 305 305 306 306 305 304 303 303 306 307 309 310 311 312 312 311 311 311 310 309 308 307 306 306 305 305
305 306 303 306 306 308 311 309 309 310 311 311 311 311 309 308 307 307 306 306 306 305 305 304 303 302 304 306 308 309 310 311 311 311 311 310 308 307 307 305 304 305 305 303
307 306 305 307 305 305 306 308 308 308 308 310 311 308 305 305 305 306 306 306 305 305 305 304 303 302 304 305 305 306 307 309 310 310 310 309 307 306 304 304 304 304 303 302
308 306 305 304 303 301 303 303 305 306 306 307 307 305 305 306 305 304 304 305 305 304 304 303 303 304 305 305 305 305 306 306 308 309 309 308 306 305 304 304 303 302 301 301
304 304 306 306 305 303 307 306 307 307 306 303 307 305 305 304 304 304 301 302 303 302 302 303 304 304 304 304 305 304 305 305 306 307 308 308 306 304 303 302 302 301 301 300
303 302 304 304 308 308 303 307 305 303 305 302 303 303 303 303 305 304 301 301 302 303 303 303 304 304 304 305 304 303 304 304 304 306 308 307 306 305 303 302 301 301 300 300
305 304 307 307 306 305 303 304 304 309 303 302 302 302 303 303 302 302 300 300 302 303 304 305 304 303 304 304 303 303 303 303 306 305 306 306 306 305 303 303 301 301 300 298
306 304 305 304 306 305 303 303 307 302 302 302 301 301 301 302 302 302 302 302 302 301 302 303 303 303 304 303 302 302 302 306 304 304 305 305 305 303 303 302 301 299 298 296
306 302 304 303 304 302 304 302 302 301 301 301 299 299 299 299 299 299 300 301 302 302 303 303 302 302 303 303 302 301 304 304 303 304 304 304 304 303 303 301 300 297 297 296
303 300 303 303 302 304 303 300 300 300 299 297 296 296 297 298 297 297 297 298 298 299 301 303 302 300 301 302 302 302 303 303 302 302 302 301 301 300 300 300 299 298 296 295
301 301 302 302 301 301 302 299 298 297 295 294 294 295 296 297 297 297 298 299 299 300 302 303 303 303 300 302 302 302 302 302 301 301 300 300 300 300 299 299 299 298 298 298
298 301 302 303 300 300 300 298 296 295 294 294 295 296 297 296 296 296 297 297 298 300 302 302 302 303 301 302 301 301 301 301 301 300 299 300 300 300 299 299 297 297 297 297

GFSCGP_925_thetae_099.txt.gz
Theta_e
306 307 309 307 307 308 312 311 313 317 319 318 318 316 316 315 315 318 322 323 327 333 333 332 327 333 331 330 328 331 328 327 328 332 336 335 335 334 334 333 333 334 334 334
307 310 309 307 307 309 308 311 317 318 319 319 319 319 318 316 316 318 321 323 321 323 324 331 333 333 333 331 329 329 329 327 328 333 334 331 335 335 335 335 336 336 336 336
308 310 310 309 310 311 307 314 318 318 320 319 319 321 319 318 318 317 319 319 320 320 319 319 328 332 333 331 330 329 331 330 329 333 336 335 334 333 334 334 334 335 336 334
309 309 312 310 311 313 315 314 318 320 322 325 321 323 321 320 320 318 317 317 318 318 317 316 317 319 329 332 332 331 332 332 331 332 333 333 333 333 332 330 333 335 335 334
314 313 310 314 314 315 315 317 319 320 322 322 322 322 320 317 322 320 316 316 316 315 317 318 316 316 317 321 331 332 332 333 333 330 332 333 333 333 331 332 332 332 333 333
309 308 311 315 316 314 316 317 318 318 318 321 322 319 318 320 319 316 314 316 315 316 315 314 313 314 315 316 316 319 329 331 333 333 333 334 333 334 332 332 333 331 330 332
313 313 315 314 318 316 314 314 318 318 320 320 314 319 317 314 315 313 313 310 309 311 312 313 313 313 314 315 315 316 316 319 326 332 333 333 333 333 332 331 330 327 327 327
315 320 316 315 317 318 316 312 315 319 321 318 317 320 316 308 309 307 307 307 308 309 309 310 309 309 311 312 313 313 315 316 319 326 332 332 333 333 331 330 329 327 327 327
316 318 314 316 316 316 316 313 309 311 309 318 314 313 308 308 308 307 306 305 306 307 307 307 307 309 310 310 310 311 313 314 317 323 328 329 329 330 330 329 328 327 327 326
311 320 314 314 315 315 314 310 312 311 314 314 312 311 312 309 307 307 308 307 306 305 305 305 305 307 310 311 311 311 312 314 317 323 325 325 324 324 325 326 326 326 326 324
307 311 314 312 314 316 316 315 309 308 308 313 312 312 306 307 306 308 308 308 307 307 306 305 305 307 309 311 312 312 313 314 317 319 319 319 319 321 323 324 323 324 324 322
308 308 314 314 310 310 312 314 307 311 312 304 308 311 304 306 307 308 309 308 306 306 306 306 305 306 308 310 311 312 312 314 315 316 315 315 316 318 321 322 321 321 319 316
308 306 306 309 308 308 312 312 307 306 306 308 310 311 305 306 307 305 306 307 306 305 306 305 305 305 306 308 310 312 313 313 313 313 313 313 313 315 316 317 317 315 312 309
306 305 305 305 308 308 313 312 310 307 308 311 308 310 309 308 308 308 306 304 305 305 305 304 303 303 305 307 309 310 312 312 312 313 313 313 312 312 312 311 311 310 309 308
306 308 302 306 308 308 312 312 311 305 309 310 310 310 309 308 307 307 305 305 306 306 305 304 304 303 304 305 306 308 310 312 312 312 312 312 311 311 310 309 308 307 307 307
304 306 302 307 305 306 310 308 308 310 311 311 311 312 306 304 303 306 305 305 306 305 304 304 304 303 303 303 304 304 306 308 310 311 312 312 310 309 308 307 307 307 306 304
306 305 305 307 305 305 307 307 307 308 308 309 310 307 304 306 307 306 305 304 305 304 304 304 303 303 304 305 305 305 304 304 306 308 309 310 310 309 307 306 305 304 304 304
306 305 305 304 301 301 303 302 304 306 303 303 306 305 304 304 304 304 302 303 303 303 304 304 303 303 304 305 305 305 305 304 304 305 307 307 307 306 305 304 303 303 302 301
302 303 306 306 304 301 306 306 306 306 305 303 305 304 303 303 302 304 301 302 302 302 302 303 303 303 304 304 304 304 304 304 304 304 305 307 306 305 303 302 302 302 301 300
302 301 304 304 306 305 301 305 304 302 305 303 303 303 303 302 305 304 301 302 301 301 302 302 302 302 302 304 303 302 303 303 304 305 305 305 306 305 304 303 302 301 300 301
305 303 306 307 305 305 302 303 303 308 302 302 302 301 302 303 302 301 300 300 300 300 300 301 301 301 302 302 303 301 302 302 305 305 304 304 305 305 305 303 302 301 299 299
305 304 305 304 306 304 303 303 305 302 301 301 301 300 300 299 298 298 297 297 296 296 297 298 299 301 301 302 301 300 300 304 304 304 303 303 304 304 303 303 301 300 299 298
304 301 303 303 304 301 303 302 300 300 299 300 298 296 296 296 296 296 296 297 297 297 297 298 298 298 300 301 301 300 302 302 303 303 302 302 302 302 302 301 300 298 297 296
301 298 302 303 300 302 300 299 298 298 298 296 294 294 294 295 296 296 295 295 295 296 297 298 299 300 301 301 301 301 301 302 301 301 301 301 300 300 301 300 299 297 295 295
299 299 300 301 300 301 300 298 297 296 295 293 293 294 295 296 296 295 295 295 296 296 297 298 299 300 300 301 301 302 301 301 301 300 300 300 299 298 297 297 297 296 297 298
298 301 302 303 300 300 299 296 295 294 293 293 294 294 294 294 294 294 294 294 295 295 296 297 298 297 298 299 301 301 300 300 300 299 298 298 298 297 297 297 295 296 299 299

GFSCGP_925_thetae_102.txt.gz
Theta_e
305 308 309 309 309 309 310 308 309 312 311 316 316 318 317 318 317 318 318 320 324 329 332 333 329 333 333 331 331 330 329 330 333 335 336 337 336 336 334 333 334 333 334 334
308 309 308 308 308 308 311 311 311 315 316 316 319 320 319 319 318 317 318 320 323 328 332 328 324 323 330 330 330 330 329 328 329 333 335 336 336 336 338 336 334 334 335 334
308 309 307 310 307 308 310 311 313 317 319 319 320 321 322 320 319 318 319 319 321 326 330 326 325 326 329 329 329 329 328 328 326 329 334 335 333 335 337 336 336 336 336 335
310 308 310 311 309 310 311 309 314 318 321 324 322 324 321 321 320 320 320 320 322 321 321 323 328 329 328 328 327 328 328 327 328 329 332 332 332 333 333 331 333 332 332 332
314 311 310 311 311 311 312 311 318 320 321 322 321 322 321 319 323 322 320 320 321 321 320 320 321 324 330 331 330 330 329 329 328 330 331 330 330 331 331 330 330 329 330 331
310 310 312 315 313 313 316 317 318 319 320 324 320 321 323 322 321 321 319 319 318 319 318 318 317 316 318 324 331 331 331 330 331 331 331 331 331 332 331 331 330 330 330 330
313 315 314 315 317 317 318 320 323 322 324 322 318 320 318 317 318 317 316 314 313 316 317 317 317 316 317 316 315 321 327 332 332 332 332 332 332 331 332 332 332 331 328 328
320 321 316 316 318 318 318 316 320 320 320 321 320 325 318 312 310 310 310 311 313 313 314 313 313 314 313 313 314 315 315 318 323 329 331 331 332 331 332 332 330 329 326 327
319 320 315 315 317 318 318 318 311 316 318 320 317 313 313 312 311 311 311 312 312 312 312 311 312 312 313 312 312 312 314 315 319 323 328 330 330 332 330 330 327 326 325 325
313 322 315 314 316 316 316 312 318 318 320 319 315 315 316 313 312 313 312 312 312 312 311 311 310 311 312 313 313 312 312 314 317 321 324 325 326 327 327 327 327 326 323 324
311 317 318 315 318 319 318 317 313 313 313 316 315 316 311 311 310 313 313 312 312 312 312 311 311 310 311 313 314 313 313 314 316 320 321 322 322 322 323 322 322 323 323 323
311 315 320 318 314 312 315 315 313 319 315 312 315 316 311 312 312 313 313 312 312 311 311 311 311 310 311 311 313 314 313 314 316 316 318 318 318 318 320 319 319 321 320 318
310 313 319 317 314 312 317 315 314 312 315 315 317 316 311 312 312 312 312 311 311 311 311 310 310 309 309 309 310 312 313 313 313 313 314 314 314 316 317 316 320 320 319 313
309 311 312 316 315 313 316 315 314 314 324 315 316 314 313 312 311 310 310 310 311 311 310 310 310 309 308 308 308 309 311 311 312 311 312 312 312 313 313 315 316 314 313 312
312 314 310 311 311 312 314 315 314 316 313 317 314 314 311 310 310 310 310 310 310 310 309 309 309 309 308 308 307 307 308 309 310 311 311 311 311 310 310 309 309 309 307 307
310 314 310 313 310 311 312 311 311 313 314 314 314 313 310 310 310 308 309 309 309 309 309 308 308 308 308 308 308 307 307 307 306 308 310 311 309 308 308 307 307 306 305 304
311 312 313 315 309 309 312 309 310 310 310 311 312 311 309 310 309 308 309 308 308 308 307 308 308 307 307 307 306 307 307 306 306 307 308 309 309 308 307 306 305 305 304 303
311 311 311 313 307 310 308 305 306 308 307 308 309 309 308 308 308 307 306 307 305 304 304 305 305 305 305 305 306 306 305 306 306 306 306 307 308 308 306 305 304 304 303 302
308 310 311 311 309 307 308 308 308 308 309 307 308 307 306 305 306 308 305 303 301 301 301 301 301 302 303 303 304 304 304 305 305 305 306 306 307 307 306 304 303 303 302 301
307 308 310 311 309 306 308 308 306 305 310 307 306 305 305 304 308 307 302 300 299 299 298 298 298 300 301 301 302 303 303 304 305 305 305 305 305 306 307 305 303 302 301 301
311 311 312 311 311 309 306 306 305 310 307 306 304 303 302 301 300 299 299 299 298 298 298 298 298 298 299 299 300 301 302 303 304 304 304 304 304 304 305 305 303 301 300 299
310 311 312 311 312 309 305 305 309 307 305 303 303 300 299 298 298 298 298 298 298 297 297 297 298 299 299 300 300 301 302 302 303 303 303 303 303 303 303 303 301 300 298 297
309 308 309 310 309 305 306 305 304 303 302 302 300 298 297 298 298 297 298 297 297 296 296 296 297 298 298 299 300 301 301 302 302 303 302 303 303 302 302 301 299 298 297 297
305 302 307 306 306 306 305 303 302 301 300 298 297 297 297 297 297 297 297 297 297 296 296 296 296 297 298 298 298 298 298 301 302 302 302 303 302 302 300 300 299 299 297 297
305 304 307 307 305 303 304 304 302 300 298 296 295 296 296 296 296 296 296 295 294 294 293 294 294 296 296 296 296 296 297 299 300 301 301 302 301 300 299 299 299 299 298 299
304 307 308 308 307 307 305 304 300 298 296 295 296 296 295 294 295 294 294 293 292 292 292 293 295 294 293 294 294 297 299 300 299 301 301 301 300 300 298 298 297 297 297 297

GFSCGP_925_thetae_105.txt.gz
Theta_e
306 308 308 307 308 309 310 309 308 308 305 311 312 315 315 317 319 319 319 319 322 324 325 330 328 331 332 330 331 329 330 331 333 335 337 336 336 336 335 334 333 333 334 336
307 308 307 310 310 312 313 310 310 309 309 312 313 316 315 317 317 318 319 319 321 323 330 329 325 325 325 328 330 331 331 330 330 333 333 336 337 337 336 335 334 334 334 334
310 310 308 310 311 310 311 311 310 314 313 313 314 317 319 319 319 318 318 318 320 323 331 327 324 324 324 323 330 329 329 328 328 330 331 333 335 333 336 337 337 335 335 336
311 308 310 311 311 309 310 309 310 316 316 321 318 322 321 321 322 320 318 321 322 324 329 327 325 325 328 324 329 329 328 328 328 329 329 331 332 332 334 334 333 333 335 335
314 311 311 312 310 308 312 313 312 318 319 323 324 327 322 321 323 322 323 320 323 323 327 328 327 326 325 325 328 328 326 326 326 327 327 330 330 330 329 330 331 331 331 331
311 310 311 313 313 311 312 315 316 320 322 322 321 323 325 320 321 322 319 322 323 323 323 324 324 325 327 326 325 326 328 328 326 326 327 329 330 327 330 330 331 332 330 329
316 316 314 315 315 313 312 320 325 325 326 323 321 322 323 316 313 318 317 313 321 321 320 320 320 319 320 324 327 329 329 329 327 326 326 329 328 325 326 328 328 328 329 329
321 319 314 316 318 320 315 320 323 327 325 323 320 322 320 316 314 313 313 313 315 318 317 316 316 317 318 318 317 320 326 330 330 330 329 329 330 329 330 330 330 329 331 329
321 321 316 317 318 318 319 318 313 319 318 321 321 317 317 314 314 315 315 313 314 314 314 314 314 315 315 314 314 315 316 317 322 328 331 332 331 331 332 332 331 331 330 327
317 320 317 317 318 318 316 313 320 323 322 320 320 320 320 315 314 314 314 313 313 313 312 312 312 313 315 315 315 315 313 315 317 320 324 328 331 330 330 329 329 327 326 324
314 319 320 318 318 319 319 318 316 315 316 317 318 317 313 313 314 314 313 313 313 313 313 312 312 312 312 314 316 316 315 316 317 320 323 325 326 327 329 328 327 325 324 323
313 318 320 319 315 313 316 317 315 323 316 317 317 317 313 314 314 314 313 313 313 313 312 312 311 311 311 311 312 314 315 316 317 318 319 321 322 322 323 324 323 322 322 321
312 315 321 319 317 315 316 315 315 315 321 318 319 317 313 314 313 313 313 313 313 312 312 312 311 311 310 310 310 311 312 314 314 314 315 316 316 318 320 321 319 319 320 320
313 314 316 320 318 316 317 315 315 318 326 317 316 316 313 312 312 312 312 312 312 311 311 311 311 311 310 310 309 309 309 310 312 313 313 314 314 314 316 317 316 316 317 316
314 315 314 313 313 314 314 314 315 317 316 319 316 314 313 312 311 311 311 311 311 310 310 310 310 309 309 309 309 309 309 309 308 310 312 313 313 313 313 313 313 313 313 313
313 315 313 313 312 313 312 312 313 314 315 315 314 314 311 311 310 310 310 310 310 309 309 309 309 309 308 308 308 308 308 308 308 308 308 311 312 312 311 311 311 311 311 309
313 314 315 316 311 311 313 310 311 312 311 312 314 313 311 311 310 310 310 309 307 305 305 305 305 305 306 306 306 307 307 307 307 308 308 308 310 311 310 310 309 309 308 307
312 313 313 314 310 314 310 308 308 310 309 310 311 311 310 309 308 308 308 307 304 301 301 301 301 301 301 301 302 303 304 305 306 307 307 308 308 309 310 309 309 308 307 306
311 311 311 312 309 309 309 308 309 310 311 309 310 310 308 307 307 309 307 303 300 300 300 300 300 300 300 300 301 301 301 302 303 304 306 307 307 308 309 309 308 307 306 305
311 310 311 311 311 307 310 309 308 308 310 309 309 308 307 305 308 307 301 299 299 300 300 300 300 300 300 300 301 301 301 301 302 303 304 305 306 307 307 308 308 306 306 305
312 312 312 311 312 309 309 308 307 311 312 308 307 306 304 304 302 300 299 299 299 299 299 298 297 297 298 298 298 299 300 301 301 302 303 303 305 305 306 307 308 306 304 304
310 311 312 311 312 312 308 307 309 309 307 307 305 303 301 299 299 299 299 299 299 298 298 298 297 297 297 297 298 299 299 299 300 300 301 302 304 305 305 305 306 306 303 302
310 309 311 310 311 308 307 308 307 307 307 305 303 300 298 298 298 299 298 299 298 298 297 296 295 295 295 295 296 297 296 297 297 298 299 301 302 304 304 305 305 305 302 302
308 307 308 308 308 307 308 307 306 304 304 301 298 298 298 298 298 298 297 298 297 296 295 294 294 294 294 295 294 294 295 295 296 296 298 299 301 302 304 304 303 303 301 300
308 307 308 309 308 306 307 307 305 303 300 298 297 297 297 297 297 296 296 296 295 295 294 293 293 293 292 292 292 293 293 292 294 297 298 299 301 302 303 303 302 301 301 300
307 307 308 308 309 308 308 307 305 303 300 297 297 297 297 296 296 295 295 294 294 293 293 292 292 291 291 291 291 291 291 290 291 295 299 300 301 302 302 301 300 301 301 301

GFSCGP_925_thetae_108.txt.gz
Theta_e
306 307 307 306 307 306 306 310 309 309 308 307 305 311 310 315 317 317 317 317 318 320 322 325 330 329 330 330 330 330 330 326 326 330 332 332 332 333 334 336 338 338 337 337
308 309 307 306 308 309 310 310 310 310 309 309 308 311 311 313 315 316 317 317 317 320 322 326 325 326 325 327 330 330 330 325 326 328 331 332 334 334 333 332 333 334 337 337
311 310 309 309 309 309 311 310 310 312 312 310 311 313 314 314 314 314 315 317 317 320 326 326 324 323 324 324 326 330 329 328 328 328 330 331 333 336 335 335 334 333 333 333
310 308 310 310 310 309 310 310 310 311 313 317 313 315 316 318 320 319 316 317 318 322 326 324 324 323 326 324 325 329 329 329 328 329 329 330 330 331 333 333 332 333 334 334
313 312 309 309 310 309 308 310 317 312 317 316 316 320 321 321 322 321 320 320 323 324 326 325 324 324 325 325 325 328 328 328 328 327 328 328 327 329 329 329 330 330 331 331
311 310 311 311 313 313 312 314 315 313 316 324 322 323 322 319 316 320 317 322 323 324 327 326 325 324 324 324 324 323 323 325 326 326 326 325 327 327 327 327 329 330 330 331
315 315 313 313 316 314 313 315 322 324 325 326 321 322 319 318 315 316 316 316 323 323 323 324 324 324 326 326 324 324 323 324 325 326 324 325 326 326 327 325 327 328 329 328
318 313 316 316 315 315 317 319 323 326 327 326 319 321 321 315 316 316 315 316 320 320 319 319 318 318 318 321 326 325 326 325 325 326 324 325 326 326 327 327 326 327 328 326
322 319 316 316 317 318 319 319 315 322 318 322 324 319 317 314 314 315 316 317 318 316 315 313 313 314 314 314 314 317 321 325 327 327 326 325 326 326 328 326 328 329 329 328
316 320 317 317 317 318 318 314 318 320 326 325 323 319 320 315 313 314 314 313 314 312 311 310 310 313 315 315 315 315 314 314 315 318 324 327 330 330 330 330 330 330 330 330
315 319 318 318 317 317 318 316 316 314 315 316 320 320 315 315 314 314 313 312 311 310 310 310 310 311 312 313 315 315 315 316 317 318 321 323 325 327 330 330 329 329 330 329
313 316 318 319 315 313 314 314 314 316 319 314 316 319 312 312 312 312 312 311 310 310 309 308 308 309 309 310 311 313 314 315 315 317 318 320 321 322 323 325 326 325 325 324
312 314 315 318 316 314 315 314 314 316 317 315 316 318 312 309 310 310 310 310 310 310 309 308 307 307 308 309 309 309 310 311 313 313 314 315 316 317 319 320 322 321 321 321
312 313 314 314 316 315 314 314 314 317 314 315 315 313 311 310 310 310 309 308 308 308 308 307 306 306 308 308 308 308 308 309 308 309 312 313 314 314 315 317 319 318 318 318
313 313 309 312 313 313 312 313 313 313 314 314 312 313 311 308 309 308 308 308 308 307 306 305 305 304 307 307 307 307 307 307 308 308 308 309 311 312 313 313 315 315 316 318
312 313 312 312 311 311 310 310 312 312 313 313 312 312 309 308 308 308 308 307 305 304 303 302 301 301 301 302 302 302 304 305 305 306 307 308 308 310 312 312 312 312 314 315
311 312 312 314 311 309 312 309 310 310 310 312 314 311 309 309 310 309 308 306 303 300 299 299 298 298 299 299 299 300 301 301 302 303 305 306 307 308 309 311 311 310 311 312
311 311 311 309 308 309 309 308 308 309 310 310 310 310 309 309 308 307 308 304 300 298 298 298 298 299 299 300 300 300 300 300 300 300 301 302 304 306 307 308 310 310 309 309
308 310 309 310 307 308 308 307 308 309 310 309 309 309 308 306 304 306 300 298 298 298 299 299 299 299 299 299 299 299 299 299 299 300 301 301 302 303 305 307 307 309 309 308
309 309 309 308 310 309 309 308 307 307 309 307 308 307 306 304 303 301 297 298 298 299 299 298 298 298 297 297 297 297 297 298 298 299 300 300 301 302 302 303 305 307 309 308
310 309 309 310 309 309 308 307 307 310 310 307 306 305 304 302 299 297 297 297 298 298 298 298 297 297 296 296 295 296 297 297 298 298 298 298 298 298 300 302 303 305 307 307
309 308 309 309 310 308 306 307 308 307 306 305 305 303 301 299 297 297 297 297 297 297 297 296 295 294 294 294 294 295 295 295 295 295 295 296 297 297 298 300 302 304 305 305
307 307 308 308 309 307 305 307 306 305 304 304 303 299 298 297 297 297 296 296 296 296 296 295 294 293 293 293 293 292 293 292 293 293 293 294 296 297 298 299 301 302 304 305
306 305 305 306 306 306 305 305 305 304 303 300 298 297 297 296 296 296 295 295 294 295 294 294 293 293 292 292 291 291 291 290 291 291 291 292 296 297 298 299 301 302 303 304
305 304 305 306 305 305 304 304 303 302 299 297 296 296 296 296 296 295 294 293 294 294 293 293 292 292 292 291 290 290 290 289 289 289 289 291 294 298 299 300 301 302 303 303
303 304 304 305 305 305 306 303 302 300 298 296 296 295 296 296 295 294 293 294 293 293 293 292 292 291 291 290 290 290 289 289 288 288 290 290 292 294 296 300 301 302 303 303

GFSCGP_925_thetae_111.txt.gz
Theta_e
306 305 305 304 305 304 305 306 306 306 308 309 308 307 306 305 308 308 310 306 313 316 318 321 324 328 329 329 329 329 329 328 331 333 334 332 331 330 328 328 328 330 331 330
306 307 306 305 306 306 309 310 309 308 307 309 310 308 307 307 309 309 312 313 314 316 319 325 325 325 326 328 329 330 329 327 328 331 332 331 332 334 334 334 333 332 336 335
308 307 309 309 309 310 309 309 309 307 309 309 309 309 307 307 309 309 311 313 314 314 318 324 324 324 324 325 326 326 329 325 324 326 328 327 331 331 332 333 335 335 336 337
308 308 309 310 311 310 310 308 311 313 311 307 309 313 311 310 310 312 311 313 313 316 322 324 323 323 324 324 325 325 327 324 324 325 328 328 328 329 328 331 332 333 334 336
312 311 312 309 308 308 310 308 310 311 314 313 312 315 319 317 318 317 316 312 313 318 322 323 322 325 324 324 324 325 328 326 326 326 327 328 329 328 328 329 330 331 332 333
310 310 310 311 311 312 314 312 314 314 315 317 317 316 320 317 316 315 317 317 319 322 324 323 324 323 324 323 323 326 328 328 328 327 327 327 326 325 326 327 327 328 330 330
314 313 311 311 316 315 314 314 318 317 317 323 318 319 318 314 316 316 317 314 321 324 325 324 323 324 324 323 323 323 325 327 328 327 327 326 325 324 325 325 326 326 326 329
315 308 314 316 315 315 314 316 321 324 323 324 319 320 316 314 315 316 316 318 320 318 318 316 317 319 318 322 323 324 325 324 325 325 325 325 325 325 324 324 324 325 324 325
317 313 314 315 316 318 319 321 315 321 321 318 320 317 315 311 314 316 318 316 315 314 313 313 313 313 314 313 316 320 323 325 325 325 326 324 324 325 325 325 324 325 325 325
315 318 316 317 317 317 319 316 318 317 323 324 320 319 318 312 313 315 315 314 314 312 312 311 311 312 314 314 315 314 313 314 316 318 323 326 325 324 325 326 326 327 325 325
313 317 315 316 316 315 315 316 314 313 315 321 321 321 309 310 315 314 312 313 312 309 309 309 308 309 310 312 313 314 315 316 317 318 320 322 324 325 328 328 328 328 327 327
311 313 311 316 313 312 312 314 312 312 317 313 315 318 313 312 313 311 311 311 309 308 308 307 306 306 307 308 308 309 309 311 312 313 315 316 318 320 323 324 326 326 326 326
310 310 309 310 309 309 314 312 313 313 310 312 313 319 310 309 309 309 309 309 308 307 306 305 304 304 305 306 306 307 307 308 308 308 309 311 313 314 315 317 320 323 323 323
311 310 310 310 311 312 311 312 311 311 308 313 312 311 309 309 309 308 307 306 305 305 304 303 302 302 302 302 302 302 303 304 305 306 307 307 308 310 312 313 315 318 319 319
310 310 306 311 312 311 309 311 311 308 311 308 310 311 308 308 307 307 306 305 303 302 301 300 299 298 298 299 299 299 300 301 301 302 303 305 306 307 308 310 312 313 315 315
308 309 310 311 309 309 308 308 310 311 311 310 310 311 306 305 306 306 305 303 301 299 298 297 297 296 297 298 299 299 299 300 300 300 300 300 302 304 305 306 308 311 311 312
309 308 307 312 309 308 309 308 309 309 309 310 312 309 307 308 308 307 306 303 300 298 297 297 296 297 298 298 298 298 298 299 299 299 300 300 301 301 302 303 306 307 309 310
309 308 307 304 304 305 308 307 307 308 310 309 308 308 307 307 306 303 299 298 296 297 297 297 296 297 297 297 297 296 297 297 297 297 298 299 300 300 300 301 302 303 306 308
306 307 307 307 305 305 307 306 307 308 308 308 308 308 307 304 303 300 296 296 296 296 297 297 297 297 297 297 296 296 295 296 296 296 297 297 297 298 299 300 301 301 302 302
308 306 306 306 308 307 305 306 306 305 306 305 306 306 305 303 305 303 296 296 296 298 298 298 297 297 297 296 295 295 294 295 295 296 296 295 295 295 296 296 297 298 299 301
306 306 306 307 305 306 307 306 305 308 305 305 304 303 302 301 298 296 296 297 297 297 297 297 297 295 295 294 294 294 294 294 295 294 294 294 294 294 294 295 297 297 298 300
306 305 306 305 308 305 304 306 304 302 304 304 302 301 301 298 297 296 296 296 296 296 296 296 294 293 293 293 293 293 292 292 292 291 293 293 292 292 293 294 296 297 297 298
305 304 305 305 306 303 302 304 303 303 303 302 301 298 297 296 295 296 295 295 295 295 295 294 293 293 292 292 291 291 290 290 290 290 290 290 290 290 291 294 296 297 298 299
304 302 304 304 302 304 303 304 303 302 302 300 298 296 295 295 295 295 294 293 293 293 293 293 292 291 291 291 290 290 290 289 289 289 288 288 289 290 291 292 295 298 298 299
301 303 303 303 302 304 302 302 302 301 299 297 295 295 295 295 295 294 293 292 292 292 292 292 291 291 291 290 290 290 289 289 289 288 287 287 288 289 290 291 292 294 296 300
301 303 305 303 302 303 303 300 300 298 297 295 295 295 295 295 294 294 292 293 293 292 293 292 291 291 290 290 289 289 288 288 287 287 287 287 287 288 289 290 290 292 293 295

GFSCGP_925_thetae_114.txt.gz
Theta_e
305 303 303 300 304 303 303 304 305 305 305 306 307 308 307 308 305 301 302 304 305 304 306 313 322 324 325 325 328 328 328 328 328 328 330 329 330 328 332 332 334 330 331 331
303 305 303 304 304 305 306 308 307 306 307 307 307 308 308 308 305 304 304 304 308 306 312 318 324 324 324 328 329 329 329 329 328 328 331 331 330 329 330 330 329 330 332 332
306 304 308 308 307 307 307 307 307 307 307 308 308 308 308 306 307 306 305 307 309 310 313 321 323 323 324 325 327 329 329 329 327 329 332 332 330 330 330 330 329 329 329 329
308 306 307 309 310 308 309 307 308 309 313 307 306 307 308 314 312 307 305 305 308 311 314 321 321 323 324 324 324 325 325 326 325 327 326 331 330 330 330 330 330 329 329 329
309 310 310 311 309 308 309 309 310 312 316 314 310 306 313 316 316 313 312 311 308 310 318 320 322 323 323 324 324 325 326 325 325 325 324 324 325 326 328 329 330 330 331 335
309 309 310 310 309 309 310 314 313 315 315 313 313 311 319 316 314 312 312 313 312 313 318 320 322 323 323 322 322 324 326 325 324 325 326 324 323 326 327 326 327 327 328 329
312 312 310 310 313 315 314 314 316 316 315 315 319 317 316 311 311 316 316 315 317 318 320 323 322 322 322 323 323 325 325 326 324 325 326 325 325 325 325 326 326 326 326 326
314 309 313 314 316 314 314 315 320 322 320 322 321 319 315 312 317 317 317 316 316 316 316 316 315 314 315 319 320 324 324 326 326 326 326 326 326 325 325 324 324 324 324 324
314 311 312 313 316 315 320 321 316 320 321 316 319 317 313 311 312 315 315 314 315 314 314 314 314 313 313 313 313 316 322 324 324 324 325 325 325 325 324 323 323 324 323 323
314 317 314 316 316 316 318 316 319 316 323 319 317 318 315 311 310 311 312 314 313 312 311 311 310 310 311 312 313 314 314 315 317 319 319 325 324 323 323 324 325 325 325 325
312 315 315 314 314 314 314 315 314 314 318 320 320 320 310 309 309 312 313 312 311 309 309 308 306 305 306 306 307 308 309 310 311 314 316 318 321 323 325 326 326 326 326 326
310 311 311 313 312 310 311 313 311 312 315 313 317 317 312 312 312 312 310 308 307 306 305 304 304 303 303 302 303 303 303 304 305 306 308 311 314 315 316 318 320 322 327 327
310 309 308 305 306 308 312 310 310 310 307 312 315 317 310 310 309 308 307 306 305 303 301 300 299 299 299 298 299 299 300 300 301 302 304 305 306 307 308 311 312 315 320 323
309 308 309 304 309 310 311 310 309 308 305 311 310 312 310 309 308 306 305 302 300 299 298 298 297 296 297 298 298 299 299 300 300 300 300 300 301 302 304 305 307 309 311 315
308 309 305 309 310 310 308 308 309 308 309 309 310 309 307 307 306 306 304 301 299 298 297 296 296 295 296 297 298 298 299 299 299 299 300 300 300 300 300 301 303 304 306 309
306 308 309 310 308 307 308 307 309 309 310 309 309 310 306 305 304 305 303 301 299 297 296 296 296 296 296 296 297 296 297 297 297 297 297 298 298 299 299 300 300 301 302 304
307 307 306 311 305 306 308 308 308 308 309 309 311 308 305 307 307 306 304 301 298 296 297 296 296 296 296 296 296 296 296 296 296 296 297 297 298 297 297 297 297 299 299 300
308 306 305 304 302 303 305 306 306 307 309 308 308 306 306 306 305 302 298 299 296 297 297 296 295 295 295 295 295 294 294 294 295 295 295 296 295 295 295 296 296 297 297 298
304 304 305 305 304 301 305 305 307 306 305 306 306 306 306 303 301 298 296 296 296 296 295 295 295 295 295 293 293 293 293 293 294 294 294 293 293 293 293 294 294 294 295 297
305 302 304 303 305 306 301 305 304 303 303 304 305 305 304 301 300 299 295 296 295 295 296 296 296 295 295 294 293 293 293 293 292 292 292 292 292 292 292 292 292 293 294 296
305 304 305 305 304 305 302 304 304 303 299 304 304 304 302 302 299 295 295 295 296 296 296 297 296 294 294 293 293 292 292 292 291 291 291 291 291 291 290 290 291 291 293 295
304 304 304 303 306 304 303 304 304 300 303 303 303 302 301 298 295 296 296 296 295 295 296 296 295 294 293 292 292 292 291 291 290 290 290 290 290 290 289 289 290 290 292 295
306 303 304 303 304 301 302 303 301 302 303 302 301 300 299 296 295 295 294 294 294 294 294 294 294 293 292 292 291 291 290 290 289 289 289 289 289 288 288 289 290 290 291 293
302 300 304 304 301 301 303 301 302 301 302 301 300 297 295 295 293 294 293 293 292 293 293 293 292 292 291 291 290 290 289 289 288 288 288 288 287 288 288 288 288 289 290 291
301 301 303 301 301 300 301 300 301 300 300 298 296 295 295 293 293 293 292 291 292 292 292 292 291 290 291 290 290 290 289 288 287 287 287 287 287 287 287 287 288 289 289 290
300 302 303 304 301 301 300 300 300 299 299 296 295 294 293 293 292 292 291 292 292 292 292 291 291 290 290 290 289 289 288 287 287 286 286 286 286 286 287 287 287 289 289 290

GFSCGP_925_thetae_117.txt.gz
Theta_e
304 299 302 300 302 302 303 303 304 304 304 305 306 306 306 306 305 304 302 302 300 302 303 305 306 307 315 323 323 322 324 325 327 327 327 327 328 327 327 327 327 333 331 331
303 304 302 302 303 304 303 306 305 304 305 305 306 307 307 307 307 306 303 301 300 302 304 305 308 318 322 321 320 325 326 327 327 328 328 328 329 330 328 328 329 333 332 331
308 303 307 307 307 308 307 307 307 306 306 306 307 307 305 309 306 304 302 301 303 305 307 308 317 322 322 321 322 323 326 328 328 328 328 327 328 329 328 329 331 330 331 332
307 305 307 307 308 308 307 306 307 308 310 311 308 312 306 311 312 308 306 305 303 304 307 310 317 320 321 322 323 324 325 328 328 328 327 326 331 329 329 329 329 330 330 330
305 308 309 310 310 308 307 308 310 313 315 316 311 312 307 312 312 312 309 310 311 309 308 313 317 320 323 323 323 323 323 325 325 325 325 325 329 330 330 330 330 330 330 331
310 308 309 310 309 308 308 311 313 315 315 312 312 310 312 314 313 312 311 311 312 314 312 316 318 321 321 321 322 322 322 324 325 324 325 324 326 327 328 329 329 329 329 329
312 311 309 309 312 314 313 313 312 310 307 313 317 315 316 312 312 315 316 317 317 317 317 316 316 316 315 316 315 316 324 323 325 326 324 323 323 326 326 326 326 326 326 327
312 310 311 311 314 315 315 315 319 320 320 315 317 317 317 312 312 314 316 315 317 317 317 316 315 314 313 313 312 313 325 325 324 326 325 324 324 324 324 325 325 324 325 325
312 311 310 312 315 315 318 320 316 319 320 313 317 316 314 311 308 312 313 314 315 316 313 312 309 309 309 310 310 312 314 317 320 321 323 324 325 325 324 323 324 324 324 325
311 315 313 314 314 315 318 316 319 314 321 319 316 318 315 311 307 307 309 310 312 310 308 307 305 304 304 303 303 304 305 306 309 314 318 322 325 325 323 323 323 323 323 324
311 313 311 312 313 314 312 314 315 313 317 317 318 318 315 311 308 308 308 309 308 306 305 303 301 300 299 299 300 300 301 302 303 305 306 308 310 314 317 320 322 324 325 326
310 309 310 311 310 310 310 312 310 310 315 312 313 317 313 312 311 311 308 306 303 301 300 299 298 297 297 298 298 298 299 299 300 300 302 303 305 306 308 309 311 312 316 320
309 307 306 305 305 307 311 309 309 308 309 311 313 315 309 310 312 306 304 300 299 298 297 296 296 296 296 297 297 298 298 298 299 299 299 300 300 300 301 302 304 306 307 310
308 307 307 304 307 308 309 307 308 307 304 310 310 313 310 308 306 305 301 298 297 296 296 296 295 295 295 296 296 296 297 297 297 297 297 298 298 299 299 299 300 300 302 304
307 308 305 306 307 308 308 307 307 305 308 308 310 309 307 306 305 304 302 299 297 296 296 295 295 294 295 295 296 296 296 296 296 296 296 296 297 297 297 296 297 297 298 299
305 307 307 309 307 305 307 306 307 309 309 308 307 308 304 304 304 304 302 300 297 296 296 296 295 294 294 294 295 295 295 295 295 295 295 296 296 295 295 295 295 296 296 297
306 306 306 308 304 303 304 305 307 308 308 308 309 307 303 305 305 304 303 301 297 296 297 296 294 294 295 295 294 293 294 294 294 294 294 294 293 293 293 293 294 294 294 295
306 305 304 304 301 298 301 304 305 306 305 306 307 306 304 305 304 302 300 298 296 297 296 295 294 294 295 293 292 292 292 293 293 292 292 292 291 292 292 292 292 293 293 293
303 303 305 303 302 300 302 305 306 307 304 304 306 306 304 302 301 300 295 295 296 296 295 295 295 294 293 292 292 292 292 291 291 291 290 290 290 291 291 291 290 291 291 292
302 301 303 303 304 302 299 303 303 302 302 301 305 304 303 301 302 297 294 295 295 295 295 294 294 293 291 291 291 291 290 290 290 290 290 290 290 289 290 289 289 289 289 290
304 304 305 304 303 302 300 304 301 301 298 302 303 303 301 301 298 295 293 294 295 294 294 294 293 292 292 292 291 291 290 290 290 290 289 289 289 288 289 288 288 288 289 289
303 303 303 302 305 303 302 303 304 299 302 302 302 302 300 298 294 293 293 293 293 294 294 294 293 292 292 292 291 291 291 290 290 290 289 288 288 288 288 288 288 288 288 289
303 302 302 302 303 300 300 302 301 300 303 303 302 300 299 296 295 294 294 294 293 294 293 293 292 292 292 292 291 290 290 290 289 289 288 288 288 287 287 287 287 287 287 288
300 298 302 303 301 299 300 301 299 300 301 301 300 298 296 297 294 294 293 292 292 292 292 292 292 292 291 291 291 290 289 289 288 287 287 287 286 287 286 286 286 287 287 288
300 299 301 300 300 299 300 298 300 299 299 300 298 296 296 294 292 292 292 291 292 292 292 292 292 291 291 290 290 289 289 288 287 287 286 286 286 286 286 286 287 287 287 288
300 302 303 305 301 301 300 300 299 299 299 298 296 295 293 292 292 292 291 292 292 291 292 292 291 291 290 289 289 289 288 287 286 286 286 286 286 286 286 286 286 286 287 288